<?xml version="1.0" encoding="UTF-8" standalone="no" ?>
<gpx xmlns="http://www.topografix.com/GPX/1/1" xmlns:xsi="http://www.w3.org/2001/XMLSchema-instance" xsi:schemaLocation="http://www.topografix.com/GPX/1/1 http://www.topografix.com/GPX/1/1/gpx.xsd" version="1.1" creator="VisuGPX - https://www.visugpx.com">
  <metadata>
    <name>Mont Jovet 18.01.2016</name>
    <desc><![CDATA[Départ de ND]]></desc>
  </metadata>
  <trk>
    <name><![CDATA[Tracé actuel: 19 JAN 2016 09:12]]></name>
    <trkseg>
      <trkpt lat="45.51337" lon="6.59836">
        <ele>1291.67</ele>
        <time>2016-01-19T08:12:03Z</time>
      </trkpt>
      <trkpt lat="45.51338" lon="6.59834">
        <ele>1291.67</ele>
        <time>2016-01-19T08:12:16Z</time>
      </trkpt>
      <trkpt lat="45.51341" lon="6.59838">
        <ele>1291.67</ele>
        <time>2016-01-19T08:12:34Z</time>
      </trkpt>
      <trkpt lat="45.5134" lon="6.59838">
        <ele>1291.67</ele>
        <time>2016-01-19T08:12:52Z</time>
      </trkpt>
      <trkpt lat="45.51338" lon="6.59839">
        <ele>1292.15</ele>
        <time>2016-01-19T08:13:02Z</time>
      </trkpt>
      <trkpt lat="45.51338" lon="6.59845">
        <ele>1292.15</ele>
        <time>2016-01-19T08:13:30Z</time>
      </trkpt>
      <trkpt lat="45.5134" lon="6.59844">
        <ele>1292.63</ele>
        <time>2016-01-19T08:13:43Z</time>
      </trkpt>
      <trkpt lat="45.51343" lon="6.59844">
        <ele>1292.63</ele>
        <time>2016-01-19T08:13:56Z</time>
      </trkpt>
      <trkpt lat="45.51339" lon="6.59838">
        <ele>1293.11</ele>
        <time>2016-01-19T08:14:21Z</time>
      </trkpt>
      <trkpt lat="45.5134" lon="6.59841">
        <ele>1293.11</ele>
        <time>2016-01-19T08:14:36Z</time>
      </trkpt>
      <trkpt lat="45.51338" lon="6.59841">
        <ele>1293.11</ele>
        <time>2016-01-19T08:14:54Z</time>
      </trkpt>
      <trkpt lat="45.51339" lon="6.5984">
        <ele>1293.11</ele>
        <time>2016-01-19T08:15:10Z</time>
      </trkpt>
      <trkpt lat="45.51339" lon="6.59841">
        <ele>1290.23</ele>
        <time>2016-01-19T08:15:11Z</time>
      </trkpt>
      <trkpt lat="45.51339" lon="6.59842">
        <ele>1295.51</ele>
        <time>2016-01-19T08:15:12Z</time>
      </trkpt>
      <trkpt lat="45.51339" lon="6.59845">
        <ele>1292.63</ele>
        <time>2016-01-19T08:15:19Z</time>
      </trkpt>
      <trkpt lat="45.5134" lon="6.59847">
        <ele>1292.15</ele>
        <time>2016-01-19T08:15:30Z</time>
      </trkpt>
      <trkpt lat="45.51339" lon="6.59844">
        <ele>1292.15</ele>
        <time>2016-01-19T08:15:47Z</time>
      </trkpt>
      <trkpt lat="45.51338" lon="6.59841">
        <ele>1292.15</ele>
        <time>2016-01-19T08:15:59Z</time>
      </trkpt>
      <trkpt lat="45.5134" lon="6.59844">
        <ele>1292.15</ele>
        <time>2016-01-19T08:16:26Z</time>
      </trkpt>
      <trkpt lat="45.51337" lon="6.59842">
        <ele>1292.15</ele>
        <time>2016-01-19T08:16:51Z</time>
      </trkpt>
      <trkpt lat="45.51338" lon="6.59843">
        <ele>1292.15</ele>
        <time>2016-01-19T08:17:09Z</time>
      </trkpt>
      <trkpt lat="45.51339" lon="6.59841">
        <ele>1294.55</ele>
        <time>2016-01-19T08:17:25Z</time>
      </trkpt>
      <trkpt lat="45.51338" lon="6.59841">
        <ele>1293.11</ele>
        <time>2016-01-19T08:17:41Z</time>
      </trkpt>
      <trkpt lat="45.51335" lon="6.59839">
        <ele>1293.11</ele>
        <time>2016-01-19T08:17:58Z</time>
      </trkpt>
      <trkpt lat="45.51338" lon="6.59845">
        <ele>1294.07</ele>
        <time>2016-01-19T08:18:10Z</time>
      </trkpt>
      <trkpt lat="45.51338" lon="6.59845">
        <ele>1292.63</ele>
        <time>2016-01-19T08:18:12Z</time>
      </trkpt>
      <trkpt lat="45.51338" lon="6.59838">
        <ele>1292.63</ele>
        <time>2016-01-19T08:18:27Z</time>
      </trkpt>
      <trkpt lat="45.51338" lon="6.59839">
        <ele>1292.15</ele>
        <time>2016-01-19T08:18:37Z</time>
      </trkpt>
      <trkpt lat="45.51338" lon="6.5984">
        <ele>1292.15</ele>
        <time>2016-01-19T08:18:41Z</time>
      </trkpt>
      <trkpt lat="45.51338" lon="6.59843">
        <ele>1287.34</ele>
        <time>2016-01-19T08:18:43Z</time>
      </trkpt>
      <trkpt lat="45.51338" lon="6.59843">
        <ele>1290.71</ele>
        <time>2016-01-19T08:18:44Z</time>
      </trkpt>
      <trkpt lat="45.51339" lon="6.59843">
        <ele>1290.71</ele>
        <time>2016-01-19T08:18:49Z</time>
      </trkpt>
      <trkpt lat="45.5134" lon="6.59843">
        <ele>1292.63</ele>
        <time>2016-01-19T08:18:52Z</time>
      </trkpt>
      <trkpt lat="45.51341" lon="6.59846">
        <ele>1293.11</ele>
        <time>2016-01-19T08:19:28Z</time>
      </trkpt>
      <trkpt lat="45.51341" lon="6.59848">
        <ele>1293.11</ele>
        <time>2016-01-19T08:20:01Z</time>
      </trkpt>
      <trkpt lat="45.51337" lon="6.59844">
        <ele>1293.11</ele>
        <time>2016-01-19T08:20:29Z</time>
      </trkpt>
      <trkpt lat="45.51338" lon="6.59845">
        <ele>1293.11</ele>
        <time>2016-01-19T08:21:05Z</time>
      </trkpt>
      <trkpt lat="45.51338" lon="6.59845">
        <ele>1293.59</ele>
        <time>2016-01-19T08:21:45Z</time>
      </trkpt>
      <trkpt lat="45.51338" lon="6.59841">
        <ele>1294.55</ele>
        <time>2016-01-19T08:21:56Z</time>
      </trkpt>
      <trkpt lat="45.51338" lon="6.59839">
        <ele>1294.55</ele>
        <time>2016-01-19T08:22:08Z</time>
      </trkpt>
      <trkpt lat="45.51338" lon="6.59837">
        <ele>1294.55</ele>
        <time>2016-01-19T08:22:22Z</time>
      </trkpt>
      <trkpt lat="45.51336" lon="6.5984">
        <ele>1295.51</ele>
        <time>2016-01-19T08:22:34Z</time>
      </trkpt>
      <trkpt lat="45.51336" lon="6.59845">
        <ele>1295.51</ele>
        <time>2016-01-19T08:22:44Z</time>
      </trkpt>
      <trkpt lat="45.51338" lon="6.59845">
        <ele>1295.51</ele>
        <time>2016-01-19T08:23:03Z</time>
      </trkpt>
      <trkpt lat="45.51338" lon="6.59842">
        <ele>1295.51</ele>
        <time>2016-01-19T08:23:17Z</time>
      </trkpt>
      <trkpt lat="45.51337" lon="6.59838">
        <ele>1295.99</ele>
        <time>2016-01-19T08:23:30Z</time>
      </trkpt>
      <trkpt lat="45.51338" lon="6.59839">
        <ele>1295.99</ele>
        <time>2016-01-19T08:23:42Z</time>
      </trkpt>
      <trkpt lat="45.51338" lon="6.59838">
        <ele>1295.99</ele>
        <time>2016-01-19T08:23:59Z</time>
      </trkpt>
      <trkpt lat="45.51338" lon="6.59841">
        <ele>1295.99</ele>
        <time>2016-01-19T08:24:12Z</time>
      </trkpt>
      <trkpt lat="45.51338" lon="6.59841">
        <ele>1295.99</ele>
        <time>2016-01-19T08:24:20Z</time>
      </trkpt>
      <trkpt lat="45.51338" lon="6.5984">
        <ele>1295.99</ele>
        <time>2016-01-19T08:24:36Z</time>
      </trkpt>
      <trkpt lat="45.51338" lon="6.59842">
        <ele>1295.99</ele>
        <time>2016-01-19T08:24:49Z</time>
      </trkpt>
      <trkpt lat="45.51338" lon="6.59838">
        <ele>1295.99</ele>
        <time>2016-01-19T08:25:02Z</time>
      </trkpt>
      <trkpt lat="45.51337" lon="6.59839">
        <ele>1296.48</ele>
        <time>2016-01-19T08:25:16Z</time>
      </trkpt>
      <trkpt lat="45.51336" lon="6.59839">
        <ele>1296.48</ele>
        <time>2016-01-19T08:25:38Z</time>
      </trkpt>
      <trkpt lat="45.51337" lon="6.59841">
        <ele>1296.48</ele>
        <time>2016-01-19T08:25:49Z</time>
      </trkpt>
      <trkpt lat="45.51336" lon="6.5984">
        <ele>1296.48</ele>
        <time>2016-01-19T08:26:03Z</time>
      </trkpt>
      <trkpt lat="45.51341" lon="6.59845">
        <ele>1296.96</ele>
        <time>2016-01-19T08:26:23Z</time>
      </trkpt>
      <trkpt lat="45.51339" lon="6.59844">
        <ele>1296.96</ele>
        <time>2016-01-19T08:26:53Z</time>
      </trkpt>
      <trkpt lat="45.51336" lon="6.59843">
        <ele>1296.96</ele>
        <time>2016-01-19T08:27:10Z</time>
      </trkpt>
      <trkpt lat="45.51331" lon="6.59853">
        <ele>1296.96</ele>
        <time>2016-01-19T08:27:19Z</time>
      </trkpt>
      <trkpt lat="45.51322" lon="6.5986">
        <ele>1297.44</ele>
        <time>2016-01-19T08:27:30Z</time>
      </trkpt>
      <trkpt lat="45.51306" lon="6.59861">
        <ele>1298.4</ele>
        <time>2016-01-19T08:27:46Z</time>
      </trkpt>
      <trkpt lat="45.51304" lon="6.59862">
        <ele>1298.4</ele>
        <time>2016-01-19T08:27:48Z</time>
      </trkpt>
      <trkpt lat="45.51299" lon="6.59866">
        <ele>1298.88</ele>
        <time>2016-01-19T08:27:53Z</time>
      </trkpt>
      <trkpt lat="45.51295" lon="6.5987">
        <ele>1299.36</ele>
        <time>2016-01-19T08:27:58Z</time>
      </trkpt>
      <trkpt lat="45.51292" lon="6.59892">
        <ele>1300.8</ele>
        <time>2016-01-19T08:28:13Z</time>
      </trkpt>
      <trkpt lat="45.51291" lon="6.59912">
        <ele>1301.76</ele>
        <time>2016-01-19T08:28:27Z</time>
      </trkpt>
      <trkpt lat="45.5129" lon="6.59929">
        <ele>1302.72</ele>
        <time>2016-01-19T08:28:41Z</time>
      </trkpt>
      <trkpt lat="45.51289" lon="6.59948">
        <ele>1303.69</ele>
        <time>2016-01-19T08:28:57Z</time>
      </trkpt>
      <trkpt lat="45.51289" lon="6.59955">
        <ele>1303.69</ele>
        <time>2016-01-19T08:29:01Z</time>
      </trkpt>
      <trkpt lat="45.51284" lon="6.59973">
        <ele>1305.61</ele>
        <time>2016-01-19T08:29:16Z</time>
      </trkpt>
      <trkpt lat="45.51278" lon="6.59985">
        <ele>1306.09</ele>
        <time>2016-01-19T08:29:27Z</time>
      </trkpt>
      <trkpt lat="45.51267" lon="6.59997">
        <ele>1307.05</ele>
        <time>2016-01-19T08:29:43Z</time>
      </trkpt>
      <trkpt lat="45.51264" lon="6.59998">
        <ele>1307.05</ele>
        <time>2016-01-19T08:29:46Z</time>
      </trkpt>
      <trkpt lat="45.51248" lon="6.60009">
        <ele>1308.97</ele>
        <time>2016-01-19T08:30:05Z</time>
      </trkpt>
      <trkpt lat="45.51234" lon="6.60019">
        <ele>1310.41</ele>
        <time>2016-01-19T08:30:24Z</time>
      </trkpt>
      <trkpt lat="45.51223" lon="6.60027">
        <ele>1311.38</ele>
        <time>2016-01-19T08:30:39Z</time>
      </trkpt>
      <trkpt lat="45.51211" lon="6.60033">
        <ele>1312.34</ele>
        <time>2016-01-19T08:30:52Z</time>
      </trkpt>
      <trkpt lat="45.51205" lon="6.60037">
        <ele>1312.82</ele>
        <time>2016-01-19T08:30:59Z</time>
      </trkpt>
      <trkpt lat="45.51201" lon="6.60038">
        <ele>1312.82</ele>
        <time>2016-01-19T08:31:03Z</time>
      </trkpt>
      <trkpt lat="45.51187" lon="6.60044">
        <ele>1313.78</ele>
        <time>2016-01-19T08:31:17Z</time>
      </trkpt>
      <trkpt lat="45.51179" lon="6.60053">
        <ele>1314.74</ele>
        <time>2016-01-19T08:31:28Z</time>
      </trkpt>
      <trkpt lat="45.51168" lon="6.60065">
        <ele>1316.18</ele>
        <time>2016-01-19T08:31:42Z</time>
      </trkpt>
      <trkpt lat="45.51158" lon="6.60077">
        <ele>1317.62</ele>
        <time>2016-01-19T08:31:59Z</time>
      </trkpt>
      <trkpt lat="45.51142" lon="6.60088">
        <ele>1320.03</ele>
        <time>2016-01-19T08:32:20Z</time>
      </trkpt>
      <trkpt lat="45.51129" lon="6.60093">
        <ele>1320.99</ele>
        <time>2016-01-19T08:32:35Z</time>
      </trkpt>
      <trkpt lat="45.51116" lon="6.60095">
        <ele>1322.91</ele>
        <time>2016-01-19T08:32:51Z</time>
      </trkpt>
      <trkpt lat="45.51105" lon="6.60094">
        <ele>1324.35</ele>
        <time>2016-01-19T08:33:06Z</time>
      </trkpt>
      <trkpt lat="45.51093" lon="6.60094">
        <ele>1325.8</ele>
        <time>2016-01-19T08:33:20Z</time>
      </trkpt>
      <trkpt lat="45.5108" lon="6.60092">
        <ele>1327.24</ele>
        <time>2016-01-19T08:33:35Z</time>
      </trkpt>
      <trkpt lat="45.51069" lon="6.60085">
        <ele>1328.68</ele>
        <time>2016-01-19T08:33:50Z</time>
      </trkpt>
      <trkpt lat="45.51059" lon="6.60077">
        <ele>1330.12</ele>
        <time>2016-01-19T08:34:05Z</time>
      </trkpt>
      <trkpt lat="45.51045" lon="6.60065">
        <ele>1332.52</ele>
        <time>2016-01-19T08:34:22Z</time>
      </trkpt>
      <trkpt lat="45.51033" lon="6.6006">
        <ele>1333.49</ele>
        <time>2016-01-19T08:34:35Z</time>
      </trkpt>
      <trkpt lat="45.51018" lon="6.60052">
        <ele>1335.41</ele>
        <time>2016-01-19T08:34:51Z</time>
      </trkpt>
      <trkpt lat="45.51004" lon="6.60045">
        <ele>1336.37</ele>
        <time>2016-01-19T08:35:05Z</time>
      </trkpt>
      <trkpt lat="45.50997" lon="6.60041">
        <ele>1336.85</ele>
        <time>2016-01-19T08:35:23Z</time>
      </trkpt>
      <trkpt lat="45.50989" lon="6.60033">
        <ele>1338.77</ele>
        <time>2016-01-19T08:35:38Z</time>
      </trkpt>
      <trkpt lat="45.50986" lon="6.60031">
        <ele>1339.25</ele>
        <time>2016-01-19T08:35:42Z</time>
      </trkpt>
      <trkpt lat="45.50971" lon="6.60021">
        <ele>1340.22</ele>
        <time>2016-01-19T08:35:56Z</time>
      </trkpt>
      <trkpt lat="45.5096" lon="6.60012">
        <ele>1341.66</ele>
        <time>2016-01-19T08:36:09Z</time>
      </trkpt>
      <trkpt lat="45.50952" lon="6.60003">
        <ele>1342.14</ele>
        <time>2016-01-19T08:36:19Z</time>
      </trkpt>
      <trkpt lat="45.50936" lon="6.59984">
        <ele>1343.58</ele>
        <time>2016-01-19T08:36:35Z</time>
      </trkpt>
      <trkpt lat="45.50935" lon="6.59983">
        <ele>1343.58</ele>
        <time>2016-01-19T08:36:36Z</time>
      </trkpt>
      <trkpt lat="45.50924" lon="6.59961">
        <ele>1345.02</ele>
        <time>2016-01-19T08:36:53Z</time>
      </trkpt>
      <trkpt lat="45.50914" lon="6.59939">
        <ele>1346.94</ele>
        <time>2016-01-19T08:37:11Z</time>
      </trkpt>
      <trkpt lat="45.50906" lon="6.59925">
        <ele>1349.35</ele>
        <time>2016-01-19T08:37:27Z</time>
      </trkpt>
      <trkpt lat="45.50897" lon="6.5991">
        <ele>1351.27</ele>
        <time>2016-01-19T08:37:44Z</time>
      </trkpt>
      <trkpt lat="45.50885" lon="6.59899">
        <ele>1354.15</ele>
        <time>2016-01-19T08:38:01Z</time>
      </trkpt>
      <trkpt lat="45.50884" lon="6.59899">
        <ele>1354.15</ele>
        <time>2016-01-19T08:38:02Z</time>
      </trkpt>
      <trkpt lat="45.50874" lon="6.59891">
        <ele>1356.08</ele>
        <time>2016-01-19T08:38:17Z</time>
      </trkpt>
      <trkpt lat="45.50865" lon="6.59885">
        <ele>1358.48</ele>
        <time>2016-01-19T08:38:31Z</time>
      </trkpt>
      <trkpt lat="45.50854" lon="6.59877">
        <ele>1360.88</ele>
        <time>2016-01-19T08:38:47Z</time>
      </trkpt>
      <trkpt lat="45.50845" lon="6.59874">
        <ele>1364.25</ele>
        <time>2016-01-19T08:39:02Z</time>
      </trkpt>
      <trkpt lat="45.50835" lon="6.59872">
        <ele>1366.65</ele>
        <time>2016-01-19T08:39:17Z</time>
      </trkpt>
      <trkpt lat="45.50827" lon="6.59867">
        <ele>1368.09</ele>
        <time>2016-01-19T08:39:31Z</time>
      </trkpt>
      <trkpt lat="45.50818" lon="6.59861">
        <ele>1370.98</ele>
        <time>2016-01-19T08:39:45Z</time>
      </trkpt>
      <trkpt lat="45.50811" lon="6.59856">
        <ele>1372.9</ele>
        <time>2016-01-19T08:39:59Z</time>
      </trkpt>
      <trkpt lat="45.50798" lon="6.59852">
        <ele>1376.26</ele>
        <time>2016-01-19T08:40:15Z</time>
      </trkpt>
      <trkpt lat="45.50786" lon="6.59849">
        <ele>1378.19</ele>
        <time>2016-01-19T08:40:32Z</time>
      </trkpt>
      <trkpt lat="45.50775" lon="6.59845">
        <ele>1379.63</ele>
        <time>2016-01-19T08:40:47Z</time>
      </trkpt>
      <trkpt lat="45.50764" lon="6.59839">
        <ele>1382.51</ele>
        <time>2016-01-19T08:41:01Z</time>
      </trkpt>
      <trkpt lat="45.50758" lon="6.59832">
        <ele>1385.4</ele>
        <time>2016-01-19T08:41:14Z</time>
      </trkpt>
      <trkpt lat="45.50749" lon="6.59824">
        <ele>1388.28</ele>
        <time>2016-01-19T08:41:27Z</time>
      </trkpt>
      <trkpt lat="45.5074" lon="6.59815">
        <ele>1391.65</ele>
        <time>2016-01-19T08:41:43Z</time>
      </trkpt>
      <trkpt lat="45.50733" lon="6.59809">
        <ele>1393.57</ele>
        <time>2016-01-19T08:41:57Z</time>
      </trkpt>
      <trkpt lat="45.5073" lon="6.59812">
        <ele>1395.01</ele>
        <time>2016-01-19T08:42:06Z</time>
      </trkpt>
      <trkpt lat="45.50728" lon="6.59817">
        <ele>1395.97</ele>
        <time>2016-01-19T08:42:20Z</time>
      </trkpt>
      <trkpt lat="45.50726" lon="6.59825">
        <ele>1397.89</ele>
        <time>2016-01-19T08:42:36Z</time>
      </trkpt>
      <trkpt lat="45.50723" lon="6.59837">
        <ele>1400.78</ele>
        <time>2016-01-19T08:42:50Z</time>
      </trkpt>
      <trkpt lat="45.50718" lon="6.59843">
        <ele>1403.18</ele>
        <time>2016-01-19T08:43:03Z</time>
      </trkpt>
      <trkpt lat="45.50713" lon="6.59851">
        <ele>1406.55</ele>
        <time>2016-01-19T08:43:16Z</time>
      </trkpt>
      <trkpt lat="45.50709" lon="6.59856">
        <ele>1408.95</ele>
        <time>2016-01-19T08:43:30Z</time>
      </trkpt>
      <trkpt lat="45.50709" lon="6.59863">
        <ele>1410.39</ele>
        <time>2016-01-19T08:43:43Z</time>
      </trkpt>
      <trkpt lat="45.50708" lon="6.5986">
        <ele>1411.83</ele>
        <time>2016-01-19T08:43:50Z</time>
      </trkpt>
      <trkpt lat="45.50704" lon="6.59857">
        <ele>1413.76</ele>
        <time>2016-01-19T08:44:01Z</time>
      </trkpt>
      <trkpt lat="45.50696" lon="6.59845">
        <ele>1417.12</ele>
        <time>2016-01-19T08:44:18Z</time>
      </trkpt>
      <trkpt lat="45.50694" lon="6.59844">
        <ele>1417.6</ele>
        <time>2016-01-19T08:44:28Z</time>
      </trkpt>
      <trkpt lat="45.50688" lon="6.59854">
        <ele>1419.04</ele>
        <time>2016-01-19T08:44:42Z</time>
      </trkpt>
      <trkpt lat="45.50688" lon="6.59856">
        <ele>1420.49</ele>
        <time>2016-01-19T08:44:45Z</time>
      </trkpt>
      <trkpt lat="45.50686" lon="6.59861">
        <ele>1421.93</ele>
        <time>2016-01-19T08:44:53Z</time>
      </trkpt>
      <trkpt lat="45.50683" lon="6.59856">
        <ele>1423.37</ele>
        <time>2016-01-19T08:45:04Z</time>
      </trkpt>
      <trkpt lat="45.50679" lon="6.59852">
        <ele>1424.81</ele>
        <time>2016-01-19T08:45:17Z</time>
      </trkpt>
      <trkpt lat="45.5068" lon="6.59853">
        <ele>1424.81</ele>
        <time>2016-01-19T08:45:42Z</time>
      </trkpt>
      <trkpt lat="45.50677" lon="6.59862">
        <ele>1426.73</ele>
        <time>2016-01-19T08:45:57Z</time>
      </trkpt>
      <trkpt lat="45.50676" lon="6.59861">
        <ele>1426.73</ele>
        <time>2016-01-19T08:46:21Z</time>
      </trkpt>
      <trkpt lat="45.50676" lon="6.59862">
        <ele>1426.73</ele>
        <time>2016-01-19T08:46:40Z</time>
      </trkpt>
      <trkpt lat="45.50675" lon="6.59866">
        <ele>1427.21</ele>
        <time>2016-01-19T08:46:52Z</time>
      </trkpt>
      <trkpt lat="45.50675" lon="6.59865">
        <ele>1427.21</ele>
        <time>2016-01-19T08:46:56Z</time>
      </trkpt>
      <trkpt lat="45.50672" lon="6.59862">
        <ele>1428.66</ele>
        <time>2016-01-19T08:47:11Z</time>
      </trkpt>
      <trkpt lat="45.5067" lon="6.59863">
        <ele>1429.62</ele>
        <time>2016-01-19T08:47:22Z</time>
      </trkpt>
      <trkpt lat="45.50668" lon="6.5987">
        <ele>1431.54</ele>
        <time>2016-01-19T08:47:39Z</time>
      </trkpt>
      <trkpt lat="45.50665" lon="6.59881">
        <ele>1434.91</ele>
        <time>2016-01-19T08:47:55Z</time>
      </trkpt>
      <trkpt lat="45.50663" lon="6.59885">
        <ele>1436.35</ele>
        <time>2016-01-19T08:48:08Z</time>
      </trkpt>
      <trkpt lat="45.50664" lon="6.59882">
        <ele>1436.35</ele>
        <time>2016-01-19T08:48:24Z</time>
      </trkpt>
      <trkpt lat="45.5066" lon="6.59881">
        <ele>1437.79</ele>
        <time>2016-01-19T08:48:35Z</time>
      </trkpt>
      <trkpt lat="45.50655" lon="6.59878">
        <ele>1441.15</ele>
        <time>2016-01-19T08:48:47Z</time>
      </trkpt>
      <trkpt lat="45.50648" lon="6.59875">
        <ele>1443.08</ele>
        <time>2016-01-19T08:48:59Z</time>
      </trkpt>
      <trkpt lat="45.50642" lon="6.59875">
        <ele>1446.44</ele>
        <time>2016-01-19T08:49:11Z</time>
      </trkpt>
      <trkpt lat="45.50636" lon="6.59873">
        <ele>1448.36</ele>
        <time>2016-01-19T08:49:23Z</time>
      </trkpt>
      <trkpt lat="45.5063" lon="6.59874">
        <ele>1451.25</ele>
        <time>2016-01-19T08:49:37Z</time>
      </trkpt>
      <trkpt lat="45.50622" lon="6.59875">
        <ele>1453.65</ele>
        <time>2016-01-19T08:49:50Z</time>
      </trkpt>
      <trkpt lat="45.50621" lon="6.59883">
        <ele>1453.65</ele>
        <time>2016-01-19T08:50:02Z</time>
      </trkpt>
      <trkpt lat="45.50621" lon="6.59894">
        <ele>1457.02</ele>
        <time>2016-01-19T08:50:15Z</time>
      </trkpt>
      <trkpt lat="45.5062" lon="6.5991">
        <ele>1459.9</ele>
        <time>2016-01-19T08:50:32Z</time>
      </trkpt>
      <trkpt lat="45.5062" lon="6.59928">
        <ele>1462.78</ele>
        <time>2016-01-19T08:50:51Z</time>
      </trkpt>
      <trkpt lat="45.50619" lon="6.59942">
        <ele>1466.15</ele>
        <time>2016-01-19T08:51:05Z</time>
      </trkpt>
      <trkpt lat="45.50617" lon="6.59957">
        <ele>1469.03</ele>
        <time>2016-01-19T08:51:21Z</time>
      </trkpt>
      <trkpt lat="45.50615" lon="6.59967">
        <ele>1470.95</ele>
        <time>2016-01-19T08:51:31Z</time>
      </trkpt>
      <trkpt lat="45.50611" lon="6.59981">
        <ele>1473.36</ele>
        <time>2016-01-19T08:51:48Z</time>
      </trkpt>
      <trkpt lat="45.50609" lon="6.59987">
        <ele>1475.28</ele>
        <time>2016-01-19T08:52:03Z</time>
      </trkpt>
      <trkpt lat="45.50602" lon="6.6">
        <ele>1477.68</ele>
        <time>2016-01-19T08:52:21Z</time>
      </trkpt>
      <trkpt lat="45.50594" lon="6.60015">
        <ele>1480.57</ele>
        <time>2016-01-19T08:52:38Z</time>
      </trkpt>
      <trkpt lat="45.50589" lon="6.60029">
        <ele>1483.45</ele>
        <time>2016-01-19T08:52:55Z</time>
      </trkpt>
      <trkpt lat="45.50585" lon="6.60042">
        <ele>1484.89</ele>
        <time>2016-01-19T08:53:10Z</time>
      </trkpt>
      <trkpt lat="45.50583" lon="6.60051">
        <ele>1486.82</ele>
        <time>2016-01-19T08:53:27Z</time>
      </trkpt>
      <trkpt lat="45.50585" lon="6.60054">
        <ele>1486.34</ele>
        <time>2016-01-19T08:53:44Z</time>
      </trkpt>
      <trkpt lat="45.50583" lon="6.60053">
        <ele>1487.3</ele>
        <time>2016-01-19T08:53:49Z</time>
      </trkpt>
      <trkpt lat="45.50581" lon="6.60056">
        <ele>1487.3</ele>
        <time>2016-01-19T08:54:01Z</time>
      </trkpt>
      <trkpt lat="45.50579" lon="6.60067">
        <ele>1489.22</ele>
        <time>2016-01-19T08:54:20Z</time>
      </trkpt>
      <trkpt lat="45.50577" lon="6.60087">
        <ele>1492.58</ele>
        <time>2016-01-19T08:54:39Z</time>
      </trkpt>
      <trkpt lat="45.50576" lon="6.601">
        <ele>1494.51</ele>
        <time>2016-01-19T08:54:54Z</time>
      </trkpt>
      <trkpt lat="45.50575" lon="6.60111">
        <ele>1497.87</ele>
        <time>2016-01-19T08:55:08Z</time>
      </trkpt>
      <trkpt lat="45.50577" lon="6.60125">
        <ele>1500.27</ele>
        <time>2016-01-19T08:55:23Z</time>
      </trkpt>
      <trkpt lat="45.50578" lon="6.60138">
        <ele>1503.16</ele>
        <time>2016-01-19T08:55:38Z</time>
      </trkpt>
      <trkpt lat="45.50579" lon="6.60153">
        <ele>1505.56</ele>
        <time>2016-01-19T08:55:56Z</time>
      </trkpt>
      <trkpt lat="45.50573" lon="6.60163">
        <ele>1507.97</ele>
        <time>2016-01-19T08:56:11Z</time>
      </trkpt>
      <trkpt lat="45.50572" lon="6.60178">
        <ele>1510.85</ele>
        <time>2016-01-19T08:56:27Z</time>
      </trkpt>
      <trkpt lat="45.50576" lon="6.60193">
        <ele>1513.73</ele>
        <time>2016-01-19T08:56:45Z</time>
      </trkpt>
      <trkpt lat="45.50576" lon="6.60197">
        <ele>1514.69</ele>
        <time>2016-01-19T08:57:00Z</time>
      </trkpt>
      <trkpt lat="45.50574" lon="6.60199">
        <ele>1516.14</ele>
        <time>2016-01-19T08:57:15Z</time>
      </trkpt>
      <trkpt lat="45.50572" lon="6.602">
        <ele>1516.62</ele>
        <time>2016-01-19T08:57:30Z</time>
      </trkpt>
      <trkpt lat="45.50562" lon="6.60207">
        <ele>1519.02</ele>
        <time>2016-01-19T08:57:45Z</time>
      </trkpt>
      <trkpt lat="45.5055" lon="6.60214">
        <ele>1520.94</ele>
        <time>2016-01-19T08:58:01Z</time>
      </trkpt>
      <trkpt lat="45.50549" lon="6.60224">
        <ele>1524.31</ele>
        <time>2016-01-19T08:58:14Z</time>
      </trkpt>
      <trkpt lat="45.5055" lon="6.60234">
        <ele>1527.19</ele>
        <time>2016-01-19T08:58:27Z</time>
      </trkpt>
      <trkpt lat="45.50547" lon="6.60241">
        <ele>1530.08</ele>
        <time>2016-01-19T08:58:40Z</time>
      </trkpt>
      <trkpt lat="45.50544" lon="6.60249">
        <ele>1532.48</ele>
        <time>2016-01-19T08:58:54Z</time>
      </trkpt>
      <trkpt lat="45.50538" lon="6.60251">
        <ele>1533.92</ele>
        <time>2016-01-19T08:59:02Z</time>
      </trkpt>
      <trkpt lat="45.50532" lon="6.60253">
        <ele>1535.36</ele>
        <time>2016-01-19T08:59:17Z</time>
      </trkpt>
      <trkpt lat="45.5053" lon="6.60252">
        <ele>1535.36</ele>
        <time>2016-01-19T08:59:31Z</time>
      </trkpt>
      <trkpt lat="45.50531" lon="6.60262">
        <ele>1537.77</ele>
        <time>2016-01-19T08:59:42Z</time>
      </trkpt>
      <trkpt lat="45.50534" lon="6.60267">
        <ele>1539.21</ele>
        <time>2016-01-19T08:59:53Z</time>
      </trkpt>
      <trkpt lat="45.50538" lon="6.60277">
        <ele>1541.61</ele>
        <time>2016-01-19T09:00:07Z</time>
      </trkpt>
      <trkpt lat="45.50547" lon="6.60289">
        <ele>1544.5</ele>
        <time>2016-01-19T09:00:25Z</time>
      </trkpt>
      <trkpt lat="45.50551" lon="6.60297">
        <ele>1545.94</ele>
        <time>2016-01-19T09:00:37Z</time>
      </trkpt>
      <trkpt lat="45.50551" lon="6.60307">
        <ele>1549.3</ele>
        <time>2016-01-19T09:00:50Z</time>
      </trkpt>
      <trkpt lat="45.50553" lon="6.60312">
        <ele>1551.22</ele>
        <time>2016-01-19T09:01:01Z</time>
      </trkpt>
      <trkpt lat="45.50564" lon="6.60322">
        <ele>1554.11</ele>
        <time>2016-01-19T09:01:17Z</time>
      </trkpt>
      <trkpt lat="45.50566" lon="6.60323">
        <ele>1554.59</ele>
        <time>2016-01-19T09:01:21Z</time>
      </trkpt>
      <trkpt lat="45.50575" lon="6.60327">
        <ele>1557.47</ele>
        <time>2016-01-19T09:01:36Z</time>
      </trkpt>
      <trkpt lat="45.50581" lon="6.60333">
        <ele>1560.36</ele>
        <time>2016-01-19T09:01:50Z</time>
      </trkpt>
      <trkpt lat="45.50581" lon="6.60336">
        <ele>1562.28</ele>
        <time>2016-01-19T09:01:59Z</time>
      </trkpt>
      <trkpt lat="45.50586" lon="6.60347">
        <ele>1564.2</ele>
        <time>2016-01-19T09:02:13Z</time>
      </trkpt>
      <trkpt lat="45.50593" lon="6.60354">
        <ele>1567.09</ele>
        <time>2016-01-19T09:02:27Z</time>
      </trkpt>
      <trkpt lat="45.50594" lon="6.6036">
        <ele>1569.49</ele>
        <time>2016-01-19T09:02:41Z</time>
      </trkpt>
      <trkpt lat="45.50591" lon="6.60361">
        <ele>1571.41</ele>
        <time>2016-01-19T09:02:52Z</time>
      </trkpt>
      <trkpt lat="45.50585" lon="6.60363">
        <ele>1573.82</ele>
        <time>2016-01-19T09:03:01Z</time>
      </trkpt>
      <trkpt lat="45.50575" lon="6.60371">
        <ele>1576.7</ele>
        <time>2016-01-19T09:03:15Z</time>
      </trkpt>
      <trkpt lat="45.50583" lon="6.6038">
        <ele>1579.1</ele>
        <time>2016-01-19T09:03:29Z</time>
      </trkpt>
      <trkpt lat="45.50592" lon="6.60386">
        <ele>1581.51</ele>
        <time>2016-01-19T09:03:45Z</time>
      </trkpt>
      <trkpt lat="45.506" lon="6.60396">
        <ele>1584.87</ele>
        <time>2016-01-19T09:04:01Z</time>
      </trkpt>
      <trkpt lat="45.50607" lon="6.60405">
        <ele>1587.75</ele>
        <time>2016-01-19T09:04:17Z</time>
      </trkpt>
      <trkpt lat="45.50614" lon="6.60412">
        <ele>1591.12</ele>
        <time>2016-01-19T09:04:33Z</time>
      </trkpt>
      <trkpt lat="45.50622" lon="6.60423">
        <ele>1594.48</ele>
        <time>2016-01-19T09:04:50Z</time>
      </trkpt>
      <trkpt lat="45.5063" lon="6.60432">
        <ele>1596.89</ele>
        <time>2016-01-19T09:05:07Z</time>
      </trkpt>
      <trkpt lat="45.50639" lon="6.60439">
        <ele>1600.25</ele>
        <time>2016-01-19T09:05:20Z</time>
      </trkpt>
      <trkpt lat="45.50644" lon="6.60446">
        <ele>1602.66</ele>
        <time>2016-01-19T09:05:35Z</time>
      </trkpt>
      <trkpt lat="45.50651" lon="6.60451">
        <ele>1606.02</ele>
        <time>2016-01-19T09:05:47Z</time>
      </trkpt>
      <trkpt lat="45.5065" lon="6.60452">
        <ele>1605.54</ele>
        <time>2016-01-19T09:06:02Z</time>
      </trkpt>
      <trkpt lat="45.5065" lon="6.60452">
        <ele>1606.02</ele>
        <time>2016-01-19T09:06:22Z</time>
      </trkpt>
      <trkpt lat="45.50653" lon="6.60456">
        <ele>1607.46</ele>
        <time>2016-01-19T09:06:34Z</time>
      </trkpt>
      <trkpt lat="45.50648" lon="6.60459">
        <ele>1609.38</ele>
        <time>2016-01-19T09:06:48Z</time>
      </trkpt>
      <trkpt lat="45.50642" lon="6.60459">
        <ele>1612.27</ele>
        <time>2016-01-19T09:07:02Z</time>
      </trkpt>
      <trkpt lat="45.5063" lon="6.60461">
        <ele>1615.15</ele>
        <time>2016-01-19T09:07:18Z</time>
      </trkpt>
      <trkpt lat="45.50619" lon="6.60461">
        <ele>1617.56</ele>
        <time>2016-01-19T09:07:32Z</time>
      </trkpt>
      <trkpt lat="45.50609" lon="6.60462">
        <ele>1619.96</ele>
        <time>2016-01-19T09:07:48Z</time>
      </trkpt>
      <trkpt lat="45.506" lon="6.60462">
        <ele>1621.4</ele>
        <time>2016-01-19T09:07:59Z</time>
      </trkpt>
      <trkpt lat="45.5059" lon="6.60463">
        <ele>1622.84</ele>
        <time>2016-01-19T09:08:14Z</time>
      </trkpt>
      <trkpt lat="45.50586" lon="6.60463">
        <ele>1623.32</ele>
        <time>2016-01-19T09:08:18Z</time>
      </trkpt>
      <trkpt lat="45.50572" lon="6.60464">
        <ele>1625.25</ele>
        <time>2016-01-19T09:08:35Z</time>
      </trkpt>
      <trkpt lat="45.50564" lon="6.60462">
        <ele>1626.69</ele>
        <time>2016-01-19T09:08:47Z</time>
      </trkpt>
      <trkpt lat="45.50554" lon="6.60471">
        <ele>1628.13</ele>
        <time>2016-01-19T09:09:01Z</time>
      </trkpt>
      <trkpt lat="45.50559" lon="6.60477">
        <ele>1629.57</ele>
        <time>2016-01-19T09:09:14Z</time>
      </trkpt>
      <trkpt lat="45.50569" lon="6.60484">
        <ele>1631.98</ele>
        <time>2016-01-19T09:09:30Z</time>
      </trkpt>
      <trkpt lat="45.50578" lon="6.60489">
        <ele>1633.42</ele>
        <time>2016-01-19T09:09:43Z</time>
      </trkpt>
      <trkpt lat="45.50586" lon="6.60493">
        <ele>1636.3</ele>
        <time>2016-01-19T09:09:58Z</time>
      </trkpt>
      <trkpt lat="45.50595" lon="6.60499">
        <ele>1638.22</ele>
        <time>2016-01-19T09:10:12Z</time>
      </trkpt>
      <trkpt lat="45.50605" lon="6.60507">
        <ele>1641.11</ele>
        <time>2016-01-19T09:10:27Z</time>
      </trkpt>
      <trkpt lat="45.50604" lon="6.60511">
        <ele>1642.55</ele>
        <time>2016-01-19T09:10:38Z</time>
      </trkpt>
      <trkpt lat="45.506" lon="6.60509">
        <ele>1644.95</ele>
        <time>2016-01-19T09:10:51Z</time>
      </trkpt>
      <trkpt lat="45.50593" lon="6.6051">
        <ele>1646.88</ele>
        <time>2016-01-19T09:11:05Z</time>
      </trkpt>
      <trkpt lat="45.50585" lon="6.60514">
        <ele>1648.8</ele>
        <time>2016-01-19T09:11:20Z</time>
      </trkpt>
      <trkpt lat="45.50577" lon="6.60515">
        <ele>1651.2</ele>
        <time>2016-01-19T09:11:33Z</time>
      </trkpt>
      <trkpt lat="45.5057" lon="6.60518">
        <ele>1653.12</ele>
        <time>2016-01-19T09:11:45Z</time>
      </trkpt>
      <trkpt lat="45.5056" lon="6.60519">
        <ele>1655.53</ele>
        <time>2016-01-19T09:12:02Z</time>
      </trkpt>
      <trkpt lat="45.5055" lon="6.6052">
        <ele>1658.41</ele>
        <time>2016-01-19T09:12:17Z</time>
      </trkpt>
      <trkpt lat="45.50548" lon="6.6052">
        <ele>1658.89</ele>
        <time>2016-01-19T09:12:31Z</time>
      </trkpt>
      <trkpt lat="45.50543" lon="6.60523">
        <ele>1659.37</ele>
        <time>2016-01-19T09:12:44Z</time>
      </trkpt>
      <trkpt lat="45.50541" lon="6.60526">
        <ele>1660.33</ele>
        <time>2016-01-19T09:12:58Z</time>
      </trkpt>
      <trkpt lat="45.50536" lon="6.60528">
        <ele>1661.78</ele>
        <time>2016-01-19T09:13:24Z</time>
      </trkpt>
      <trkpt lat="45.50523" lon="6.60531">
        <ele>1664.66</ele>
        <time>2016-01-19T09:13:41Z</time>
      </trkpt>
      <trkpt lat="45.5052" lon="6.60533">
        <ele>1665.62</ele>
        <time>2016-01-19T09:13:56Z</time>
      </trkpt>
      <trkpt lat="45.50523" lon="6.60535">
        <ele>1665.62</ele>
        <time>2016-01-19T09:14:19Z</time>
      </trkpt>
      <trkpt lat="45.50524" lon="6.60537">
        <ele>1665.62</ele>
        <time>2016-01-19T09:14:39Z</time>
      </trkpt>
      <trkpt lat="45.50521" lon="6.60536">
        <ele>1665.62</ele>
        <time>2016-01-19T09:14:58Z</time>
      </trkpt>
      <trkpt lat="45.50516" lon="6.60539">
        <ele>1666.58</ele>
        <time>2016-01-19T09:15:13Z</time>
      </trkpt>
      <trkpt lat="45.50515" lon="6.60542">
        <ele>1667.06</ele>
        <time>2016-01-19T09:15:16Z</time>
      </trkpt>
      <trkpt lat="45.5051" lon="6.60543">
        <ele>1668.02</ele>
        <time>2016-01-19T09:15:22Z</time>
      </trkpt>
      <trkpt lat="45.50506" lon="6.60545">
        <ele>1669.95</ele>
        <time>2016-01-19T09:15:33Z</time>
      </trkpt>
      <trkpt lat="45.50503" lon="6.60554">
        <ele>1671.39</ele>
        <time>2016-01-19T09:15:44Z</time>
      </trkpt>
      <trkpt lat="45.50506" lon="6.6056">
        <ele>1673.79</ele>
        <time>2016-01-19T09:15:57Z</time>
      </trkpt>
      <trkpt lat="45.5051" lon="6.60557">
        <ele>1677.16</ele>
        <time>2016-01-19T09:16:10Z</time>
      </trkpt>
      <trkpt lat="45.50517" lon="6.60557">
        <ele>1678.6</ele>
        <time>2016-01-19T09:16:20Z</time>
      </trkpt>
      <trkpt lat="45.50525" lon="6.60562">
        <ele>1681</ele>
        <time>2016-01-19T09:16:34Z</time>
      </trkpt>
      <trkpt lat="45.50522" lon="6.60564">
        <ele>1682.93</ele>
        <time>2016-01-19T09:16:49Z</time>
      </trkpt>
      <trkpt lat="45.50515" lon="6.60572">
        <ele>1685.33</ele>
        <time>2016-01-19T09:17:04Z</time>
      </trkpt>
      <trkpt lat="45.50513" lon="6.60578">
        <ele>1687.25</ele>
        <time>2016-01-19T09:17:17Z</time>
      </trkpt>
      <trkpt lat="45.50516" lon="6.60581">
        <ele>1688.69</ele>
        <time>2016-01-19T09:17:32Z</time>
      </trkpt>
      <trkpt lat="45.50522" lon="6.60581">
        <ele>1690.62</ele>
        <time>2016-01-19T09:17:43Z</time>
      </trkpt>
      <trkpt lat="45.50524" lon="6.60584">
        <ele>1692.06</ele>
        <time>2016-01-19T09:17:58Z</time>
      </trkpt>
      <trkpt lat="45.50528" lon="6.60587">
        <ele>1693.02</ele>
        <time>2016-01-19T09:18:09Z</time>
      </trkpt>
      <trkpt lat="45.50535" lon="6.60588">
        <ele>1694.46</ele>
        <time>2016-01-19T09:18:21Z</time>
      </trkpt>
      <trkpt lat="45.50543" lon="6.60595">
        <ele>1697.34</ele>
        <time>2016-01-19T09:18:33Z</time>
      </trkpt>
      <trkpt lat="45.50549" lon="6.60601">
        <ele>1700.23</ele>
        <time>2016-01-19T09:18:47Z</time>
      </trkpt>
      <trkpt lat="45.50556" lon="6.60608">
        <ele>1702.63</ele>
        <time>2016-01-19T09:19:02Z</time>
      </trkpt>
      <trkpt lat="45.50566" lon="6.60613">
        <ele>1705.52</ele>
        <time>2016-01-19T09:19:18Z</time>
      </trkpt>
      <trkpt lat="45.50575" lon="6.60615">
        <ele>1707.92</ele>
        <time>2016-01-19T09:19:33Z</time>
      </trkpt>
      <trkpt lat="45.50583" lon="6.6062">
        <ele>1711.28</ele>
        <time>2016-01-19T09:19:49Z</time>
      </trkpt>
      <trkpt lat="45.50588" lon="6.60624">
        <ele>1712.25</ele>
        <time>2016-01-19T09:20:00Z</time>
      </trkpt>
      <trkpt lat="45.50598" lon="6.60626">
        <ele>1714.17</ele>
        <time>2016-01-19T09:20:13Z</time>
      </trkpt>
      <trkpt lat="45.50601" lon="6.60631">
        <ele>1716.57</ele>
        <time>2016-01-19T09:20:26Z</time>
      </trkpt>
      <trkpt lat="45.50594" lon="6.60636">
        <ele>1718.49</ele>
        <time>2016-01-19T09:20:40Z</time>
      </trkpt>
      <trkpt lat="45.50587" lon="6.60642">
        <ele>1720.42</ele>
        <time>2016-01-19T09:20:51Z</time>
      </trkpt>
      <trkpt lat="45.50577" lon="6.60653">
        <ele>1722.34</ele>
        <time>2016-01-19T09:21:07Z</time>
      </trkpt>
      <trkpt lat="45.50568" lon="6.60666">
        <ele>1724.74</ele>
        <time>2016-01-19T09:21:25Z</time>
      </trkpt>
      <trkpt lat="45.50561" lon="6.60677">
        <ele>1727.63</ele>
        <time>2016-01-19T09:21:40Z</time>
      </trkpt>
      <trkpt lat="45.50552" lon="6.60686">
        <ele>1729.55</ele>
        <time>2016-01-19T09:21:56Z</time>
      </trkpt>
      <trkpt lat="45.50544" lon="6.60696">
        <ele>1732.43</ele>
        <time>2016-01-19T09:22:12Z</time>
      </trkpt>
      <trkpt lat="45.50534" lon="6.60706">
        <ele>1735.32</ele>
        <time>2016-01-19T09:22:29Z</time>
      </trkpt>
      <trkpt lat="45.50525" lon="6.60711">
        <ele>1737.72</ele>
        <time>2016-01-19T09:22:46Z</time>
      </trkpt>
      <trkpt lat="45.50517" lon="6.60713">
        <ele>1740.12</ele>
        <time>2016-01-19T09:23:01Z</time>
      </trkpt>
      <trkpt lat="45.50508" lon="6.60722">
        <ele>1743.01</ele>
        <time>2016-01-19T09:23:17Z</time>
      </trkpt>
      <trkpt lat="45.50504" lon="6.60728">
        <ele>1745.89</ele>
        <time>2016-01-19T09:23:30Z</time>
      </trkpt>
      <trkpt lat="45.50498" lon="6.60737">
        <ele>1748.29</ele>
        <time>2016-01-19T09:23:45Z</time>
      </trkpt>
      <trkpt lat="45.50496" lon="6.60743">
        <ele>1750.7</ele>
        <time>2016-01-19T09:23:58Z</time>
      </trkpt>
      <trkpt lat="45.50492" lon="6.60749">
        <ele>1752.62</ele>
        <time>2016-01-19T09:24:10Z</time>
      </trkpt>
      <trkpt lat="45.50488" lon="6.6076">
        <ele>1755.99</ele>
        <time>2016-01-19T09:24:26Z</time>
      </trkpt>
      <trkpt lat="45.50484" lon="6.60768">
        <ele>1757.91</ele>
        <time>2016-01-19T09:24:38Z</time>
      </trkpt>
      <trkpt lat="45.50478" lon="6.60777">
        <ele>1760.79</ele>
        <time>2016-01-19T09:24:52Z</time>
      </trkpt>
      <trkpt lat="45.50472" lon="6.60783">
        <ele>1762.71</ele>
        <time>2016-01-19T09:25:06Z</time>
      </trkpt>
      <trkpt lat="45.50464" lon="6.6079">
        <ele>1765.12</ele>
        <time>2016-01-19T09:25:21Z</time>
      </trkpt>
      <trkpt lat="45.50456" lon="6.60799">
        <ele>1768</ele>
        <time>2016-01-19T09:25:38Z</time>
      </trkpt>
      <trkpt lat="45.50447" lon="6.60802">
        <ele>1770.41</ele>
        <time>2016-01-19T09:25:54Z</time>
      </trkpt>
      <trkpt lat="45.50438" lon="6.60806">
        <ele>1772.33</ele>
        <time>2016-01-19T09:26:08Z</time>
      </trkpt>
      <trkpt lat="45.50438" lon="6.60806">
        <ele>1772.33</ele>
        <time>2016-01-19T09:26:25Z</time>
      </trkpt>
      <trkpt lat="45.50438" lon="6.60807">
        <ele>1772.33</ele>
        <time>2016-01-19T09:26:47Z</time>
      </trkpt>
      <trkpt lat="45.50427" lon="6.60811">
        <ele>1774.73</ele>
        <time>2016-01-19T09:27:03Z</time>
      </trkpt>
      <trkpt lat="45.50417" lon="6.60819">
        <ele>1777.61</ele>
        <time>2016-01-19T09:27:20Z</time>
      </trkpt>
      <trkpt lat="45.50416" lon="6.60818">
        <ele>1778.1</ele>
        <time>2016-01-19T09:27:37Z</time>
      </trkpt>
      <trkpt lat="45.50414" lon="6.60819">
        <ele>1778.1</ele>
        <time>2016-01-19T09:27:54Z</time>
      </trkpt>
      <trkpt lat="45.50416" lon="6.60822">
        <ele>1778.1</ele>
        <time>2016-01-19T09:28:18Z</time>
      </trkpt>
      <trkpt lat="45.50409" lon="6.60829">
        <ele>1779.54</ele>
        <time>2016-01-19T09:28:31Z</time>
      </trkpt>
      <trkpt lat="45.50407" lon="6.60827">
        <ele>1779.54</ele>
        <time>2016-01-19T09:28:50Z</time>
      </trkpt>
      <trkpt lat="45.50399" lon="6.60836">
        <ele>1782.42</ele>
        <time>2016-01-19T09:29:06Z</time>
      </trkpt>
      <trkpt lat="45.50394" lon="6.60843">
        <ele>1783.86</ele>
        <time>2016-01-19T09:29:20Z</time>
      </trkpt>
      <trkpt lat="45.50387" lon="6.60852">
        <ele>1787.71</ele>
        <time>2016-01-19T09:29:35Z</time>
      </trkpt>
      <trkpt lat="45.5038" lon="6.6086">
        <ele>1789.63</ele>
        <time>2016-01-19T09:29:51Z</time>
      </trkpt>
      <trkpt lat="45.50375" lon="6.60864">
        <ele>1792.03</ele>
        <time>2016-01-19T09:30:05Z</time>
      </trkpt>
      <trkpt lat="45.50372" lon="6.60867">
        <ele>1792.52</ele>
        <time>2016-01-19T09:30:14Z</time>
      </trkpt>
      <trkpt lat="45.50379" lon="6.60878">
        <ele>1794.44</ele>
        <time>2016-01-19T09:30:30Z</time>
      </trkpt>
      <trkpt lat="45.5038" lon="6.60884">
        <ele>1796.84</ele>
        <time>2016-01-19T09:30:44Z</time>
      </trkpt>
      <trkpt lat="45.50375" lon="6.60891">
        <ele>1799.24</ele>
        <time>2016-01-19T09:30:58Z</time>
      </trkpt>
      <trkpt lat="45.5037" lon="6.60888">
        <ele>1801.17</ele>
        <time>2016-01-19T09:31:12Z</time>
      </trkpt>
      <trkpt lat="45.50361" lon="6.60888">
        <ele>1804.05</ele>
        <time>2016-01-19T09:31:28Z</time>
      </trkpt>
      <trkpt lat="45.50354" lon="6.6089">
        <ele>1806.94</ele>
        <time>2016-01-19T09:31:42Z</time>
      </trkpt>
      <trkpt lat="45.50346" lon="6.60889">
        <ele>1809.82</ele>
        <time>2016-01-19T09:31:57Z</time>
      </trkpt>
      <trkpt lat="45.50336" lon="6.60893">
        <ele>1812.7</ele>
        <time>2016-01-19T09:32:09Z</time>
      </trkpt>
      <trkpt lat="45.50328" lon="6.60898">
        <ele>1814.63</ele>
        <time>2016-01-19T09:32:25Z</time>
      </trkpt>
      <trkpt lat="45.50323" lon="6.60903">
        <ele>1817.03</ele>
        <time>2016-01-19T09:32:41Z</time>
      </trkpt>
      <trkpt lat="45.50318" lon="6.60907">
        <ele>1819.43</ele>
        <time>2016-01-19T09:32:53Z</time>
      </trkpt>
      <trkpt lat="45.50312" lon="6.60909">
        <ele>1821.35</ele>
        <time>2016-01-19T09:33:06Z</time>
      </trkpt>
      <trkpt lat="45.50309" lon="6.60913">
        <ele>1823.28</ele>
        <time>2016-01-19T09:33:20Z</time>
      </trkpt>
      <trkpt lat="45.50306" lon="6.60915">
        <ele>1825.68</ele>
        <time>2016-01-19T09:33:32Z</time>
      </trkpt>
      <trkpt lat="45.503" lon="6.60921">
        <ele>1827.6</ele>
        <time>2016-01-19T09:33:45Z</time>
      </trkpt>
      <trkpt lat="45.50292" lon="6.60932">
        <ele>1830.97</ele>
        <time>2016-01-19T09:34:02Z</time>
      </trkpt>
      <trkpt lat="45.50285" lon="6.60941">
        <ele>1833.85</ele>
        <time>2016-01-19T09:34:19Z</time>
      </trkpt>
      <trkpt lat="45.50275" lon="6.60944">
        <ele>1836.26</ele>
        <time>2016-01-19T09:34:35Z</time>
      </trkpt>
      <trkpt lat="45.50267" lon="6.60942">
        <ele>1837.22</ele>
        <time>2016-01-19T09:34:48Z</time>
      </trkpt>
      <trkpt lat="45.5026" lon="6.6094">
        <ele>1839.14</ele>
        <time>2016-01-19T09:35:03Z</time>
      </trkpt>
      <trkpt lat="45.50253" lon="6.60938">
        <ele>1842.5</ele>
        <time>2016-01-19T09:35:17Z</time>
      </trkpt>
      <trkpt lat="45.50242" lon="6.60942">
        <ele>1844.91</ele>
        <time>2016-01-19T09:35:28Z</time>
      </trkpt>
      <trkpt lat="45.50233" lon="6.60964">
        <ele>1847.31</ele>
        <time>2016-01-19T09:35:43Z</time>
      </trkpt>
      <trkpt lat="45.50235" lon="6.60968">
        <ele>1847.31</ele>
        <time>2016-01-19T09:35:47Z</time>
      </trkpt>
      <trkpt lat="45.50243" lon="6.60979">
        <ele>1849.71</ele>
        <time>2016-01-19T09:36:02Z</time>
      </trkpt>
      <trkpt lat="45.50247" lon="6.60989">
        <ele>1852.12</ele>
        <time>2016-01-19T09:36:15Z</time>
      </trkpt>
      <trkpt lat="45.50252" lon="6.61003">
        <ele>1854.04</ele>
        <time>2016-01-19T09:36:32Z</time>
      </trkpt>
      <trkpt lat="45.5026" lon="6.61007">
        <ele>1855.96</ele>
        <time>2016-01-19T09:36:47Z</time>
      </trkpt>
      <trkpt lat="45.50263" lon="6.61009">
        <ele>1857.4</ele>
        <time>2016-01-19T09:36:58Z</time>
      </trkpt>
      <trkpt lat="45.50263" lon="6.61011">
        <ele>1857.4</ele>
        <time>2016-01-19T09:36:59Z</time>
      </trkpt>
      <trkpt lat="45.50259" lon="6.61029">
        <ele>1858.37</ele>
        <time>2016-01-19T09:37:15Z</time>
      </trkpt>
      <trkpt lat="45.50257" lon="6.61047">
        <ele>1858.85</ele>
        <time>2016-01-19T09:37:31Z</time>
      </trkpt>
      <trkpt lat="45.50253" lon="6.61067">
        <ele>1860.77</ele>
        <time>2016-01-19T09:37:49Z</time>
      </trkpt>
      <trkpt lat="45.5025" lon="6.61086">
        <ele>1862.21</ele>
        <time>2016-01-19T09:38:07Z</time>
      </trkpt>
      <trkpt lat="45.50249" lon="6.61099">
        <ele>1863.65</ele>
        <time>2016-01-19T09:38:20Z</time>
      </trkpt>
      <trkpt lat="45.50248" lon="6.61113">
        <ele>1866.06</ele>
        <time>2016-01-19T09:38:35Z</time>
      </trkpt>
      <trkpt lat="45.50244" lon="6.61127">
        <ele>1868.46</ele>
        <time>2016-01-19T09:38:52Z</time>
      </trkpt>
      <trkpt lat="45.5024" lon="6.61125">
        <ele>1869.42</ele>
        <time>2016-01-19T09:39:04Z</time>
      </trkpt>
      <trkpt lat="45.50235" lon="6.61132">
        <ele>1871.82</ele>
        <time>2016-01-19T09:39:19Z</time>
      </trkpt>
      <trkpt lat="45.50231" lon="6.61153">
        <ele>1874.71</ele>
        <time>2016-01-19T09:39:40Z</time>
      </trkpt>
      <trkpt lat="45.50239" lon="6.61166">
        <ele>1877.59</ele>
        <time>2016-01-19T09:39:57Z</time>
      </trkpt>
      <trkpt lat="45.50242" lon="6.61177">
        <ele>1879.51</ele>
        <time>2016-01-19T09:40:14Z</time>
      </trkpt>
      <trkpt lat="45.50234" lon="6.61177">
        <ele>1881.44</ele>
        <time>2016-01-19T09:40:29Z</time>
      </trkpt>
      <trkpt lat="45.50223" lon="6.61171">
        <ele>1883.84</ele>
        <time>2016-01-19T09:40:45Z</time>
      </trkpt>
      <trkpt lat="45.50208" lon="6.61166">
        <ele>1886.72</ele>
        <time>2016-01-19T09:41:08Z</time>
      </trkpt>
      <trkpt lat="45.50206" lon="6.61178">
        <ele>1888.65</ele>
        <time>2016-01-19T09:41:22Z</time>
      </trkpt>
      <trkpt lat="45.50205" lon="6.61195">
        <ele>1891.05</ele>
        <time>2016-01-19T09:41:39Z</time>
      </trkpt>
      <trkpt lat="45.50208" lon="6.61212">
        <ele>1893.45</ele>
        <time>2016-01-19T09:41:56Z</time>
      </trkpt>
      <trkpt lat="45.50204" lon="6.61221">
        <ele>1895.38</ele>
        <time>2016-01-19T09:42:10Z</time>
      </trkpt>
      <trkpt lat="45.50201" lon="6.61223">
        <ele>1896.34</ele>
        <time>2016-01-19T09:42:27Z</time>
      </trkpt>
      <trkpt lat="45.50201" lon="6.61224">
        <ele>1896.34</ele>
        <time>2016-01-19T09:42:46Z</time>
      </trkpt>
      <trkpt lat="45.50201" lon="6.61221">
        <ele>1896.34</ele>
        <time>2016-01-19T09:43:00Z</time>
      </trkpt>
      <trkpt lat="45.50194" lon="6.61221">
        <ele>1897.78</ele>
        <time>2016-01-19T09:43:15Z</time>
      </trkpt>
      <trkpt lat="45.50182" lon="6.61221">
        <ele>1900.18</ele>
        <time>2016-01-19T09:43:33Z</time>
      </trkpt>
      <trkpt lat="45.50169" lon="6.61218">
        <ele>1902.11</ele>
        <time>2016-01-19T09:43:51Z</time>
      </trkpt>
      <trkpt lat="45.50158" lon="6.61215">
        <ele>1905.47</ele>
        <time>2016-01-19T09:44:07Z</time>
      </trkpt>
      <trkpt lat="45.50142" lon="6.61215">
        <ele>1908.35</ele>
        <time>2016-01-19T09:44:26Z</time>
      </trkpt>
      <trkpt lat="45.50134" lon="6.61222">
        <ele>1910.28</ele>
        <time>2016-01-19T09:44:41Z</time>
      </trkpt>
      <trkpt lat="45.50117" lon="6.61223">
        <ele>1911.72</ele>
        <time>2016-01-19T09:45:01Z</time>
      </trkpt>
      <trkpt lat="45.50116" lon="6.61224">
        <ele>1912.68</ele>
        <time>2016-01-19T09:45:10Z</time>
      </trkpt>
      <trkpt lat="45.50123" lon="6.61233">
        <ele>1914.12</ele>
        <time>2016-01-19T09:45:23Z</time>
      </trkpt>
      <trkpt lat="45.50123" lon="6.61235">
        <ele>1914.6</ele>
        <time>2016-01-19T09:45:25Z</time>
      </trkpt>
      <trkpt lat="45.50125" lon="6.6124">
        <ele>1915.08</ele>
        <time>2016-01-19T09:45:30Z</time>
      </trkpt>
      <trkpt lat="45.50128" lon="6.61255">
        <ele>1917.97</ele>
        <time>2016-01-19T09:45:46Z</time>
      </trkpt>
      <trkpt lat="45.50131" lon="6.61267">
        <ele>1919.41</ele>
        <time>2016-01-19T09:45:58Z</time>
      </trkpt>
      <trkpt lat="45.50135" lon="6.61286">
        <ele>1921.81</ele>
        <time>2016-01-19T09:46:16Z</time>
      </trkpt>
      <trkpt lat="45.50138" lon="6.61305">
        <ele>1925.18</ele>
        <time>2016-01-19T09:46:32Z</time>
      </trkpt>
      <trkpt lat="45.50137" lon="6.6132">
        <ele>1927.1</ele>
        <time>2016-01-19T09:46:46Z</time>
      </trkpt>
      <trkpt lat="45.50134" lon="6.61331">
        <ele>1928.54</ele>
        <time>2016-01-19T09:46:57Z</time>
      </trkpt>
      <trkpt lat="45.50125" lon="6.61341">
        <ele>1929.98</ele>
        <time>2016-01-19T09:47:12Z</time>
      </trkpt>
      <trkpt lat="45.50114" lon="6.61334">
        <ele>1932.87</ele>
        <time>2016-01-19T09:47:30Z</time>
      </trkpt>
      <trkpt lat="45.501" lon="6.61335">
        <ele>1935.27</ele>
        <time>2016-01-19T09:47:49Z</time>
      </trkpt>
      <trkpt lat="45.50089" lon="6.61344">
        <ele>1938.16</ele>
        <time>2016-01-19T09:48:06Z</time>
      </trkpt>
      <trkpt lat="45.50088" lon="6.61345">
        <ele>1938.16</ele>
        <time>2016-01-19T09:48:07Z</time>
      </trkpt>
      <trkpt lat="45.50076" lon="6.61347">
        <ele>1941.04</ele>
        <time>2016-01-19T09:48:25Z</time>
      </trkpt>
      <trkpt lat="45.50066" lon="6.61351">
        <ele>1944.4</ele>
        <time>2016-01-19T09:48:41Z</time>
      </trkpt>
      <trkpt lat="45.50067" lon="6.61371">
        <ele>1945.85</ele>
        <time>2016-01-19T09:48:58Z</time>
      </trkpt>
      <trkpt lat="45.50068" lon="6.61393">
        <ele>1948.25</ele>
        <time>2016-01-19T09:49:17Z</time>
      </trkpt>
      <trkpt lat="45.50067" lon="6.61408">
        <ele>1950.65</ele>
        <time>2016-01-19T09:49:31Z</time>
      </trkpt>
      <trkpt lat="45.50064" lon="6.61408">
        <ele>1951.61</ele>
        <time>2016-01-19T09:49:35Z</time>
      </trkpt>
      <trkpt lat="45.50049" lon="6.61405">
        <ele>1954.02</ele>
        <time>2016-01-19T09:49:56Z</time>
      </trkpt>
      <trkpt lat="45.50044" lon="6.61406">
        <ele>1954.98</ele>
        <time>2016-01-19T09:50:02Z</time>
      </trkpt>
      <trkpt lat="45.5003" lon="6.61413">
        <ele>1956.9</ele>
        <time>2016-01-19T09:50:20Z</time>
      </trkpt>
      <trkpt lat="45.50027" lon="6.61426">
        <ele>1959.78</ele>
        <time>2016-01-19T09:50:37Z</time>
      </trkpt>
      <trkpt lat="45.50031" lon="6.6144">
        <ele>1961.71</ele>
        <time>2016-01-19T09:50:50Z</time>
      </trkpt>
      <trkpt lat="45.50035" lon="6.61454">
        <ele>1963.63</ele>
        <time>2016-01-19T09:51:04Z</time>
      </trkpt>
      <trkpt lat="45.5004" lon="6.61474">
        <ele>1966.03</ele>
        <time>2016-01-19T09:51:21Z</time>
      </trkpt>
      <trkpt lat="45.5004" lon="6.61488">
        <ele>1968.92</ele>
        <time>2016-01-19T09:51:40Z</time>
      </trkpt>
      <trkpt lat="45.5003" lon="6.61482">
        <ele>1970.36</ele>
        <time>2016-01-19T09:51:56Z</time>
      </trkpt>
      <trkpt lat="45.50026" lon="6.6148">
        <ele>1971.32</ele>
        <time>2016-01-19T09:52:01Z</time>
      </trkpt>
      <trkpt lat="45.50014" lon="6.61472">
        <ele>1973.72</ele>
        <time>2016-01-19T09:52:18Z</time>
      </trkpt>
      <trkpt lat="45.50003" lon="6.61468">
        <ele>1977.09</ele>
        <time>2016-01-19T09:52:32Z</time>
      </trkpt>
      <trkpt lat="45.49997" lon="6.61467">
        <ele>1979.49</ele>
        <time>2016-01-19T09:52:47Z</time>
      </trkpt>
      <trkpt lat="45.49998" lon="6.6148">
        <ele>1980.93</ele>
        <time>2016-01-19T09:53:00Z</time>
      </trkpt>
      <trkpt lat="45.50002" lon="6.615">
        <ele>1984.3</ele>
        <time>2016-01-19T09:53:19Z</time>
      </trkpt>
      <trkpt lat="45.50003" lon="6.61513">
        <ele>1987.18</ele>
        <time>2016-01-19T09:53:32Z</time>
      </trkpt>
      <trkpt lat="45.50003" lon="6.61523">
        <ele>1988.14</ele>
        <time>2016-01-19T09:53:46Z</time>
      </trkpt>
      <trkpt lat="45.50002" lon="6.61524">
        <ele>1988.14</ele>
        <time>2016-01-19T09:54:02Z</time>
      </trkpt>
      <trkpt lat="45.50004" lon="6.61524">
        <ele>1988.14</ele>
        <time>2016-01-19T09:54:32Z</time>
      </trkpt>
      <trkpt lat="45.50003" lon="6.61523">
        <ele>1988.14</ele>
        <time>2016-01-19T09:54:56Z</time>
      </trkpt>
      <trkpt lat="45.50002" lon="6.61525">
        <ele>1988.14</ele>
        <time>2016-01-19T09:55:14Z</time>
      </trkpt>
      <trkpt lat="45.50003" lon="6.61523">
        <ele>1987.66</ele>
        <time>2016-01-19T09:55:34Z</time>
      </trkpt>
      <trkpt lat="45.50004" lon="6.61525">
        <ele>1987.66</ele>
        <time>2016-01-19T09:55:53Z</time>
      </trkpt>
      <trkpt lat="45.50003" lon="6.61523">
        <ele>1987.66</ele>
        <time>2016-01-19T09:56:13Z</time>
      </trkpt>
      <trkpt lat="45.50003" lon="6.61524">
        <ele>1987.66</ele>
        <time>2016-01-19T09:56:32Z</time>
      </trkpt>
      <trkpt lat="45.50003" lon="6.61525">
        <ele>1987.66</ele>
        <time>2016-01-19T09:56:44Z</time>
      </trkpt>
      <trkpt lat="45.50003" lon="6.61525">
        <ele>1987.66</ele>
        <time>2016-01-19T09:57:08Z</time>
      </trkpt>
      <trkpt lat="45.50003" lon="6.61526">
        <ele>1987.18</ele>
        <time>2016-01-19T09:57:31Z</time>
      </trkpt>
      <trkpt lat="45.50004" lon="6.61525">
        <ele>1987.18</ele>
        <time>2016-01-19T09:57:56Z</time>
      </trkpt>
      <trkpt lat="45.50004" lon="6.61525">
        <ele>1987.18</ele>
        <time>2016-01-19T09:58:10Z</time>
      </trkpt>
      <trkpt lat="45.50005" lon="6.61524">
        <ele>1987.18</ele>
        <time>2016-01-19T09:58:23Z</time>
      </trkpt>
      <trkpt lat="45.50005" lon="6.61524">
        <ele>1987.18</ele>
        <time>2016-01-19T09:58:43Z</time>
      </trkpt>
      <trkpt lat="45.50004" lon="6.61525">
        <ele>1987.18</ele>
        <time>2016-01-19T09:59:03Z</time>
      </trkpt>
      <trkpt lat="45.50003" lon="6.61525">
        <ele>1987.18</ele>
        <time>2016-01-19T09:59:25Z</time>
      </trkpt>
      <trkpt lat="45.50002" lon="6.61533">
        <ele>1987.18</ele>
        <time>2016-01-19T09:59:37Z</time>
      </trkpt>
      <trkpt lat="45.50002" lon="6.61535">
        <ele>1987.18</ele>
        <time>2016-01-19T09:59:39Z</time>
      </trkpt>
      <trkpt lat="45.49998" lon="6.61542">
        <ele>1987.66</ele>
        <time>2016-01-19T09:59:50Z</time>
      </trkpt>
      <trkpt lat="45.49998" lon="6.61541">
        <ele>1987.66</ele>
        <time>2016-01-19T10:00:08Z</time>
      </trkpt>
      <trkpt lat="45.49999" lon="6.61544">
        <ele>1987.66</ele>
        <time>2016-01-19T10:00:34Z</time>
      </trkpt>
      <trkpt lat="45.49999" lon="6.61544">
        <ele>1987.66</ele>
        <time>2016-01-19T10:01:06Z</time>
      </trkpt>
      <trkpt lat="45.49998" lon="6.61543">
        <ele>1987.66</ele>
        <time>2016-01-19T10:01:28Z</time>
      </trkpt>
      <trkpt lat="45.49999" lon="6.61543">
        <ele>1987.66</ele>
        <time>2016-01-19T10:01:47Z</time>
      </trkpt>
      <trkpt lat="45.49999" lon="6.61537">
        <ele>1987.66</ele>
        <time>2016-01-19T10:02:10Z</time>
      </trkpt>
      <trkpt lat="45.49999" lon="6.61538">
        <ele>1987.66</ele>
        <time>2016-01-19T10:02:26Z</time>
      </trkpt>
      <trkpt lat="45.49999" lon="6.61537">
        <ele>1987.66</ele>
        <time>2016-01-19T10:02:59Z</time>
      </trkpt>
      <trkpt lat="45.49998" lon="6.61537">
        <ele>1987.66</ele>
        <time>2016-01-19T10:03:26Z</time>
      </trkpt>
      <trkpt lat="45.49999" lon="6.61539">
        <ele>1988.14</ele>
        <time>2016-01-19T10:03:54Z</time>
      </trkpt>
      <trkpt lat="45.49999" lon="6.61539">
        <ele>1988.14</ele>
        <time>2016-01-19T10:04:09Z</time>
      </trkpt>
      <trkpt lat="45.49999" lon="6.61541">
        <ele>1988.14</ele>
        <time>2016-01-19T10:04:30Z</time>
      </trkpt>
      <trkpt lat="45.49998" lon="6.6154">
        <ele>1988.14</ele>
        <time>2016-01-19T10:04:51Z</time>
      </trkpt>
      <trkpt lat="45.49998" lon="6.61541">
        <ele>1988.14</ele>
        <time>2016-01-19T10:05:18Z</time>
      </trkpt>
      <trkpt lat="45.49998" lon="6.61542">
        <ele>1988.14</ele>
        <time>2016-01-19T10:05:35Z</time>
      </trkpt>
      <trkpt lat="45.49998" lon="6.61542">
        <ele>1988.14</ele>
        <time>2016-01-19T10:05:49Z</time>
      </trkpt>
      <trkpt lat="45.49998" lon="6.61541">
        <ele>1988.14</ele>
        <time>2016-01-19T10:06:06Z</time>
      </trkpt>
      <trkpt lat="45.49997" lon="6.61541">
        <ele>1988.14</ele>
        <time>2016-01-19T10:06:22Z</time>
      </trkpt>
      <trkpt lat="45.49997" lon="6.61541">
        <ele>1988.14</ele>
        <time>2016-01-19T10:06:47Z</time>
      </trkpt>
      <trkpt lat="45.49998" lon="6.61541">
        <ele>1988.14</ele>
        <time>2016-01-19T10:07:01Z</time>
      </trkpt>
      <trkpt lat="45.49997" lon="6.6154">
        <ele>1988.14</ele>
        <time>2016-01-19T10:07:24Z</time>
      </trkpt>
      <trkpt lat="45.49998" lon="6.6154">
        <ele>1988.14</ele>
        <time>2016-01-19T10:07:56Z</time>
      </trkpt>
      <trkpt lat="45.49999" lon="6.6154">
        <ele>1988.14</ele>
        <time>2016-01-19T10:08:18Z</time>
      </trkpt>
      <trkpt lat="45.49998" lon="6.6154">
        <ele>1988.14</ele>
        <time>2016-01-19T10:08:40Z</time>
      </trkpt>
      <trkpt lat="45.49997" lon="6.6154">
        <ele>1988.14</ele>
        <time>2016-01-19T10:09:09Z</time>
      </trkpt>
      <trkpt lat="45.49997" lon="6.6154">
        <ele>1987.66</ele>
        <time>2016-01-19T10:09:47Z</time>
      </trkpt>
      <trkpt lat="45.49997" lon="6.61541">
        <ele>1987.66</ele>
        <time>2016-01-19T10:10:06Z</time>
      </trkpt>
      <trkpt lat="45.49998" lon="6.61542">
        <ele>1987.66</ele>
        <time>2016-01-19T10:10:22Z</time>
      </trkpt>
      <trkpt lat="45.49999" lon="6.61543">
        <ele>1987.66</ele>
        <time>2016-01-19T10:10:35Z</time>
      </trkpt>
      <trkpt lat="45.5001" lon="6.61558">
        <ele>1987.66</ele>
        <time>2016-01-19T10:10:53Z</time>
      </trkpt>
      <trkpt lat="45.50013" lon="6.61569">
        <ele>1989.1</ele>
        <time>2016-01-19T10:11:02Z</time>
      </trkpt>
      <trkpt lat="45.5001" lon="6.61585">
        <ele>1990.07</ele>
        <time>2016-01-19T10:11:17Z</time>
      </trkpt>
      <trkpt lat="45.49999" lon="6.61586">
        <ele>1992.47</ele>
        <time>2016-01-19T10:11:34Z</time>
      </trkpt>
      <trkpt lat="45.49994" lon="6.61586">
        <ele>1993.43</ele>
        <time>2016-01-19T10:11:40Z</time>
      </trkpt>
      <trkpt lat="45.4998" lon="6.61598">
        <ele>1995.83</ele>
        <time>2016-01-19T10:12:00Z</time>
      </trkpt>
      <trkpt lat="45.49976" lon="6.61606">
        <ele>1998.24</ele>
        <time>2016-01-19T10:12:13Z</time>
      </trkpt>
      <trkpt lat="45.49983" lon="6.61619">
        <ele>2001.12</ele>
        <time>2016-01-19T10:12:28Z</time>
      </trkpt>
      <trkpt lat="45.49988" lon="6.61629">
        <ele>2003.04</ele>
        <time>2016-01-19T10:12:42Z</time>
      </trkpt>
      <trkpt lat="45.49984" lon="6.61637">
        <ele>2004.97</ele>
        <time>2016-01-19T10:12:57Z</time>
      </trkpt>
      <trkpt lat="45.49972" lon="6.61634">
        <ele>2007.37</ele>
        <time>2016-01-19T10:13:13Z</time>
      </trkpt>
      <trkpt lat="45.49961" lon="6.61635">
        <ele>2009.77</ele>
        <time>2016-01-19T10:13:28Z</time>
      </trkpt>
      <trkpt lat="45.49947" lon="6.61636">
        <ele>2012.18</ele>
        <time>2016-01-19T10:13:46Z</time>
      </trkpt>
      <trkpt lat="45.4994" lon="6.61639">
        <ele>2015.06</ele>
        <time>2016-01-19T10:14:00Z</time>
      </trkpt>
      <trkpt lat="45.4994" lon="6.61643">
        <ele>2015.06</ele>
        <time>2016-01-19T10:14:03Z</time>
      </trkpt>
      <trkpt lat="45.4995" lon="6.61649">
        <ele>2016.98</ele>
        <time>2016-01-19T10:14:18Z</time>
      </trkpt>
      <trkpt lat="45.4996" lon="6.61656">
        <ele>2017.94</ele>
        <time>2016-01-19T10:14:30Z</time>
      </trkpt>
      <trkpt lat="45.4997" lon="6.61666">
        <ele>2019.39</ele>
        <time>2016-01-19T10:14:45Z</time>
      </trkpt>
      <trkpt lat="45.49979" lon="6.6168">
        <ele>2022.27</ele>
        <time>2016-01-19T10:15:01Z</time>
      </trkpt>
      <trkpt lat="45.49987" lon="6.61689">
        <ele>2025.15</ele>
        <time>2016-01-19T10:15:16Z</time>
      </trkpt>
      <trkpt lat="45.49995" lon="6.61702">
        <ele>2026.6</ele>
        <time>2016-01-19T10:15:33Z</time>
      </trkpt>
      <trkpt lat="45.49997" lon="6.61704">
        <ele>2026.6</ele>
        <time>2016-01-19T10:15:51Z</time>
      </trkpt>
      <trkpt lat="45.5" lon="6.61714">
        <ele>2027.56</ele>
        <time>2016-01-19T10:16:14Z</time>
      </trkpt>
      <trkpt lat="45.5001" lon="6.61726">
        <ele>2029</ele>
        <time>2016-01-19T10:16:28Z</time>
      </trkpt>
      <trkpt lat="45.50022" lon="6.61744">
        <ele>2030.92</ele>
        <time>2016-01-19T10:16:48Z</time>
      </trkpt>
      <trkpt lat="45.50031" lon="6.61759">
        <ele>2033.33</ele>
        <time>2016-01-19T10:17:06Z</time>
      </trkpt>
      <trkpt lat="45.50043" lon="6.61773">
        <ele>2035.73</ele>
        <time>2016-01-19T10:17:24Z</time>
      </trkpt>
      <trkpt lat="45.50051" lon="6.61784">
        <ele>2038.13</ele>
        <time>2016-01-19T10:17:38Z</time>
      </trkpt>
      <trkpt lat="45.50059" lon="6.61796">
        <ele>2040.54</ele>
        <time>2016-01-19T10:17:54Z</time>
      </trkpt>
      <trkpt lat="45.50061" lon="6.61797">
        <ele>2040.05</ele>
        <time>2016-01-19T10:17:56Z</time>
      </trkpt>
      <trkpt lat="45.50071" lon="6.61816">
        <ele>2042.46</ele>
        <time>2016-01-19T10:18:14Z</time>
      </trkpt>
      <trkpt lat="45.50072" lon="6.61819">
        <ele>2042.46</ele>
        <time>2016-01-19T10:18:16Z</time>
      </trkpt>
      <trkpt lat="45.50081" lon="6.61832">
        <ele>2043.9</ele>
        <time>2016-01-19T10:18:31Z</time>
      </trkpt>
      <trkpt lat="45.50089" lon="6.6184">
        <ele>2045.82</ele>
        <time>2016-01-19T10:18:46Z</time>
      </trkpt>
      <trkpt lat="45.50101" lon="6.61848">
        <ele>2048.23</ele>
        <time>2016-01-19T10:19:03Z</time>
      </trkpt>
      <trkpt lat="45.50109" lon="6.61853">
        <ele>2048.71</ele>
        <time>2016-01-19T10:19:17Z</time>
      </trkpt>
      <trkpt lat="45.50121" lon="6.61864">
        <ele>2049.67</ele>
        <time>2016-01-19T10:19:34Z</time>
      </trkpt>
      <trkpt lat="45.50132" lon="6.61875">
        <ele>2050.63</ele>
        <time>2016-01-19T10:19:49Z</time>
      </trkpt>
      <trkpt lat="45.50136" lon="6.61881">
        <ele>2052.55</ele>
        <time>2016-01-19T10:20:03Z</time>
      </trkpt>
      <trkpt lat="45.50129" lon="6.61881">
        <ele>2053.51</ele>
        <time>2016-01-19T10:20:13Z</time>
      </trkpt>
      <trkpt lat="45.50116" lon="6.61871">
        <ele>2055.44</ele>
        <time>2016-01-19T10:20:32Z</time>
      </trkpt>
      <trkpt lat="45.50103" lon="6.61866">
        <ele>2057.36</ele>
        <time>2016-01-19T10:20:47Z</time>
      </trkpt>
      <trkpt lat="45.50101" lon="6.61866">
        <ele>2057.36</ele>
        <time>2016-01-19T10:21:07Z</time>
      </trkpt>
      <trkpt lat="45.50084" lon="6.61861">
        <ele>2058.32</ele>
        <time>2016-01-19T10:21:25Z</time>
      </trkpt>
      <trkpt lat="45.5007" lon="6.61851">
        <ele>2058.32</ele>
        <time>2016-01-19T10:21:43Z</time>
      </trkpt>
      <trkpt lat="45.50051" lon="6.61834">
        <ele>2060.24</ele>
        <time>2016-01-19T10:22:06Z</time>
      </trkpt>
      <trkpt lat="45.50037" lon="6.61828">
        <ele>2061.68</ele>
        <time>2016-01-19T10:22:22Z</time>
      </trkpt>
      <trkpt lat="45.50025" lon="6.61823">
        <ele>2062.65</ele>
        <time>2016-01-19T10:22:37Z</time>
      </trkpt>
      <trkpt lat="45.50014" lon="6.61815">
        <ele>2064.57</ele>
        <time>2016-01-19T10:22:53Z</time>
      </trkpt>
      <trkpt lat="45.5" lon="6.61804">
        <ele>2066.49</ele>
        <time>2016-01-19T10:23:11Z</time>
      </trkpt>
      <trkpt lat="45.49985" lon="6.61798">
        <ele>2067.45</ele>
        <time>2016-01-19T10:23:28Z</time>
      </trkpt>
      <trkpt lat="45.49972" lon="6.61788">
        <ele>2068.89</ele>
        <time>2016-01-19T10:23:43Z</time>
      </trkpt>
      <trkpt lat="45.49958" lon="6.61777">
        <ele>2069.38</ele>
        <time>2016-01-19T10:24:02Z</time>
      </trkpt>
      <trkpt lat="45.49952" lon="6.61772">
        <ele>2070.34</ele>
        <time>2016-01-19T10:24:10Z</time>
      </trkpt>
      <trkpt lat="45.49937" lon="6.61765">
        <ele>2072.26</ele>
        <time>2016-01-19T10:24:26Z</time>
      </trkpt>
      <trkpt lat="45.49922" lon="6.61756">
        <ele>2072.74</ele>
        <time>2016-01-19T10:24:43Z</time>
      </trkpt>
      <trkpt lat="45.49907" lon="6.61751">
        <ele>2074.66</ele>
        <time>2016-01-19T10:24:59Z</time>
      </trkpt>
      <trkpt lat="45.49892" lon="6.6175">
        <ele>2076.1</ele>
        <time>2016-01-19T10:25:16Z</time>
      </trkpt>
      <trkpt lat="45.4988" lon="6.6175">
        <ele>2078.99</ele>
        <time>2016-01-19T10:25:31Z</time>
      </trkpt>
      <trkpt lat="45.49862" lon="6.61749">
        <ele>2079.47</ele>
        <time>2016-01-19T10:25:49Z</time>
      </trkpt>
      <trkpt lat="45.49847" lon="6.61741">
        <ele>2080.43</ele>
        <time>2016-01-19T10:26:04Z</time>
      </trkpt>
      <trkpt lat="45.49839" lon="6.61738">
        <ele>2081.39</ele>
        <time>2016-01-19T10:26:15Z</time>
      </trkpt>
      <trkpt lat="45.4983" lon="6.61737">
        <ele>2082.83</ele>
        <time>2016-01-19T10:26:29Z</time>
      </trkpt>
      <trkpt lat="45.49825" lon="6.61737">
        <ele>2083.31</ele>
        <time>2016-01-19T10:26:35Z</time>
      </trkpt>
      <trkpt lat="45.49811" lon="6.61735">
        <ele>2084.76</ele>
        <time>2016-01-19T10:26:51Z</time>
      </trkpt>
      <trkpt lat="45.49799" lon="6.6173">
        <ele>2087.16</ele>
        <time>2016-01-19T10:27:07Z</time>
      </trkpt>
      <trkpt lat="45.49796" lon="6.61729">
        <ele>2087.64</ele>
        <time>2016-01-19T10:27:11Z</time>
      </trkpt>
      <trkpt lat="45.49782" lon="6.61723">
        <ele>2089.08</ele>
        <time>2016-01-19T10:27:29Z</time>
      </trkpt>
      <trkpt lat="45.49767" lon="6.61715">
        <ele>2090.52</ele>
        <time>2016-01-19T10:27:46Z</time>
      </trkpt>
      <trkpt lat="45.49753" lon="6.6171">
        <ele>2091.49</ele>
        <time>2016-01-19T10:28:00Z</time>
      </trkpt>
      <trkpt lat="45.49748" lon="6.6171">
        <ele>2091.49</ele>
        <time>2016-01-19T10:28:04Z</time>
      </trkpt>
      <trkpt lat="45.49735" lon="6.61712">
        <ele>2092.93</ele>
        <time>2016-01-19T10:28:22Z</time>
      </trkpt>
      <trkpt lat="45.49726" lon="6.61708">
        <ele>2093.89</ele>
        <time>2016-01-19T10:28:33Z</time>
      </trkpt>
      <trkpt lat="45.49716" lon="6.61701">
        <ele>2095.33</ele>
        <time>2016-01-19T10:28:47Z</time>
      </trkpt>
      <trkpt lat="45.49707" lon="6.617">
        <ele>2096.77</ele>
        <time>2016-01-19T10:29:01Z</time>
      </trkpt>
      <trkpt lat="45.49699" lon="6.61699">
        <ele>2099.66</ele>
        <time>2016-01-19T10:29:16Z</time>
      </trkpt>
      <trkpt lat="45.49687" lon="6.61696">
        <ele>2102.06</ele>
        <time>2016-01-19T10:29:36Z</time>
      </trkpt>
      <trkpt lat="45.49678" lon="6.61693">
        <ele>2104.94</ele>
        <time>2016-01-19T10:29:50Z</time>
      </trkpt>
      <trkpt lat="45.49672" lon="6.61694">
        <ele>2107.35</ele>
        <time>2016-01-19T10:30:04Z</time>
      </trkpt>
      <trkpt lat="45.49663" lon="6.61695">
        <ele>2109.27</ele>
        <time>2016-01-19T10:30:20Z</time>
      </trkpt>
      <trkpt lat="45.49655" lon="6.617">
        <ele>2111.67</ele>
        <time>2016-01-19T10:30:35Z</time>
      </trkpt>
      <trkpt lat="45.49652" lon="6.61701">
        <ele>2113.12</ele>
        <time>2016-01-19T10:30:53Z</time>
      </trkpt>
      <trkpt lat="45.49646" lon="6.61703">
        <ele>2115.04</ele>
        <time>2016-01-19T10:31:03Z</time>
      </trkpt>
      <trkpt lat="45.49635" lon="6.61703">
        <ele>2117.92</ele>
        <time>2016-01-19T10:31:20Z</time>
      </trkpt>
      <trkpt lat="45.49635" lon="6.61705">
        <ele>2119.36</ele>
        <time>2016-01-19T10:31:33Z</time>
      </trkpt>
      <trkpt lat="45.49638" lon="6.61714">
        <ele>2120.81</ele>
        <time>2016-01-19T10:31:48Z</time>
      </trkpt>
      <trkpt lat="45.49638" lon="6.61717">
        <ele>2121.29</ele>
        <time>2016-01-19T10:31:59Z</time>
      </trkpt>
      <trkpt lat="45.49643" lon="6.61731">
        <ele>2123.69</ele>
        <time>2016-01-19T10:32:15Z</time>
      </trkpt>
      <trkpt lat="45.4965" lon="6.61742">
        <ele>2127.05</ele>
        <time>2016-01-19T10:32:32Z</time>
      </trkpt>
      <trkpt lat="45.49653" lon="6.61745">
        <ele>2129.46</ele>
        <time>2016-01-19T10:32:46Z</time>
      </trkpt>
      <trkpt lat="45.49647" lon="6.61749">
        <ele>2130.9</ele>
        <time>2016-01-19T10:32:58Z</time>
      </trkpt>
      <trkpt lat="45.49641" lon="6.61756">
        <ele>2134.26</ele>
        <time>2016-01-19T10:33:12Z</time>
      </trkpt>
      <trkpt lat="45.49633" lon="6.61763">
        <ele>2137.63</ele>
        <time>2016-01-19T10:33:29Z</time>
      </trkpt>
      <trkpt lat="45.49629" lon="6.61765">
        <ele>2138.59</ele>
        <time>2016-01-19T10:33:44Z</time>
      </trkpt>
      <trkpt lat="45.49626" lon="6.6177">
        <ele>2139.55</ele>
        <time>2016-01-19T10:34:01Z</time>
      </trkpt>
      <trkpt lat="45.49618" lon="6.61779">
        <ele>2142.44</ele>
        <time>2016-01-19T10:34:17Z</time>
      </trkpt>
      <trkpt lat="45.4961" lon="6.61791">
        <ele>2145.8</ele>
        <time>2016-01-19T10:34:34Z</time>
      </trkpt>
      <trkpt lat="45.49604" lon="6.61802">
        <ele>2149.16</ele>
        <time>2016-01-19T10:34:50Z</time>
      </trkpt>
      <trkpt lat="45.49605" lon="6.61814">
        <ele>2152.05</ele>
        <time>2016-01-19T10:35:05Z</time>
      </trkpt>
      <trkpt lat="45.4961" lon="6.61826">
        <ele>2155.41</ele>
        <time>2016-01-19T10:35:22Z</time>
      </trkpt>
      <trkpt lat="45.49615" lon="6.61839">
        <ele>2158.3</ele>
        <time>2016-01-19T10:35:39Z</time>
      </trkpt>
      <trkpt lat="45.49619" lon="6.61857">
        <ele>2161.18</ele>
        <time>2016-01-19T10:35:59Z</time>
      </trkpt>
      <trkpt lat="45.49624" lon="6.61875">
        <ele>2164.06</ele>
        <time>2016-01-19T10:36:18Z</time>
      </trkpt>
      <trkpt lat="45.49626" lon="6.6189">
        <ele>2165.99</ele>
        <time>2016-01-19T10:36:33Z</time>
      </trkpt>
      <trkpt lat="45.49625" lon="6.61907">
        <ele>2168.39</ele>
        <time>2016-01-19T10:36:49Z</time>
      </trkpt>
      <trkpt lat="45.49625" lon="6.61923">
        <ele>2169.83</ele>
        <time>2016-01-19T10:37:03Z</time>
      </trkpt>
      <trkpt lat="45.49623" lon="6.61928">
        <ele>2170.31</ele>
        <time>2016-01-19T10:37:09Z</time>
      </trkpt>
      <trkpt lat="45.4962" lon="6.61939">
        <ele>2172.24</ele>
        <time>2016-01-19T10:37:22Z</time>
      </trkpt>
      <trkpt lat="45.49618" lon="6.61953">
        <ele>2175.6</ele>
        <time>2016-01-19T10:37:39Z</time>
      </trkpt>
      <trkpt lat="45.49621" lon="6.61965">
        <ele>2178</ele>
        <time>2016-01-19T10:37:54Z</time>
      </trkpt>
      <trkpt lat="45.49627" lon="6.61976">
        <ele>2179.93</ele>
        <time>2016-01-19T10:38:08Z</time>
      </trkpt>
      <trkpt lat="45.49637" lon="6.61994">
        <ele>2182.33</ele>
        <time>2016-01-19T10:38:30Z</time>
      </trkpt>
      <trkpt lat="45.49642" lon="6.6201">
        <ele>2184.25</ele>
        <time>2016-01-19T10:38:47Z</time>
      </trkpt>
      <trkpt lat="45.49644" lon="6.62024">
        <ele>2186.18</ele>
        <time>2016-01-19T10:39:02Z</time>
      </trkpt>
      <trkpt lat="45.49647" lon="6.6204">
        <ele>2188.1</ele>
        <time>2016-01-19T10:39:18Z</time>
      </trkpt>
      <trkpt lat="45.49649" lon="6.62051">
        <ele>2189.54</ele>
        <time>2016-01-19T10:39:34Z</time>
      </trkpt>
      <trkpt lat="45.4965" lon="6.62063">
        <ele>2192.9</ele>
        <time>2016-01-19T10:39:50Z</time>
      </trkpt>
      <trkpt lat="45.49653" lon="6.62076">
        <ele>2195.31</ele>
        <time>2016-01-19T10:40:04Z</time>
      </trkpt>
      <trkpt lat="45.49651" lon="6.62086">
        <ele>2197.23</ele>
        <time>2016-01-19T10:40:22Z</time>
      </trkpt>
      <trkpt lat="45.49647" lon="6.62096">
        <ele>2197.71</ele>
        <time>2016-01-19T10:40:44Z</time>
      </trkpt>
      <trkpt lat="45.49643" lon="6.6211">
        <ele>2200.11</ele>
        <time>2016-01-19T10:41:01Z</time>
      </trkpt>
      <trkpt lat="45.49637" lon="6.62123">
        <ele>2201.56</ele>
        <time>2016-01-19T10:41:18Z</time>
      </trkpt>
      <trkpt lat="45.49632" lon="6.62131">
        <ele>2204.92</ele>
        <time>2016-01-19T10:41:31Z</time>
      </trkpt>
      <trkpt lat="45.49626" lon="6.62141">
        <ele>2206.84</ele>
        <time>2016-01-19T10:41:45Z</time>
      </trkpt>
      <trkpt lat="45.49621" lon="6.62151">
        <ele>2209.25</ele>
        <time>2016-01-19T10:42:00Z</time>
      </trkpt>
      <trkpt lat="45.49618" lon="6.62158">
        <ele>2211.17</ele>
        <time>2016-01-19T10:42:11Z</time>
      </trkpt>
      <trkpt lat="45.49614" lon="6.62163">
        <ele>2212.13</ele>
        <time>2016-01-19T10:42:27Z</time>
      </trkpt>
      <trkpt lat="45.49614" lon="6.62165">
        <ele>2213.09</ele>
        <time>2016-01-19T10:42:43Z</time>
      </trkpt>
      <trkpt lat="45.49606" lon="6.62175">
        <ele>2215.01</ele>
        <time>2016-01-19T10:42:59Z</time>
      </trkpt>
      <trkpt lat="45.49603" lon="6.6218">
        <ele>2216.94</ele>
        <time>2016-01-19T10:43:07Z</time>
      </trkpt>
      <trkpt lat="45.496" lon="6.62184">
        <ele>2218.38</ele>
        <time>2016-01-19T10:43:18Z</time>
      </trkpt>
      <trkpt lat="45.49597" lon="6.62191">
        <ele>2219.82</ele>
        <time>2016-01-19T10:43:28Z</time>
      </trkpt>
      <trkpt lat="45.49592" lon="6.62199">
        <ele>2222.22</ele>
        <time>2016-01-19T10:43:41Z</time>
      </trkpt>
      <trkpt lat="45.49586" lon="6.62212">
        <ele>2225.59</ele>
        <time>2016-01-19T10:43:56Z</time>
      </trkpt>
      <trkpt lat="45.49586" lon="6.62208">
        <ele>2225.59</ele>
        <time>2016-01-19T10:44:11Z</time>
      </trkpt>
      <trkpt lat="45.49585" lon="6.62208">
        <ele>2225.59</ele>
        <time>2016-01-19T10:44:35Z</time>
      </trkpt>
      <trkpt lat="45.49583" lon="6.62212">
        <ele>2225.59</ele>
        <time>2016-01-19T10:45:13Z</time>
      </trkpt>
      <trkpt lat="45.49583" lon="6.62219">
        <ele>2227.03</ele>
        <time>2016-01-19T10:45:32Z</time>
      </trkpt>
      <trkpt lat="45.49581" lon="6.62235">
        <ele>2228.95</ele>
        <time>2016-01-19T10:45:50Z</time>
      </trkpt>
      <trkpt lat="45.49582" lon="6.62248">
        <ele>2231.36</ele>
        <time>2016-01-19T10:46:05Z</time>
      </trkpt>
      <trkpt lat="45.49583" lon="6.62258">
        <ele>2234.72</ele>
        <time>2016-01-19T10:46:20Z</time>
      </trkpt>
      <trkpt lat="45.49577" lon="6.62268">
        <ele>2237.61</ele>
        <time>2016-01-19T10:46:34Z</time>
      </trkpt>
      <trkpt lat="45.49577" lon="6.62278">
        <ele>2239.05</ele>
        <time>2016-01-19T10:46:50Z</time>
      </trkpt>
      <trkpt lat="45.49577" lon="6.62288">
        <ele>2241.45</ele>
        <time>2016-01-19T10:47:01Z</time>
      </trkpt>
      <trkpt lat="45.49575" lon="6.62296">
        <ele>2242.41</ele>
        <time>2016-01-19T10:47:08Z</time>
      </trkpt>
      <trkpt lat="45.49573" lon="6.62313">
        <ele>2244.82</ele>
        <time>2016-01-19T10:47:26Z</time>
      </trkpt>
      <trkpt lat="45.49573" lon="6.62326">
        <ele>2245.3</ele>
        <time>2016-01-19T10:47:42Z</time>
      </trkpt>
      <trkpt lat="45.49573" lon="6.62329">
        <ele>2245.3</ele>
        <time>2016-01-19T10:47:44Z</time>
      </trkpt>
      <trkpt lat="45.49572" lon="6.62349">
        <ele>2245.3</ele>
        <time>2016-01-19T10:48:00Z</time>
      </trkpt>
      <trkpt lat="45.49569" lon="6.62377">
        <ele>2245.78</ele>
        <time>2016-01-19T10:48:23Z</time>
      </trkpt>
      <trkpt lat="45.49567" lon="6.62397">
        <ele>2246.26</ele>
        <time>2016-01-19T10:48:38Z</time>
      </trkpt>
      <trkpt lat="45.49563" lon="6.62417">
        <ele>2248.18</ele>
        <time>2016-01-19T10:48:54Z</time>
      </trkpt>
      <trkpt lat="45.4956" lon="6.62431">
        <ele>2249.14</ele>
        <time>2016-01-19T10:49:07Z</time>
      </trkpt>
      <trkpt lat="45.49556" lon="6.62447">
        <ele>2250.1</ele>
        <time>2016-01-19T10:49:22Z</time>
      </trkpt>
      <trkpt lat="45.49552" lon="6.62465">
        <ele>2252.03</ele>
        <time>2016-01-19T10:49:36Z</time>
      </trkpt>
      <trkpt lat="45.4955" lon="6.62478">
        <ele>2253.47</ele>
        <time>2016-01-19T10:49:54Z</time>
      </trkpt>
      <trkpt lat="45.49547" lon="6.62495">
        <ele>2254.43</ele>
        <time>2016-01-19T10:50:09Z</time>
      </trkpt>
      <trkpt lat="45.49543" lon="6.62515">
        <ele>2256.83</ele>
        <time>2016-01-19T10:50:27Z</time>
      </trkpt>
      <trkpt lat="45.49541" lon="6.62529">
        <ele>2258.27</ele>
        <time>2016-01-19T10:50:41Z</time>
      </trkpt>
      <trkpt lat="45.49538" lon="6.62541">
        <ele>2259.72</ele>
        <time>2016-01-19T10:50:52Z</time>
      </trkpt>
      <trkpt lat="45.49533" lon="6.62553">
        <ele>2261.16</ele>
        <time>2016-01-19T10:51:04Z</time>
      </trkpt>
      <trkpt lat="45.49531" lon="6.62556">
        <ele>2261.64</ele>
        <time>2016-01-19T10:51:07Z</time>
      </trkpt>
      <trkpt lat="45.49524" lon="6.62568">
        <ele>2263.08</ele>
        <time>2016-01-19T10:51:22Z</time>
      </trkpt>
      <trkpt lat="45.49518" lon="6.62584">
        <ele>2265.48</ele>
        <time>2016-01-19T10:51:38Z</time>
      </trkpt>
      <trkpt lat="45.49513" lon="6.626">
        <ele>2268.37</ele>
        <time>2016-01-19T10:51:55Z</time>
      </trkpt>
      <trkpt lat="45.49512" lon="6.62618">
        <ele>2270.77</ele>
        <time>2016-01-19T10:52:12Z</time>
      </trkpt>
      <trkpt lat="45.49511" lon="6.6263">
        <ele>2272.69</ele>
        <time>2016-01-19T10:52:26Z</time>
      </trkpt>
      <trkpt lat="45.49513" lon="6.62642">
        <ele>2274.62</ele>
        <time>2016-01-19T10:52:38Z</time>
      </trkpt>
      <trkpt lat="45.49516" lon="6.62656">
        <ele>2277.02</ele>
        <time>2016-01-19T10:52:52Z</time>
      </trkpt>
      <trkpt lat="45.49512" lon="6.62667">
        <ele>2279.9</ele>
        <time>2016-01-19T10:53:07Z</time>
      </trkpt>
      <trkpt lat="45.49506" lon="6.6267">
        <ele>2280.87</ele>
        <time>2016-01-19T10:53:16Z</time>
      </trkpt>
      <trkpt lat="45.49502" lon="6.62674">
        <ele>2282.79</ele>
        <time>2016-01-19T10:53:29Z</time>
      </trkpt>
      <trkpt lat="45.49503" lon="6.62675">
        <ele>2282.79</ele>
        <time>2016-01-19T10:53:58Z</time>
      </trkpt>
      <trkpt lat="45.49507" lon="6.62688">
        <ele>2285.19</ele>
        <time>2016-01-19T10:54:13Z</time>
      </trkpt>
      <trkpt lat="45.49509" lon="6.62695">
        <ele>2287.11</ele>
        <time>2016-01-19T10:54:30Z</time>
      </trkpt>
      <trkpt lat="45.4951" lon="6.62695">
        <ele>2287.11</ele>
        <time>2016-01-19T10:55:05Z</time>
      </trkpt>
      <trkpt lat="45.49512" lon="6.62698">
        <ele>2288.08</ele>
        <time>2016-01-19T10:55:20Z</time>
      </trkpt>
      <trkpt lat="45.49515" lon="6.62705">
        <ele>2290</ele>
        <time>2016-01-19T10:55:33Z</time>
      </trkpt>
      <trkpt lat="45.49511" lon="6.62707">
        <ele>2290.48</ele>
        <time>2016-01-19T10:55:46Z</time>
      </trkpt>
      <trkpt lat="45.49504" lon="6.62711">
        <ele>2291.92</ele>
        <time>2016-01-19T10:56:01Z</time>
      </trkpt>
      <trkpt lat="45.49495" lon="6.62712">
        <ele>2294.32</ele>
        <time>2016-01-19T10:56:19Z</time>
      </trkpt>
      <trkpt lat="45.49486" lon="6.62713">
        <ele>2297.21</ele>
        <time>2016-01-19T10:56:36Z</time>
      </trkpt>
      <trkpt lat="45.49484" lon="6.62713">
        <ele>2297.69</ele>
        <time>2016-01-19T10:56:44Z</time>
      </trkpt>
      <trkpt lat="45.49485" lon="6.62719">
        <ele>2298.65</ele>
        <time>2016-01-19T10:56:56Z</time>
      </trkpt>
      <trkpt lat="45.49488" lon="6.62728">
        <ele>2301.05</ele>
        <time>2016-01-19T10:57:10Z</time>
      </trkpt>
      <trkpt lat="45.49491" lon="6.62737">
        <ele>2302.98</ele>
        <time>2016-01-19T10:57:24Z</time>
      </trkpt>
      <trkpt lat="45.49492" lon="6.62738">
        <ele>2303.46</ele>
        <time>2016-01-19T10:57:44Z</time>
      </trkpt>
      <trkpt lat="45.49493" lon="6.62737">
        <ele>2303.46</ele>
        <time>2016-01-19T10:58:21Z</time>
      </trkpt>
      <trkpt lat="45.49496" lon="6.62744">
        <ele>2304.9</ele>
        <time>2016-01-19T10:58:40Z</time>
      </trkpt>
      <trkpt lat="45.49498" lon="6.62752">
        <ele>2306.82</ele>
        <time>2016-01-19T10:58:54Z</time>
      </trkpt>
      <trkpt lat="45.49501" lon="6.62762">
        <ele>2308.26</ele>
        <time>2016-01-19T10:59:10Z</time>
      </trkpt>
      <trkpt lat="45.49505" lon="6.62775">
        <ele>2309.7</ele>
        <time>2016-01-19T10:59:28Z</time>
      </trkpt>
      <trkpt lat="45.49509" lon="6.62788">
        <ele>2310.67</ele>
        <time>2016-01-19T10:59:44Z</time>
      </trkpt>
      <trkpt lat="45.49513" lon="6.628">
        <ele>2312.11</ele>
        <time>2016-01-19T11:00:01Z</time>
      </trkpt>
      <trkpt lat="45.49516" lon="6.62814">
        <ele>2314.51</ele>
        <time>2016-01-19T11:00:18Z</time>
      </trkpt>
      <trkpt lat="45.49517" lon="6.62826">
        <ele>2315.95</ele>
        <time>2016-01-19T11:00:33Z</time>
      </trkpt>
      <trkpt lat="45.4952" lon="6.6284">
        <ele>2318.36</ele>
        <time>2016-01-19T11:00:51Z</time>
      </trkpt>
      <trkpt lat="45.49521" lon="6.62848">
        <ele>2318.84</ele>
        <time>2016-01-19T11:01:04Z</time>
      </trkpt>
      <trkpt lat="45.49519" lon="6.62845">
        <ele>2318.84</ele>
        <time>2016-01-19T11:01:25Z</time>
      </trkpt>
      <trkpt lat="45.4952" lon="6.62848">
        <ele>2319.32</ele>
        <time>2016-01-19T11:01:40Z</time>
      </trkpt>
      <trkpt lat="45.49521" lon="6.6285">
        <ele>2319.32</ele>
        <time>2016-01-19T11:02:05Z</time>
      </trkpt>
      <trkpt lat="45.49519" lon="6.62851">
        <ele>2319.32</ele>
        <time>2016-01-19T11:02:34Z</time>
      </trkpt>
      <trkpt lat="45.49521" lon="6.62846">
        <ele>2319.32</ele>
        <time>2016-01-19T11:02:56Z</time>
      </trkpt>
      <trkpt lat="45.4952" lon="6.62845">
        <ele>2319.32</ele>
        <time>2016-01-19T11:03:30Z</time>
      </trkpt>
      <trkpt lat="45.4952" lon="6.62847">
        <ele>2319.32</ele>
        <time>2016-01-19T11:04:03Z</time>
      </trkpt>
      <trkpt lat="45.49521" lon="6.62855">
        <ele>2319.32</ele>
        <time>2016-01-19T11:04:19Z</time>
      </trkpt>
      <trkpt lat="45.49523" lon="6.62875">
        <ele>2319.8</ele>
        <time>2016-01-19T11:04:36Z</time>
      </trkpt>
      <trkpt lat="45.49523" lon="6.62887">
        <ele>2320.76</ele>
        <time>2016-01-19T11:04:53Z</time>
      </trkpt>
      <trkpt lat="45.49525" lon="6.62892">
        <ele>2321.24</ele>
        <time>2016-01-19T11:05:11Z</time>
      </trkpt>
      <trkpt lat="45.49527" lon="6.62909">
        <ele>2323.64</ele>
        <time>2016-01-19T11:05:29Z</time>
      </trkpt>
      <trkpt lat="45.49531" lon="6.62927">
        <ele>2326.05</ele>
        <time>2016-01-19T11:05:50Z</time>
      </trkpt>
      <trkpt lat="45.49532" lon="6.62932">
        <ele>2326.53</ele>
        <time>2016-01-19T11:05:56Z</time>
      </trkpt>
      <trkpt lat="45.49538" lon="6.62947">
        <ele>2328.93</ele>
        <time>2016-01-19T11:06:13Z</time>
      </trkpt>
      <trkpt lat="45.49538" lon="6.62951">
        <ele>2329.41</ele>
        <time>2016-01-19T11:06:27Z</time>
      </trkpt>
      <trkpt lat="45.49545" lon="6.6296">
        <ele>2331.81</ele>
        <time>2016-01-19T11:06:44Z</time>
      </trkpt>
      <trkpt lat="45.49549" lon="6.62967">
        <ele>2333.74</ele>
        <time>2016-01-19T11:06:57Z</time>
      </trkpt>
      <trkpt lat="45.49553" lon="6.62976">
        <ele>2335.66</ele>
        <time>2016-01-19T11:07:12Z</time>
      </trkpt>
      <trkpt lat="45.49557" lon="6.62985">
        <ele>2337.1</ele>
        <time>2016-01-19T11:07:27Z</time>
      </trkpt>
      <trkpt lat="45.49559" lon="6.62995">
        <ele>2338.06</ele>
        <time>2016-01-19T11:07:41Z</time>
      </trkpt>
      <trkpt lat="45.49562" lon="6.63003">
        <ele>2339.51</ele>
        <time>2016-01-19T11:07:55Z</time>
      </trkpt>
      <trkpt lat="45.49564" lon="6.63009">
        <ele>2340.95</ele>
        <time>2016-01-19T11:08:05Z</time>
      </trkpt>
      <trkpt lat="45.49566" lon="6.63015">
        <ele>2343.35</ele>
        <time>2016-01-19T11:08:18Z</time>
      </trkpt>
      <trkpt lat="45.49568" lon="6.63019">
        <ele>2344.79</ele>
        <time>2016-01-19T11:08:29Z</time>
      </trkpt>
      <trkpt lat="45.49572" lon="6.63024">
        <ele>2346.23</ele>
        <time>2016-01-19T11:08:41Z</time>
      </trkpt>
      <trkpt lat="45.49575" lon="6.6303">
        <ele>2348.16</ele>
        <time>2016-01-19T11:08:54Z</time>
      </trkpt>
      <trkpt lat="45.4958" lon="6.63036">
        <ele>2350.08</ele>
        <time>2016-01-19T11:09:08Z</time>
      </trkpt>
      <trkpt lat="45.49583" lon="6.63043">
        <ele>2352.48</ele>
        <time>2016-01-19T11:09:21Z</time>
      </trkpt>
      <trkpt lat="45.49585" lon="6.6305">
        <ele>2353.93</ele>
        <time>2016-01-19T11:09:35Z</time>
      </trkpt>
      <trkpt lat="45.49586" lon="6.63059">
        <ele>2355.85</ele>
        <time>2016-01-19T11:09:49Z</time>
      </trkpt>
      <trkpt lat="45.49588" lon="6.63069">
        <ele>2357.29</ele>
        <time>2016-01-19T11:10:03Z</time>
      </trkpt>
      <trkpt lat="45.49589" lon="6.63076">
        <ele>2359.21</ele>
        <time>2016-01-19T11:10:16Z</time>
      </trkpt>
      <trkpt lat="45.4959" lon="6.63085">
        <ele>2361.14</ele>
        <time>2016-01-19T11:10:29Z</time>
      </trkpt>
      <trkpt lat="45.4959" lon="6.63094">
        <ele>2363.54</ele>
        <time>2016-01-19T11:10:43Z</time>
      </trkpt>
      <trkpt lat="45.4959" lon="6.63104">
        <ele>2365.94</ele>
        <time>2016-01-19T11:10:58Z</time>
      </trkpt>
      <trkpt lat="45.49589" lon="6.63116">
        <ele>2367.86</ele>
        <time>2016-01-19T11:11:13Z</time>
      </trkpt>
      <trkpt lat="45.49586" lon="6.63127">
        <ele>2370.27</ele>
        <time>2016-01-19T11:11:30Z</time>
      </trkpt>
      <trkpt lat="45.49585" lon="6.63133">
        <ele>2370.75</ele>
        <time>2016-01-19T11:11:40Z</time>
      </trkpt>
      <trkpt lat="45.49581" lon="6.63152">
        <ele>2372.19</ele>
        <time>2016-01-19T11:12:00Z</time>
      </trkpt>
      <trkpt lat="45.49579" lon="6.63156">
        <ele>2372.19</ele>
        <time>2016-01-19T11:12:14Z</time>
      </trkpt>
      <trkpt lat="45.49579" lon="6.63161">
        <ele>2372.19</ele>
        <time>2016-01-19T11:12:28Z</time>
      </trkpt>
      <trkpt lat="45.4957" lon="6.63174">
        <ele>2372.67</ele>
        <time>2016-01-19T11:12:46Z</time>
      </trkpt>
      <trkpt lat="45.49565" lon="6.63181">
        <ele>2374.59</ele>
        <time>2016-01-19T11:12:59Z</time>
      </trkpt>
      <trkpt lat="45.49563" lon="6.63186">
        <ele>2375.07</ele>
        <time>2016-01-19T11:13:15Z</time>
      </trkpt>
      <trkpt lat="45.4956" lon="6.63198">
        <ele>2376.52</ele>
        <time>2016-01-19T11:13:30Z</time>
      </trkpt>
      <trkpt lat="45.49556" lon="6.63208">
        <ele>2375.07</ele>
        <time>2016-01-19T11:13:44Z</time>
      </trkpt>
      <trkpt lat="45.49552" lon="6.63219">
        <ele>2374.11</ele>
        <time>2016-01-19T11:13:58Z</time>
      </trkpt>
      <trkpt lat="45.4955" lon="6.63225">
        <ele>2374.11</ele>
        <time>2016-01-19T11:14:12Z</time>
      </trkpt>
      <trkpt lat="45.49544" lon="6.63236">
        <ele>2374.11</ele>
        <time>2016-01-19T11:14:26Z</time>
      </trkpt>
      <trkpt lat="45.49542" lon="6.63237">
        <ele>2374.11</ele>
        <time>2016-01-19T11:14:28Z</time>
      </trkpt>
      <trkpt lat="45.49528" lon="6.63246">
        <ele>2375.55</ele>
        <time>2016-01-19T11:14:46Z</time>
      </trkpt>
      <trkpt lat="45.49522" lon="6.63251">
        <ele>2376.04</ele>
        <time>2016-01-19T11:14:56Z</time>
      </trkpt>
      <trkpt lat="45.49512" lon="6.63261">
        <ele>2377.48</ele>
        <time>2016-01-19T11:15:12Z</time>
      </trkpt>
      <trkpt lat="45.49502" lon="6.63272">
        <ele>2379.88</ele>
        <time>2016-01-19T11:15:29Z</time>
      </trkpt>
      <trkpt lat="45.49494" lon="6.6328">
        <ele>2382.76</ele>
        <time>2016-01-19T11:15:47Z</time>
      </trkpt>
      <trkpt lat="45.49482" lon="6.63288">
        <ele>2384.69</ele>
        <time>2016-01-19T11:16:06Z</time>
      </trkpt>
      <trkpt lat="45.49471" lon="6.63298">
        <ele>2386.13</ele>
        <time>2016-01-19T11:16:22Z</time>
      </trkpt>
      <trkpt lat="45.49463" lon="6.63303">
        <ele>2386.61</ele>
        <time>2016-01-19T11:16:35Z</time>
      </trkpt>
      <trkpt lat="45.49463" lon="6.63309">
        <ele>2388.05</ele>
        <time>2016-01-19T11:16:42Z</time>
      </trkpt>
      <trkpt lat="45.49461" lon="6.6332">
        <ele>2389.97</ele>
        <time>2016-01-19T11:16:56Z</time>
      </trkpt>
      <trkpt lat="45.49464" lon="6.63335">
        <ele>2393.82</ele>
        <time>2016-01-19T11:17:14Z</time>
      </trkpt>
      <trkpt lat="45.49466" lon="6.63336">
        <ele>2394.3</ele>
        <time>2016-01-19T11:17:29Z</time>
      </trkpt>
      <trkpt lat="45.49475" lon="6.63339">
        <ele>2396.7</ele>
        <time>2016-01-19T11:17:45Z</time>
      </trkpt>
      <trkpt lat="45.49485" lon="6.63341">
        <ele>2400.07</ele>
        <time>2016-01-19T11:18:02Z</time>
      </trkpt>
      <trkpt lat="45.49487" lon="6.63344">
        <ele>2400.55</ele>
        <time>2016-01-19T11:18:14Z</time>
      </trkpt>
      <trkpt lat="45.49487" lon="6.63349">
        <ele>2401.99</ele>
        <time>2016-01-19T11:18:25Z</time>
      </trkpt>
      <trkpt lat="45.49492" lon="6.6335">
        <ele>2403.43</ele>
        <time>2016-01-19T11:18:36Z</time>
      </trkpt>
      <trkpt lat="45.49503" lon="6.63353">
        <ele>2406.32</ele>
        <time>2016-01-19T11:18:54Z</time>
      </trkpt>
      <trkpt lat="45.49513" lon="6.63355">
        <ele>2409.2</ele>
        <time>2016-01-19T11:19:11Z</time>
      </trkpt>
      <trkpt lat="45.4952" lon="6.63356">
        <ele>2410.64</ele>
        <time>2016-01-19T11:19:29Z</time>
      </trkpt>
      <trkpt lat="45.49529" lon="6.63358">
        <ele>2413.53</ele>
        <time>2016-01-19T11:19:46Z</time>
      </trkpt>
      <trkpt lat="45.49533" lon="6.63359">
        <ele>2414.97</ele>
        <time>2016-01-19T11:20:00Z</time>
      </trkpt>
      <trkpt lat="45.49531" lon="6.63356">
        <ele>2414.97</ele>
        <time>2016-01-19T11:20:22Z</time>
      </trkpt>
      <trkpt lat="45.49533" lon="6.63364">
        <ele>2415.93</ele>
        <time>2016-01-19T11:20:34Z</time>
      </trkpt>
      <trkpt lat="45.49538" lon="6.63371">
        <ele>2417.85</ele>
        <time>2016-01-19T11:20:48Z</time>
      </trkpt>
      <trkpt lat="45.49545" lon="6.63374">
        <ele>2419.78</ele>
        <time>2016-01-19T11:21:03Z</time>
      </trkpt>
      <trkpt lat="45.49547" lon="6.63376">
        <ele>2421.22</ele>
        <time>2016-01-19T11:21:17Z</time>
      </trkpt>
      <trkpt lat="45.49552" lon="6.63378">
        <ele>2422.18</ele>
        <time>2016-01-19T11:21:32Z</time>
      </trkpt>
      <trkpt lat="45.49558" lon="6.63384">
        <ele>2423.62</ele>
        <time>2016-01-19T11:21:47Z</time>
      </trkpt>
      <trkpt lat="45.49562" lon="6.63387">
        <ele>2424.1</ele>
        <time>2016-01-19T11:22:02Z</time>
      </trkpt>
      <trkpt lat="45.49565" lon="6.63391">
        <ele>2423.62</ele>
        <time>2016-01-19T11:22:16Z</time>
      </trkpt>
      <trkpt lat="45.49569" lon="6.634">
        <ele>2426.02</ele>
        <time>2016-01-19T11:22:31Z</time>
      </trkpt>
      <trkpt lat="45.49575" lon="6.63407">
        <ele>2427.95</ele>
        <time>2016-01-19T11:22:47Z</time>
      </trkpt>
      <trkpt lat="45.49576" lon="6.63409">
        <ele>2429.39</ele>
        <time>2016-01-19T11:22:57Z</time>
      </trkpt>
      <trkpt lat="45.49572" lon="6.63414">
        <ele>2430.35</ele>
        <time>2016-01-19T11:23:09Z</time>
      </trkpt>
      <trkpt lat="45.49569" lon="6.63421">
        <ele>2432.75</ele>
        <time>2016-01-19T11:23:23Z</time>
      </trkpt>
      <trkpt lat="45.49569" lon="6.63421">
        <ele>2433.23</ele>
        <time>2016-01-19T11:23:41Z</time>
      </trkpt>
      <trkpt lat="45.49569" lon="6.63421">
        <ele>2432.75</ele>
        <time>2016-01-19T11:24:12Z</time>
      </trkpt>
      <trkpt lat="45.49569" lon="6.63422">
        <ele>2432.75</ele>
        <time>2016-01-19T11:24:34Z</time>
      </trkpt>
      <trkpt lat="45.49569" lon="6.63423">
        <ele>2432.75</ele>
        <time>2016-01-19T11:24:53Z</time>
      </trkpt>
      <trkpt lat="45.49569" lon="6.63423">
        <ele>2432.75</ele>
        <time>2016-01-19T11:25:22Z</time>
      </trkpt>
      <trkpt lat="45.49567" lon="6.63432">
        <ele>2435.64</ele>
        <time>2016-01-19T11:25:36Z</time>
      </trkpt>
      <trkpt lat="45.49567" lon="6.63438">
        <ele>2436.12</ele>
        <time>2016-01-19T11:25:50Z</time>
      </trkpt>
      <trkpt lat="45.49574" lon="6.63445">
        <ele>2437.56</ele>
        <time>2016-01-19T11:26:07Z</time>
      </trkpt>
      <trkpt lat="45.49581" lon="6.63453">
        <ele>2440.44</ele>
        <time>2016-01-19T11:26:23Z</time>
      </trkpt>
      <trkpt lat="45.49588" lon="6.63459">
        <ele>2442.37</ele>
        <time>2016-01-19T11:26:36Z</time>
      </trkpt>
      <trkpt lat="45.49596" lon="6.63465">
        <ele>2444.77</ele>
        <time>2016-01-19T11:26:51Z</time>
      </trkpt>
      <trkpt lat="45.49596" lon="6.63465">
        <ele>2445.25</ele>
        <time>2016-01-19T11:27:10Z</time>
      </trkpt>
      <trkpt lat="45.49596" lon="6.63465">
        <ele>2445.25</ele>
        <time>2016-01-19T11:27:27Z</time>
      </trkpt>
      <trkpt lat="45.49605" lon="6.63472">
        <ele>2447.17</ele>
        <time>2016-01-19T11:27:43Z</time>
      </trkpt>
      <trkpt lat="45.49607" lon="6.63479">
        <ele>2449.58</ele>
        <time>2016-01-19T11:27:58Z</time>
      </trkpt>
      <trkpt lat="45.49605" lon="6.63481">
        <ele>2450.54</ele>
        <time>2016-01-19T11:28:18Z</time>
      </trkpt>
      <trkpt lat="45.496" lon="6.6349">
        <ele>2452.46</ele>
        <time>2016-01-19T11:28:32Z</time>
      </trkpt>
      <trkpt lat="45.49596" lon="6.63496">
        <ele>2455.34</ele>
        <time>2016-01-19T11:28:47Z</time>
      </trkpt>
      <trkpt lat="45.49597" lon="6.63496">
        <ele>2455.82</ele>
        <time>2016-01-19T11:29:02Z</time>
      </trkpt>
      <trkpt lat="45.49595" lon="6.63499">
        <ele>2456.31</ele>
        <time>2016-01-19T11:29:17Z</time>
      </trkpt>
      <trkpt lat="45.49593" lon="6.635">
        <ele>2457.75</ele>
        <time>2016-01-19T11:29:31Z</time>
      </trkpt>
      <trkpt lat="45.49588" lon="6.63511">
        <ele>2459.67</ele>
        <time>2016-01-19T11:29:47Z</time>
      </trkpt>
      <trkpt lat="45.49589" lon="6.63516">
        <ele>2461.59</ele>
        <time>2016-01-19T11:29:56Z</time>
      </trkpt>
      <trkpt lat="45.49592" lon="6.63524">
        <ele>2464</ele>
        <time>2016-01-19T11:30:09Z</time>
      </trkpt>
      <trkpt lat="45.49591" lon="6.63533">
        <ele>2466.88</ele>
        <time>2016-01-19T11:30:23Z</time>
      </trkpt>
      <trkpt lat="45.49587" lon="6.63543">
        <ele>2469.76</ele>
        <time>2016-01-19T11:30:44Z</time>
      </trkpt>
      <trkpt lat="45.4958" lon="6.6355">
        <ele>2473.13</ele>
        <time>2016-01-19T11:30:59Z</time>
      </trkpt>
      <trkpt lat="45.49574" lon="6.63555">
        <ele>2475.53</ele>
        <time>2016-01-19T11:31:13Z</time>
      </trkpt>
      <trkpt lat="45.4957" lon="6.63558">
        <ele>2476.97</ele>
        <time>2016-01-19T11:31:27Z</time>
      </trkpt>
      <trkpt lat="45.49568" lon="6.63561">
        <ele>2478.42</ele>
        <time>2016-01-19T11:31:41Z</time>
      </trkpt>
      <trkpt lat="45.49569" lon="6.6357">
        <ele>2481.3</ele>
        <time>2016-01-19T11:31:55Z</time>
      </trkpt>
      <trkpt lat="45.49569" lon="6.63575">
        <ele>2482.74</ele>
        <time>2016-01-19T11:32:07Z</time>
      </trkpt>
      <trkpt lat="45.49563" lon="6.6358">
        <ele>2485.63</ele>
        <time>2016-01-19T11:32:22Z</time>
      </trkpt>
      <trkpt lat="45.49555" lon="6.63587">
        <ele>2488.99</ele>
        <time>2016-01-19T11:32:38Z</time>
      </trkpt>
      <trkpt lat="45.49547" lon="6.63597">
        <ele>2492.36</ele>
        <time>2016-01-19T11:32:55Z</time>
      </trkpt>
      <trkpt lat="45.49546" lon="6.63601">
        <ele>2492.84</ele>
        <time>2016-01-19T11:33:12Z</time>
      </trkpt>
      <trkpt lat="45.49545" lon="6.63609">
        <ele>2496.2</ele>
        <time>2016-01-19T11:33:26Z</time>
      </trkpt>
      <trkpt lat="45.49546" lon="6.63612">
        <ele>2497.16</ele>
        <time>2016-01-19T11:33:39Z</time>
      </trkpt>
      <trkpt lat="45.49542" lon="6.63617">
        <ele>2498.12</ele>
        <time>2016-01-19T11:33:49Z</time>
      </trkpt>
      <trkpt lat="45.49538" lon="6.63621">
        <ele>2499.08</ele>
        <time>2016-01-19T11:34:04Z</time>
      </trkpt>
      <trkpt lat="45.49531" lon="6.63631">
        <ele>2501.49</ele>
        <time>2016-01-19T11:34:18Z</time>
      </trkpt>
      <trkpt lat="45.49527" lon="6.63643">
        <ele>2504.85</ele>
        <time>2016-01-19T11:34:32Z</time>
      </trkpt>
      <trkpt lat="45.49525" lon="6.63649">
        <ele>2506.29</ele>
        <time>2016-01-19T11:34:47Z</time>
      </trkpt>
      <trkpt lat="45.49526" lon="6.6365">
        <ele>2506.29</ele>
        <time>2016-01-19T11:35:09Z</time>
      </trkpt>
      <trkpt lat="45.49525" lon="6.63649">
        <ele>2506.29</ele>
        <time>2016-01-19T11:35:33Z</time>
      </trkpt>
      <trkpt lat="45.49526" lon="6.63648">
        <ele>2506.29</ele>
        <time>2016-01-19T11:35:56Z</time>
      </trkpt>
      <trkpt lat="45.49526" lon="6.63649">
        <ele>2506.29</ele>
        <time>2016-01-19T11:36:14Z</time>
      </trkpt>
      <trkpt lat="45.49525" lon="6.63649">
        <ele>2505.81</ele>
        <time>2016-01-19T11:36:39Z</time>
      </trkpt>
      <trkpt lat="45.49525" lon="6.63649">
        <ele>2505.81</ele>
        <time>2016-01-19T11:36:56Z</time>
      </trkpt>
      <trkpt lat="45.49526" lon="6.63649">
        <ele>2505.81</ele>
        <time>2016-01-19T11:37:21Z</time>
      </trkpt>
      <trkpt lat="45.49527" lon="6.63648">
        <ele>2505.81</ele>
        <time>2016-01-19T11:37:43Z</time>
      </trkpt>
      <trkpt lat="45.49526" lon="6.63649">
        <ele>2505.81</ele>
        <time>2016-01-19T11:38:05Z</time>
      </trkpt>
      <trkpt lat="45.49526" lon="6.63652">
        <ele>2506.29</ele>
        <time>2016-01-19T11:38:29Z</time>
      </trkpt>
      <trkpt lat="45.49524" lon="6.63661">
        <ele>2508.22</ele>
        <time>2016-01-19T11:38:46Z</time>
      </trkpt>
      <trkpt lat="45.4952" lon="6.63677">
        <ele>2510.14</ele>
        <time>2016-01-19T11:39:04Z</time>
      </trkpt>
      <trkpt lat="45.49517" lon="6.63692">
        <ele>2513.02</ele>
        <time>2016-01-19T11:39:20Z</time>
      </trkpt>
      <trkpt lat="45.49515" lon="6.63701">
        <ele>2514.47</ele>
        <time>2016-01-19T11:39:35Z</time>
      </trkpt>
      <trkpt lat="45.49513" lon="6.63715">
        <ele>2517.83</ele>
        <time>2016-01-19T11:39:53Z</time>
      </trkpt>
      <trkpt lat="45.4951" lon="6.63726">
        <ele>2519.75</ele>
        <time>2016-01-19T11:40:10Z</time>
      </trkpt>
      <trkpt lat="45.49504" lon="6.63743">
        <ele>2523.12</ele>
        <time>2016-01-19T11:40:29Z</time>
      </trkpt>
      <trkpt lat="45.49502" lon="6.63754">
        <ele>2526</ele>
        <time>2016-01-19T11:40:44Z</time>
      </trkpt>
      <trkpt lat="45.49502" lon="6.63763">
        <ele>2527.44</ele>
        <time>2016-01-19T11:40:57Z</time>
      </trkpt>
      <trkpt lat="45.49496" lon="6.63771">
        <ele>2531.29</ele>
        <time>2016-01-19T11:41:12Z</time>
      </trkpt>
      <trkpt lat="45.49493" lon="6.63778">
        <ele>2532.73</ele>
        <time>2016-01-19T11:41:29Z</time>
      </trkpt>
      <trkpt lat="45.4949" lon="6.63791">
        <ele>2535.61</ele>
        <time>2016-01-19T11:41:44Z</time>
      </trkpt>
      <trkpt lat="45.49489" lon="6.63794">
        <ele>2537.06</ele>
        <time>2016-01-19T11:41:49Z</time>
      </trkpt>
      <trkpt lat="45.49489" lon="6.63797">
        <ele>2537.54</ele>
        <time>2016-01-19T11:42:03Z</time>
      </trkpt>
      <trkpt lat="45.49486" lon="6.63802">
        <ele>2538.5</ele>
        <time>2016-01-19T11:42:17Z</time>
      </trkpt>
      <trkpt lat="45.49484" lon="6.63807">
        <ele>2540.42</ele>
        <time>2016-01-19T11:42:30Z</time>
      </trkpt>
      <trkpt lat="45.49484" lon="6.6381">
        <ele>2540.9</ele>
        <time>2016-01-19T11:42:43Z</time>
      </trkpt>
      <trkpt lat="45.49486" lon="6.63812">
        <ele>2542.34</ele>
        <time>2016-01-19T11:42:55Z</time>
      </trkpt>
      <trkpt lat="45.4949" lon="6.63813">
        <ele>2542.82</ele>
        <time>2016-01-19T11:43:07Z</time>
      </trkpt>
      <trkpt lat="45.49491" lon="6.63812">
        <ele>2544.27</ele>
        <time>2016-01-19T11:43:21Z</time>
      </trkpt>
      <trkpt lat="45.49491" lon="6.63813">
        <ele>2544.27</ele>
        <time>2016-01-19T11:43:41Z</time>
      </trkpt>
      <trkpt lat="45.49489" lon="6.63813">
        <ele>2542.82</ele>
        <time>2016-01-19T11:43:50Z</time>
      </trkpt>
      <trkpt lat="45.49487" lon="6.63813">
        <ele>2541.86</ele>
        <time>2016-01-19T11:44:05Z</time>
      </trkpt>
      <trkpt lat="45.49485" lon="6.63813">
        <ele>2540.42</ele>
        <time>2016-01-19T11:44:18Z</time>
      </trkpt>
      <trkpt lat="45.49485" lon="6.63812">
        <ele>2539.94</ele>
        <time>2016-01-19T11:44:32Z</time>
      </trkpt>
      <trkpt lat="45.49484" lon="6.63813">
        <ele>2539.94</ele>
        <time>2016-01-19T11:44:48Z</time>
      </trkpt>
      <trkpt lat="45.49484" lon="6.63812">
        <ele>2541.38</ele>
        <time>2016-01-19T11:44:51Z</time>
      </trkpt>
      <trkpt lat="45.49481" lon="6.63818">
        <ele>2542.34</ele>
        <time>2016-01-19T11:45:05Z</time>
      </trkpt>
      <trkpt lat="45.49479" lon="6.63826">
        <ele>2544.27</ele>
        <time>2016-01-19T11:45:19Z</time>
      </trkpt>
      <trkpt lat="45.49478" lon="6.6383">
        <ele>2544.75</ele>
        <time>2016-01-19T11:45:33Z</time>
      </trkpt>
      <trkpt lat="45.49477" lon="6.63831">
        <ele>2545.23</ele>
        <time>2016-01-19T11:45:47Z</time>
      </trkpt>
      <trkpt lat="45.49477" lon="6.63832">
        <ele>2545.23</ele>
        <time>2016-01-19T11:46:04Z</time>
      </trkpt>
      <trkpt lat="45.4948" lon="6.63831">
        <ele>2546.19</ele>
        <time>2016-01-19T11:46:15Z</time>
      </trkpt>
      <trkpt lat="45.49484" lon="6.6383">
        <ele>2547.63</ele>
        <time>2016-01-19T11:46:30Z</time>
      </trkpt>
      <trkpt lat="45.49483" lon="6.6383">
        <ele>2547.63</ele>
        <time>2016-01-19T11:46:51Z</time>
      </trkpt>
      <trkpt lat="45.49485" lon="6.6383">
        <ele>2548.11</ele>
        <time>2016-01-19T11:47:06Z</time>
      </trkpt>
      <trkpt lat="45.49485" lon="6.63831">
        <ele>2548.11</ele>
        <time>2016-01-19T11:47:19Z</time>
      </trkpt>
      <trkpt lat="45.49485" lon="6.63832">
        <ele>2548.11</ele>
        <time>2016-01-19T11:47:20Z</time>
      </trkpt>
      <trkpt lat="45.49484" lon="6.63838">
        <ele>2550.03</ele>
        <time>2016-01-19T11:47:32Z</time>
      </trkpt>
      <trkpt lat="45.49482" lon="6.63845">
        <ele>2551.96</ele>
        <time>2016-01-19T11:47:46Z</time>
      </trkpt>
      <trkpt lat="45.49482" lon="6.63848">
        <ele>2552.44</ele>
        <time>2016-01-19T11:47:49Z</time>
      </trkpt>
      <trkpt lat="45.49479" lon="6.63858">
        <ele>2554.36</ele>
        <time>2016-01-19T11:48:04Z</time>
      </trkpt>
      <trkpt lat="45.49478" lon="6.63861">
        <ele>2554.36</ele>
        <time>2016-01-19T11:48:24Z</time>
      </trkpt>
      <trkpt lat="45.49477" lon="6.63874">
        <ele>2556.76</ele>
        <time>2016-01-19T11:48:39Z</time>
      </trkpt>
      <trkpt lat="45.49473" lon="6.63888">
        <ele>2560.13</ele>
        <time>2016-01-19T11:48:52Z</time>
      </trkpt>
      <trkpt lat="45.4947" lon="6.63901">
        <ele>2563.01</ele>
        <time>2016-01-19T11:49:08Z</time>
      </trkpt>
      <trkpt lat="45.4947" lon="6.63911">
        <ele>2565.9</ele>
        <time>2016-01-19T11:49:22Z</time>
      </trkpt>
      <trkpt lat="45.4947" lon="6.63925">
        <ele>2568.3</ele>
        <time>2016-01-19T11:49:37Z</time>
      </trkpt>
      <trkpt lat="45.49471" lon="6.63927">
        <ele>2568.3</ele>
        <time>2016-01-19T11:49:52Z</time>
      </trkpt>
      <trkpt lat="45.49472" lon="6.63929">
        <ele>2568.78</ele>
        <time>2016-01-19T11:50:03Z</time>
      </trkpt>
      <trkpt lat="45.49471" lon="6.63928">
        <ele>2568.78</ele>
        <time>2016-01-19T11:50:13Z</time>
      </trkpt>
      <trkpt lat="45.49471" lon="6.63925">
        <ele>2568.78</ele>
        <time>2016-01-19T11:50:31Z</time>
      </trkpt>
      <trkpt lat="45.49471" lon="6.63928">
        <ele>2568.78</ele>
        <time>2016-01-19T11:50:51Z</time>
      </trkpt>
      <trkpt lat="45.49471" lon="6.63929">
        <ele>2568.3</ele>
        <time>2016-01-19T11:51:08Z</time>
      </trkpt>
      <trkpt lat="45.49471" lon="6.63928">
        <ele>2567.82</ele>
        <time>2016-01-19T11:51:24Z</time>
      </trkpt>
      <trkpt lat="45.49471" lon="6.63928">
        <ele>2567.82</ele>
        <time>2016-01-19T11:51:47Z</time>
      </trkpt>
      <trkpt lat="45.49471" lon="6.63928">
        <ele>2567.34</ele>
        <time>2016-01-19T11:52:00Z</time>
      </trkpt>
      <trkpt lat="45.49473" lon="6.63927">
        <ele>2566.86</ele>
        <time>2016-01-19T11:52:33Z</time>
      </trkpt>
      <trkpt lat="45.49472" lon="6.63927">
        <ele>2566.86</ele>
        <time>2016-01-19T11:52:55Z</time>
      </trkpt>
      <trkpt lat="45.49472" lon="6.63928">
        <ele>2566.38</ele>
        <time>2016-01-19T11:53:24Z</time>
      </trkpt>
      <trkpt lat="45.49472" lon="6.63928">
        <ele>2567.34</ele>
        <time>2016-01-19T11:53:31Z</time>
      </trkpt>
      <trkpt lat="45.49472" lon="6.63928">
        <ele>2567.34</ele>
        <time>2016-01-19T11:54:02Z</time>
      </trkpt>
      <trkpt lat="45.49471" lon="6.63927">
        <ele>2565.9</ele>
        <time>2016-01-19T11:54:12Z</time>
      </trkpt>
      <trkpt lat="45.49473" lon="6.63928">
        <ele>2566.86</ele>
        <time>2016-01-19T11:54:34Z</time>
      </trkpt>
      <trkpt lat="45.49472" lon="6.63927">
        <ele>2566.86</ele>
        <time>2016-01-19T11:55:11Z</time>
      </trkpt>
      <trkpt lat="45.49471" lon="6.63928">
        <ele>2566.86</ele>
        <time>2016-01-19T11:55:45Z</time>
      </trkpt>
      <trkpt lat="45.49471" lon="6.63928">
        <ele>2566.38</ele>
        <time>2016-01-19T11:56:13Z</time>
      </trkpt>
      <trkpt lat="45.49471" lon="6.63927">
        <ele>2566.38</ele>
        <time>2016-01-19T11:56:36Z</time>
      </trkpt>
      <trkpt lat="45.4947" lon="6.63927">
        <ele>2566.38</ele>
        <time>2016-01-19T11:57:02Z</time>
      </trkpt>
      <trkpt lat="45.49471" lon="6.63927">
        <ele>2566.86</ele>
        <time>2016-01-19T11:57:27Z</time>
      </trkpt>
      <trkpt lat="45.49472" lon="6.63927">
        <ele>2565.42</ele>
        <time>2016-01-19T11:57:46Z</time>
      </trkpt>
      <trkpt lat="45.49471" lon="6.63926">
        <ele>2566.86</ele>
        <time>2016-01-19T11:57:54Z</time>
      </trkpt>
      <trkpt lat="45.49472" lon="6.63926">
        <ele>2566.38</ele>
        <time>2016-01-19T11:58:14Z</time>
      </trkpt>
      <trkpt lat="45.4947" lon="6.63926">
        <ele>2565.9</ele>
        <time>2016-01-19T11:58:33Z</time>
      </trkpt>
      <trkpt lat="45.49473" lon="6.63926">
        <ele>2565.9</ele>
        <time>2016-01-19T11:58:58Z</time>
      </trkpt>
      <trkpt lat="45.4947" lon="6.63926">
        <ele>2565.9</ele>
        <time>2016-01-19T11:59:25Z</time>
      </trkpt>
      <trkpt lat="45.49471" lon="6.63927">
        <ele>2565.9</ele>
        <time>2016-01-19T11:59:48Z</time>
      </trkpt>
      <trkpt lat="45.49472" lon="6.63927">
        <ele>2565.42</ele>
        <time>2016-01-19T12:00:09Z</time>
      </trkpt>
      <trkpt lat="45.49471" lon="6.63926">
        <ele>2564.93</ele>
        <time>2016-01-19T12:00:23Z</time>
      </trkpt>
      <trkpt lat="45.49472" lon="6.63927">
        <ele>2564.93</ele>
        <time>2016-01-19T12:00:51Z</time>
      </trkpt>
      <trkpt lat="45.49471" lon="6.63927">
        <ele>2565.42</ele>
        <time>2016-01-19T12:01:03Z</time>
      </trkpt>
      <trkpt lat="45.49472" lon="6.63928">
        <ele>2564.93</ele>
        <time>2016-01-19T12:01:29Z</time>
      </trkpt>
      <trkpt lat="45.49472" lon="6.63928">
        <ele>2564.93</ele>
        <time>2016-01-19T12:01:51Z</time>
      </trkpt>
      <trkpt lat="45.49472" lon="6.63928">
        <ele>2564.93</ele>
        <time>2016-01-19T12:02:09Z</time>
      </trkpt>
      <trkpt lat="45.49471" lon="6.63928">
        <ele>2565.42</ele>
        <time>2016-01-19T12:02:34Z</time>
      </trkpt>
      <trkpt lat="45.49472" lon="6.63928">
        <ele>2563.97</ele>
        <time>2016-01-19T12:02:40Z</time>
      </trkpt>
      <trkpt lat="45.49472" lon="6.63928">
        <ele>2565.42</ele>
        <time>2016-01-19T12:02:42Z</time>
      </trkpt>
      <trkpt lat="45.4947" lon="6.63927">
        <ele>2565.42</ele>
        <time>2016-01-19T12:03:10Z</time>
      </trkpt>
      <trkpt lat="45.49471" lon="6.63927">
        <ele>2563.97</ele>
        <time>2016-01-19T12:03:16Z</time>
      </trkpt>
      <trkpt lat="45.49471" lon="6.63926">
        <ele>2564.93</ele>
        <time>2016-01-19T12:03:21Z</time>
      </trkpt>
      <trkpt lat="45.49471" lon="6.63927">
        <ele>2564.45</ele>
        <time>2016-01-19T12:03:29Z</time>
      </trkpt>
      <trkpt lat="45.49471" lon="6.63927">
        <ele>2564.45</ele>
        <time>2016-01-19T12:03:51Z</time>
      </trkpt>
      <trkpt lat="45.49471" lon="6.63927">
        <ele>2564.93</ele>
        <time>2016-01-19T12:03:57Z</time>
      </trkpt>
      <trkpt lat="45.49471" lon="6.63928">
        <ele>2563.97</ele>
        <time>2016-01-19T12:04:13Z</time>
      </trkpt>
      <trkpt lat="45.4947" lon="6.63927">
        <ele>2565.9</ele>
        <time>2016-01-19T12:04:38Z</time>
      </trkpt>
      <trkpt lat="45.4947" lon="6.63928">
        <ele>2565.9</ele>
        <time>2016-01-19T12:04:47Z</time>
      </trkpt>
      <trkpt lat="45.4947" lon="6.63927">
        <ele>2563.97</ele>
        <time>2016-01-19T12:04:49Z</time>
      </trkpt>
      <trkpt lat="45.49472" lon="6.63928">
        <ele>2565.42</ele>
        <time>2016-01-19T12:05:07Z</time>
      </trkpt>
      <trkpt lat="45.49471" lon="6.63927">
        <ele>2562.05</ele>
        <time>2016-01-19T12:05:15Z</time>
      </trkpt>
      <trkpt lat="45.49471" lon="6.63927">
        <ele>2565.9</ele>
        <time>2016-01-19T12:05:16Z</time>
      </trkpt>
      <trkpt lat="45.4947" lon="6.63927">
        <ele>2562.53</ele>
        <time>2016-01-19T12:05:40Z</time>
      </trkpt>
      <trkpt lat="45.49469" lon="6.63927">
        <ele>2569.26</ele>
        <time>2016-01-19T12:05:42Z</time>
      </trkpt>
      <trkpt lat="45.49468" lon="6.63927">
        <ele>2564.93</ele>
        <time>2016-01-19T12:05:43Z</time>
      </trkpt>
      <trkpt lat="45.49469" lon="6.63926">
        <ele>2563.97</ele>
        <time>2016-01-19T12:05:45Z</time>
      </trkpt>
      <trkpt lat="45.49468" lon="6.63926">
        <ele>2561.09</ele>
        <time>2016-01-19T12:05:51Z</time>
      </trkpt>
      <trkpt lat="45.49467" lon="6.63927">
        <ele>2563.97</ele>
        <time>2016-01-19T12:05:53Z</time>
      </trkpt>
      <trkpt lat="45.49467" lon="6.63927">
        <ele>2563.97</ele>
        <time>2016-01-19T12:05:54Z</time>
      </trkpt>
      <trkpt lat="45.49467" lon="6.63926">
        <ele>2560.13</ele>
        <time>2016-01-19T12:06:01Z</time>
      </trkpt>
      <trkpt lat="45.49467" lon="6.63926">
        <ele>2565.9</ele>
        <time>2016-01-19T12:06:02Z</time>
      </trkpt>
      <trkpt lat="45.49468" lon="6.63926">
        <ele>2562.53</ele>
        <time>2016-01-19T12:06:05Z</time>
      </trkpt>
      <trkpt lat="45.49469" lon="6.63925">
        <ele>2566.38</ele>
        <time>2016-01-19T12:06:06Z</time>
      </trkpt>
      <trkpt lat="45.49469" lon="6.63925">
        <ele>2566.38</ele>
        <time>2016-01-19T12:06:07Z</time>
      </trkpt>
      <trkpt lat="45.49471" lon="6.63925">
        <ele>2571.18</ele>
        <time>2016-01-19T12:06:11Z</time>
      </trkpt>
      <trkpt lat="45.49472" lon="6.63926">
        <ele>2566.38</ele>
        <time>2016-01-19T12:06:12Z</time>
      </trkpt>
      <trkpt lat="45.49472" lon="6.63926">
        <ele>2560.61</ele>
        <time>2016-01-19T12:06:13Z</time>
      </trkpt>
      <trkpt lat="45.49472" lon="6.63925">
        <ele>2563.49</ele>
        <time>2016-01-19T12:06:14Z</time>
      </trkpt>
      <trkpt lat="45.49472" lon="6.63924">
        <ele>2566.86</ele>
        <time>2016-01-19T12:06:15Z</time>
      </trkpt>
      <trkpt lat="45.49472" lon="6.63924">
        <ele>2571.66</ele>
        <time>2016-01-19T12:06:16Z</time>
      </trkpt>
      <trkpt lat="45.49471" lon="6.63926">
        <ele>2567.82</ele>
        <time>2016-01-19T12:06:17Z</time>
      </trkpt>
      <trkpt lat="45.4947" lon="6.63927">
        <ele>2564.93</ele>
        <time>2016-01-19T12:06:19Z</time>
      </trkpt>
      <trkpt lat="45.49471" lon="6.63927">
        <ele>2564.93</ele>
        <time>2016-01-19T12:06:37Z</time>
      </trkpt>
      <trkpt lat="45.4947" lon="6.63927">
        <ele>2564.93</ele>
        <time>2016-01-19T12:07:03Z</time>
      </trkpt>
      <trkpt lat="45.49471" lon="6.63927">
        <ele>2564.93</ele>
        <time>2016-01-19T12:07:32Z</time>
      </trkpt>
      <trkpt lat="45.49472" lon="6.63928">
        <ele>2565.42</ele>
        <time>2016-01-19T12:07:59Z</time>
      </trkpt>
      <trkpt lat="45.49472" lon="6.63928">
        <ele>2563.97</ele>
        <time>2016-01-19T12:08:28Z</time>
      </trkpt>
      <trkpt lat="45.49472" lon="6.63927">
        <ele>2563.97</ele>
        <time>2016-01-19T12:08:57Z</time>
      </trkpt>
      <trkpt lat="45.49472" lon="6.63928">
        <ele>2563.97</ele>
        <time>2016-01-19T12:09:16Z</time>
      </trkpt>
      <trkpt lat="45.49473" lon="6.63928">
        <ele>2563.97</ele>
        <time>2016-01-19T12:09:41Z</time>
      </trkpt>
      <trkpt lat="45.49473" lon="6.63927">
        <ele>2563.97</ele>
        <time>2016-01-19T12:10:06Z</time>
      </trkpt>
      <trkpt lat="45.49473" lon="6.63927">
        <ele>2563.97</ele>
        <time>2016-01-19T12:10:48Z</time>
      </trkpt>
      <trkpt lat="45.49473" lon="6.63928">
        <ele>2563.97</ele>
        <time>2016-01-19T12:11:17Z</time>
      </trkpt>
      <trkpt lat="45.49473" lon="6.63928">
        <ele>2565.42</ele>
        <time>2016-01-19T12:11:22Z</time>
      </trkpt>
      <trkpt lat="45.49471" lon="6.63928">
        <ele>2565.42</ele>
        <time>2016-01-19T12:11:43Z</time>
      </trkpt>
      <trkpt lat="45.49471" lon="6.63929">
        <ele>2565.42</ele>
        <time>2016-01-19T12:11:44Z</time>
      </trkpt>
      <trkpt lat="45.49471" lon="6.63928">
        <ele>2564.93</ele>
        <time>2016-01-19T12:11:56Z</time>
      </trkpt>
      <trkpt lat="45.49471" lon="6.63928">
        <ele>2563.49</ele>
        <time>2016-01-19T12:11:59Z</time>
      </trkpt>
      <trkpt lat="45.49471" lon="6.63928">
        <ele>2564.93</ele>
        <time>2016-01-19T12:12:04Z</time>
      </trkpt>
      <trkpt lat="45.49471" lon="6.63928">
        <ele>2563.49</ele>
        <time>2016-01-19T12:12:09Z</time>
      </trkpt>
      <trkpt lat="45.49472" lon="6.63928">
        <ele>2564.93</ele>
        <time>2016-01-19T12:12:21Z</time>
      </trkpt>
      <trkpt lat="45.49472" lon="6.63928">
        <ele>2563.49</ele>
        <time>2016-01-19T12:12:26Z</time>
      </trkpt>
      <trkpt lat="45.49471" lon="6.63928">
        <ele>2564.93</ele>
        <time>2016-01-19T12:12:40Z</time>
      </trkpt>
      <trkpt lat="45.49472" lon="6.63928">
        <ele>2563.49</ele>
        <time>2016-01-19T12:13:04Z</time>
      </trkpt>
      <trkpt lat="45.49471" lon="6.63928">
        <ele>2563.49</ele>
        <time>2016-01-19T12:13:05Z</time>
      </trkpt>
      <trkpt lat="45.49471" lon="6.63929">
        <ele>2563.49</ele>
        <time>2016-01-19T12:13:23Z</time>
      </trkpt>
      <trkpt lat="45.49471" lon="6.63929">
        <ele>2564.93</ele>
        <time>2016-01-19T12:13:43Z</time>
      </trkpt>
      <trkpt lat="45.49472" lon="6.63928">
        <ele>2564.45</ele>
        <time>2016-01-19T12:14:03Z</time>
      </trkpt>
      <trkpt lat="45.49469" lon="6.63923">
        <ele>2563.49</ele>
        <time>2016-01-19T12:14:12Z</time>
      </trkpt>
      <trkpt lat="45.49468" lon="6.63919">
        <ele>2563.49</ele>
        <time>2016-01-19T12:14:13Z</time>
      </trkpt>
      <trkpt lat="45.49467" lon="6.63914">
        <ele>2560.61</ele>
        <time>2016-01-19T12:14:14Z</time>
      </trkpt>
      <trkpt lat="45.49467" lon="6.63907">
        <ele>2562.05</ele>
        <time>2016-01-19T12:14:15Z</time>
      </trkpt>
      <trkpt lat="45.49469" lon="6.63899">
        <ele>2557.73</ele>
        <time>2016-01-19T12:14:16Z</time>
      </trkpt>
      <trkpt lat="45.49471" lon="6.63893">
        <ele>2555.32</ele>
        <time>2016-01-19T12:14:17Z</time>
      </trkpt>
      <trkpt lat="45.49474" lon="6.63886">
        <ele>2555.32</ele>
        <time>2016-01-19T12:14:18Z</time>
      </trkpt>
      <trkpt lat="45.49476" lon="6.63879">
        <ele>2553.88</ele>
        <time>2016-01-19T12:14:19Z</time>
      </trkpt>
      <trkpt lat="45.49479" lon="6.63873">
        <ele>2552.92</ele>
        <time>2016-01-19T12:14:20Z</time>
      </trkpt>
      <trkpt lat="45.49483" lon="6.63857">
        <ele>2551</ele>
        <time>2016-01-19T12:14:27Z</time>
      </trkpt>
      <trkpt lat="45.49483" lon="6.63855">
        <ele>2550.51</ele>
        <time>2016-01-19T12:14:38Z</time>
      </trkpt>
      <trkpt lat="45.49482" lon="6.63853">
        <ele>2550.51</ele>
        <time>2016-01-19T12:14:39Z</time>
      </trkpt>
      <trkpt lat="45.4948" lon="6.63852">
        <ele>2548.59</ele>
        <time>2016-01-19T12:14:40Z</time>
      </trkpt>
      <trkpt lat="45.49475" lon="6.63849">
        <ele>2544.27</ele>
        <time>2016-01-19T12:14:42Z</time>
      </trkpt>
      <trkpt lat="45.49475" lon="6.63843">
        <ele>2542.82</ele>
        <time>2016-01-19T12:14:43Z</time>
      </trkpt>
      <trkpt lat="45.49476" lon="6.63837">
        <ele>2540.9</ele>
        <time>2016-01-19T12:14:44Z</time>
      </trkpt>
      <trkpt lat="45.49472" lon="6.63829">
        <ele>2537.06</ele>
        <time>2016-01-19T12:14:46Z</time>
      </trkpt>
      <trkpt lat="45.49469" lon="6.63826">
        <ele>2532.73</ele>
        <time>2016-01-19T12:14:47Z</time>
      </trkpt>
      <trkpt lat="45.49469" lon="6.63821">
        <ele>2530.33</ele>
        <time>2016-01-19T12:14:48Z</time>
      </trkpt>
      <trkpt lat="45.4947" lon="6.63815">
        <ele>2529.37</ele>
        <time>2016-01-19T12:14:49Z</time>
      </trkpt>
      <trkpt lat="45.49471" lon="6.6381">
        <ele>2528.4</ele>
        <time>2016-01-19T12:14:50Z</time>
      </trkpt>
      <trkpt lat="45.49473" lon="6.63805">
        <ele>2527.44</ele>
        <time>2016-01-19T12:14:51Z</time>
      </trkpt>
      <trkpt lat="45.49477" lon="6.63788">
        <ele>2521.68</ele>
        <time>2016-01-19T12:14:54Z</time>
      </trkpt>
      <trkpt lat="45.49477" lon="6.63783">
        <ele>2524.56</ele>
        <time>2016-01-19T12:14:55Z</time>
      </trkpt>
      <trkpt lat="45.49475" lon="6.6378">
        <ele>2520.23</ele>
        <time>2016-01-19T12:14:56Z</time>
      </trkpt>
      <trkpt lat="45.49473" lon="6.63777">
        <ele>2518.31</ele>
        <time>2016-01-19T12:14:57Z</time>
      </trkpt>
      <trkpt lat="45.49473" lon="6.63772">
        <ele>2515.91</ele>
        <time>2016-01-19T12:14:58Z</time>
      </trkpt>
      <trkpt lat="45.49475" lon="6.63766">
        <ele>2513.02</ele>
        <time>2016-01-19T12:14:59Z</time>
      </trkpt>
      <trkpt lat="45.49475" lon="6.6376">
        <ele>2514.95</ele>
        <time>2016-01-19T12:15:00Z</time>
      </trkpt>
      <trkpt lat="45.49474" lon="6.63753">
        <ele>2510.14</ele>
        <time>2016-01-19T12:15:01Z</time>
      </trkpt>
      <trkpt lat="45.49476" lon="6.63745">
        <ele>2506.77</ele>
        <time>2016-01-19T12:15:02Z</time>
      </trkpt>
      <trkpt lat="45.49478" lon="6.63738">
        <ele>2505.33</ele>
        <time>2016-01-19T12:15:03Z</time>
      </trkpt>
      <trkpt lat="45.4948" lon="6.63732">
        <ele>2504.37</ele>
        <time>2016-01-19T12:15:04Z</time>
      </trkpt>
      <trkpt lat="45.49483" lon="6.63726">
        <ele>2502.45</ele>
        <time>2016-01-19T12:15:05Z</time>
      </trkpt>
      <trkpt lat="45.49485" lon="6.63721">
        <ele>2502.93</ele>
        <time>2016-01-19T12:15:06Z</time>
      </trkpt>
      <trkpt lat="45.49494" lon="6.63697">
        <ele>2498.12</ele>
        <time>2016-01-19T12:15:10Z</time>
      </trkpt>
      <trkpt lat="45.49496" lon="6.63691">
        <ele>2498.12</ele>
        <time>2016-01-19T12:15:11Z</time>
      </trkpt>
      <trkpt lat="45.495" lon="6.6368">
        <ele>2496.2</ele>
        <time>2016-01-19T12:15:14Z</time>
      </trkpt>
      <trkpt lat="45.495" lon="6.63679">
        <ele>2497.64</ele>
        <time>2016-01-19T12:15:25Z</time>
      </trkpt>
      <trkpt lat="45.495" lon="6.63676">
        <ele>2495.24</ele>
        <time>2016-01-19T12:15:26Z</time>
      </trkpt>
      <trkpt lat="45.49496" lon="6.63671">
        <ele>2492.36</ele>
        <time>2016-01-19T12:15:28Z</time>
      </trkpt>
      <trkpt lat="45.49494" lon="6.63673">
        <ele>2492.36</ele>
        <time>2016-01-19T12:15:29Z</time>
      </trkpt>
      <trkpt lat="45.49492" lon="6.63674">
        <ele>2491.39</ele>
        <time>2016-01-19T12:15:30Z</time>
      </trkpt>
      <trkpt lat="45.4949" lon="6.63676">
        <ele>2489.95</ele>
        <time>2016-01-19T12:15:32Z</time>
      </trkpt>
      <trkpt lat="45.4949" lon="6.63676">
        <ele>2489.47</ele>
        <time>2016-01-19T12:15:36Z</time>
      </trkpt>
      <trkpt lat="45.49488" lon="6.63669">
        <ele>2487.55</ele>
        <time>2016-01-19T12:15:38Z</time>
      </trkpt>
      <trkpt lat="45.49488" lon="6.63663">
        <ele>2482.74</ele>
        <time>2016-01-19T12:15:39Z</time>
      </trkpt>
      <trkpt lat="45.49487" lon="6.63659">
        <ele>2488.03</ele>
        <time>2016-01-19T12:15:40Z</time>
      </trkpt>
      <trkpt lat="45.49486" lon="6.63655">
        <ele>2481.78</ele>
        <time>2016-01-19T12:15:41Z</time>
      </trkpt>
      <trkpt lat="45.49485" lon="6.63654">
        <ele>2481.3</ele>
        <time>2016-01-19T12:15:43Z</time>
      </trkpt>
      <trkpt lat="45.4948" lon="6.63651">
        <ele>2479.38</ele>
        <time>2016-01-19T12:15:47Z</time>
      </trkpt>
      <trkpt lat="45.49479" lon="6.63651">
        <ele>2476.97</ele>
        <time>2016-01-19T12:15:53Z</time>
      </trkpt>
      <trkpt lat="45.49475" lon="6.63647">
        <ele>2475.53</ele>
        <time>2016-01-19T12:15:56Z</time>
      </trkpt>
      <trkpt lat="45.49468" lon="6.63651">
        <ele>2472.17</ele>
        <time>2016-01-19T12:15:59Z</time>
      </trkpt>
      <trkpt lat="45.49465" lon="6.63655">
        <ele>2471.21</ele>
        <time>2016-01-19T12:16:01Z</time>
      </trkpt>
      <trkpt lat="45.49463" lon="6.63656">
        <ele>2470.73</ele>
        <time>2016-01-19T12:16:03Z</time>
      </trkpt>
      <trkpt lat="45.4946" lon="6.63649">
        <ele>2468.8</ele>
        <time>2016-01-19T12:16:06Z</time>
      </trkpt>
      <trkpt lat="45.49461" lon="6.63644">
        <ele>2463.04</ele>
        <time>2016-01-19T12:16:07Z</time>
      </trkpt>
      <trkpt lat="45.49461" lon="6.6364">
        <ele>2467.36</ele>
        <time>2016-01-19T12:16:08Z</time>
      </trkpt>
      <trkpt lat="45.49459" lon="6.63638">
        <ele>2462.55</ele>
        <time>2016-01-19T12:16:09Z</time>
      </trkpt>
      <trkpt lat="45.49451" lon="6.6363">
        <ele>2456.79</ele>
        <time>2016-01-19T12:16:12Z</time>
      </trkpt>
      <trkpt lat="45.49452" lon="6.63626">
        <ele>2456.79</ele>
        <time>2016-01-19T12:16:13Z</time>
      </trkpt>
      <trkpt lat="45.49449" lon="6.63618">
        <ele>2453.9</ele>
        <time>2016-01-19T12:16:15Z</time>
      </trkpt>
      <trkpt lat="45.49445" lon="6.63616">
        <ele>2450.54</ele>
        <time>2016-01-19T12:16:16Z</time>
      </trkpt>
      <trkpt lat="45.49436" lon="6.63601">
        <ele>2443.81</ele>
        <time>2016-01-19T12:16:19Z</time>
      </trkpt>
      <trkpt lat="45.49433" lon="6.63596">
        <ele>2447.17</ele>
        <time>2016-01-19T12:16:20Z</time>
      </trkpt>
      <trkpt lat="45.4943" lon="6.63591">
        <ele>2443.81</ele>
        <time>2016-01-19T12:16:21Z</time>
      </trkpt>
      <trkpt lat="45.49425" lon="6.63582">
        <ele>2439.48</ele>
        <time>2016-01-19T12:16:23Z</time>
      </trkpt>
      <trkpt lat="45.49424" lon="6.63579">
        <ele>2439.48</ele>
        <time>2016-01-19T12:16:24Z</time>
      </trkpt>
      <trkpt lat="45.49421" lon="6.63578">
        <ele>2439.48</ele>
        <time>2016-01-19T12:16:32Z</time>
      </trkpt>
      <trkpt lat="45.49423" lon="6.63575">
        <ele>2438.52</ele>
        <time>2016-01-19T12:16:54Z</time>
      </trkpt>
      <trkpt lat="45.49423" lon="6.63575">
        <ele>2438.52</ele>
        <time>2016-01-19T12:16:57Z</time>
      </trkpt>
      <trkpt lat="45.49423" lon="6.63567">
        <ele>2435.64</ele>
        <time>2016-01-19T12:17:00Z</time>
      </trkpt>
      <trkpt lat="45.49426" lon="6.63545">
        <ele>2431.79</ele>
        <time>2016-01-19T12:17:03Z</time>
      </trkpt>
      <trkpt lat="45.49424" lon="6.63541">
        <ele>2430.83</ele>
        <time>2016-01-19T12:17:04Z</time>
      </trkpt>
      <trkpt lat="45.49413" lon="6.63526">
        <ele>2426.5</ele>
        <time>2016-01-19T12:17:07Z</time>
      </trkpt>
      <trkpt lat="45.49406" lon="6.63515">
        <ele>2422.18</ele>
        <time>2016-01-19T12:17:09Z</time>
      </trkpt>
      <trkpt lat="45.49402" lon="6.63509">
        <ele>2420.26</ele>
        <time>2016-01-19T12:17:10Z</time>
      </trkpt>
      <trkpt lat="45.49399" lon="6.635">
        <ele>2415.93</ele>
        <time>2016-01-19T12:17:11Z</time>
      </trkpt>
      <trkpt lat="45.49397" lon="6.63492">
        <ele>2414.01</ele>
        <time>2016-01-19T12:17:12Z</time>
      </trkpt>
      <trkpt lat="45.49395" lon="6.63484">
        <ele>2412.57</ele>
        <time>2016-01-19T12:17:13Z</time>
      </trkpt>
      <trkpt lat="45.49388" lon="6.63471">
        <ele>2411.12</ele>
        <time>2016-01-19T12:17:15Z</time>
      </trkpt>
      <trkpt lat="45.49381" lon="6.63456">
        <ele>2408.72</ele>
        <time>2016-01-19T12:17:17Z</time>
      </trkpt>
      <trkpt lat="45.49375" lon="6.63431">
        <ele>2406.32</ele>
        <time>2016-01-19T12:17:21Z</time>
      </trkpt>
      <trkpt lat="45.49373" lon="6.63419">
        <ele>2407.28</ele>
        <time>2016-01-19T12:17:23Z</time>
      </trkpt>
      <trkpt lat="45.49373" lon="6.63414">
        <ele>2403.91</ele>
        <time>2016-01-19T12:17:24Z</time>
      </trkpt>
      <trkpt lat="45.49373" lon="6.6341">
        <ele>2403.91</ele>
        <time>2016-01-19T12:17:25Z</time>
      </trkpt>
      <trkpt lat="45.49373" lon="6.63407">
        <ele>2407.28</ele>
        <time>2016-01-19T12:17:26Z</time>
      </trkpt>
      <trkpt lat="45.49373" lon="6.63405">
        <ele>2405.84</ele>
        <time>2016-01-19T12:17:27Z</time>
      </trkpt>
      <trkpt lat="45.4938" lon="6.63381">
        <ele>2404.88</ele>
        <time>2016-01-19T12:17:37Z</time>
      </trkpt>
      <trkpt lat="45.49383" lon="6.6338">
        <ele>2406.32</ele>
        <time>2016-01-19T12:17:55Z</time>
      </trkpt>
      <trkpt lat="45.49388" lon="6.63377">
        <ele>2406.32</ele>
        <time>2016-01-19T12:18:05Z</time>
      </trkpt>
      <trkpt lat="45.49391" lon="6.63376">
        <ele>2405.84</ele>
        <time>2016-01-19T12:18:15Z</time>
      </trkpt>
      <trkpt lat="45.49392" lon="6.63376">
        <ele>2405.84</ele>
        <time>2016-01-19T12:18:17Z</time>
      </trkpt>
      <trkpt lat="45.49394" lon="6.63376">
        <ele>2404.39</ele>
        <time>2016-01-19T12:18:18Z</time>
      </trkpt>
      <trkpt lat="45.49396" lon="6.63376">
        <ele>2405.84</ele>
        <time>2016-01-19T12:18:19Z</time>
      </trkpt>
      <trkpt lat="45.49399" lon="6.63379">
        <ele>2404.39</ele>
        <time>2016-01-19T12:18:20Z</time>
      </trkpt>
      <trkpt lat="45.49402" lon="6.63381">
        <ele>2404.39</ele>
        <time>2016-01-19T12:18:21Z</time>
      </trkpt>
      <trkpt lat="45.49406" lon="6.63383">
        <ele>2402.95</ele>
        <time>2016-01-19T12:18:22Z</time>
      </trkpt>
      <trkpt lat="45.49411" lon="6.63386">
        <ele>2401.03</ele>
        <time>2016-01-19T12:18:23Z</time>
      </trkpt>
      <trkpt lat="45.49415" lon="6.63389">
        <ele>2401.03</ele>
        <time>2016-01-19T12:18:24Z</time>
      </trkpt>
      <trkpt lat="45.49434" lon="6.63388">
        <ele>2398.63</ele>
        <time>2016-01-19T12:18:31Z</time>
      </trkpt>
      <trkpt lat="45.49437" lon="6.63385">
        <ele>2398.63</ele>
        <time>2016-01-19T12:18:32Z</time>
      </trkpt>
      <trkpt lat="45.49435" lon="6.63379">
        <ele>2396.7</ele>
        <time>2016-01-19T12:18:34Z</time>
      </trkpt>
      <trkpt lat="45.49431" lon="6.63374">
        <ele>2392.86</ele>
        <time>2016-01-19T12:18:36Z</time>
      </trkpt>
      <trkpt lat="45.4943" lon="6.63369">
        <ele>2392.86</ele>
        <time>2016-01-19T12:18:37Z</time>
      </trkpt>
      <trkpt lat="45.49432" lon="6.63363">
        <ele>2392.38</ele>
        <time>2016-01-19T12:18:38Z</time>
      </trkpt>
      <trkpt lat="45.49434" lon="6.63355">
        <ele>2387.57</ele>
        <time>2016-01-19T12:18:39Z</time>
      </trkpt>
      <trkpt lat="45.49436" lon="6.63348">
        <ele>2385.17</ele>
        <time>2016-01-19T12:18:40Z</time>
      </trkpt>
      <trkpt lat="45.49456" lon="6.63318">
        <ele>2381.32</ele>
        <time>2016-01-19T12:18:46Z</time>
      </trkpt>
      <trkpt lat="45.49468" lon="6.63305">
        <ele>2377.96</ele>
        <time>2016-01-19T12:18:49Z</time>
      </trkpt>
      <trkpt lat="45.49472" lon="6.63302">
        <ele>2377.96</ele>
        <time>2016-01-19T12:18:50Z</time>
      </trkpt>
      <trkpt lat="45.49497" lon="6.63279">
        <ele>2373.63</ele>
        <time>2016-01-19T12:18:57Z</time>
      </trkpt>
      <trkpt lat="45.49502" lon="6.63274">
        <ele>2373.15</ele>
        <time>2016-01-19T12:18:58Z</time>
      </trkpt>
      <trkpt lat="45.49515" lon="6.63261">
        <ele>2368.83</ele>
        <time>2016-01-19T12:19:00Z</time>
      </trkpt>
      <trkpt lat="45.49535" lon="6.63243">
        <ele>2365.94</ele>
        <time>2016-01-19T12:19:03Z</time>
      </trkpt>
      <trkpt lat="45.49546" lon="6.63235">
        <ele>2364.98</ele>
        <time>2016-01-19T12:19:05Z</time>
      </trkpt>
      <trkpt lat="45.4955" lon="6.63229">
        <ele>2364.98</ele>
        <time>2016-01-19T12:19:06Z</time>
      </trkpt>
      <trkpt lat="45.49553" lon="6.63224">
        <ele>2364.02</ele>
        <time>2016-01-19T12:19:07Z</time>
      </trkpt>
      <trkpt lat="45.49556" lon="6.63218">
        <ele>2365.46</ele>
        <time>2016-01-19T12:19:08Z</time>
      </trkpt>
      <trkpt lat="45.49558" lon="6.63213">
        <ele>2364.02</ele>
        <time>2016-01-19T12:19:09Z</time>
      </trkpt>
      <trkpt lat="45.49559" lon="6.6321">
        <ele>2364.98</ele>
        <time>2016-01-19T12:19:10Z</time>
      </trkpt>
      <trkpt lat="45.4956" lon="6.63205">
        <ele>2368.35</ele>
        <time>2016-01-19T12:19:20Z</time>
      </trkpt>
      <trkpt lat="45.4956" lon="6.63205">
        <ele>2367.86</ele>
        <time>2016-01-19T12:19:21Z</time>
      </trkpt>
      <trkpt lat="45.4956" lon="6.63198">
        <ele>2368.83</ele>
        <time>2016-01-19T12:19:33Z</time>
      </trkpt>
      <trkpt lat="45.49562" lon="6.63196">
        <ele>2367.38</ele>
        <time>2016-01-19T12:19:50Z</time>
      </trkpt>
      <trkpt lat="45.49561" lon="6.63194">
        <ele>2367.86</ele>
        <time>2016-01-19T12:19:58Z</time>
      </trkpt>
      <trkpt lat="45.49561" lon="6.63195">
        <ele>2367.86</ele>
        <time>2016-01-19T12:20:28Z</time>
      </trkpt>
      <trkpt lat="45.49559" lon="6.63195">
        <ele>2367.86</ele>
        <time>2016-01-19T12:20:54Z</time>
      </trkpt>
      <trkpt lat="45.49565" lon="6.63184">
        <ele>2366.9</ele>
        <time>2016-01-19T12:21:14Z</time>
      </trkpt>
      <trkpt lat="45.49567" lon="6.63178">
        <ele>2366.9</ele>
        <time>2016-01-19T12:21:15Z</time>
      </trkpt>
      <trkpt lat="45.49571" lon="6.63172">
        <ele>2364.98</ele>
        <time>2016-01-19T12:21:16Z</time>
      </trkpt>
      <trkpt lat="45.4958" lon="6.6316">
        <ele>2361.14</ele>
        <time>2016-01-19T12:21:18Z</time>
      </trkpt>
      <trkpt lat="45.49582" lon="6.63155">
        <ele>2361.14</ele>
        <time>2016-01-19T12:21:19Z</time>
      </trkpt>
      <trkpt lat="45.49583" lon="6.63152">
        <ele>2365.46</ele>
        <time>2016-01-19T12:21:20Z</time>
      </trkpt>
      <trkpt lat="45.49584" lon="6.63151">
        <ele>2363.54</ele>
        <time>2016-01-19T12:21:21Z</time>
      </trkpt>
      <trkpt lat="45.49583" lon="6.63147">
        <ele>2363.06</ele>
        <time>2016-01-19T12:21:35Z</time>
      </trkpt>
      <trkpt lat="45.49583" lon="6.63147">
        <ele>2364.98</ele>
        <time>2016-01-19T12:21:37Z</time>
      </trkpt>
      <trkpt lat="45.49583" lon="6.63147">
        <ele>2363.54</ele>
        <time>2016-01-19T12:21:39Z</time>
      </trkpt>
      <trkpt lat="45.49583" lon="6.63148">
        <ele>2361.62</ele>
        <time>2016-01-19T12:21:57Z</time>
      </trkpt>
      <trkpt lat="45.49583" lon="6.63147">
        <ele>2364.98</ele>
        <time>2016-01-19T12:21:58Z</time>
      </trkpt>
      <trkpt lat="45.49583" lon="6.63149">
        <ele>2364.98</ele>
        <time>2016-01-19T12:22:18Z</time>
      </trkpt>
      <trkpt lat="45.49583" lon="6.63148">
        <ele>2363.54</ele>
        <time>2016-01-19T12:22:20Z</time>
      </trkpt>
      <trkpt lat="45.49582" lon="6.63147">
        <ele>2361.62</ele>
        <time>2016-01-19T12:22:35Z</time>
      </trkpt>
      <trkpt lat="45.49582" lon="6.63147">
        <ele>2365.46</ele>
        <time>2016-01-19T12:22:36Z</time>
      </trkpt>
      <trkpt lat="45.49582" lon="6.63147">
        <ele>2364.02</ele>
        <time>2016-01-19T12:22:37Z</time>
      </trkpt>
      <trkpt lat="45.49579" lon="6.63142">
        <ele>2363.54</ele>
        <time>2016-01-19T12:22:53Z</time>
      </trkpt>
      <trkpt lat="45.49582" lon="6.63146">
        <ele>2364.02</ele>
        <time>2016-01-19T12:23:09Z</time>
      </trkpt>
      <trkpt lat="45.49584" lon="6.63131">
        <ele>2363.06</ele>
        <time>2016-01-19T12:23:26Z</time>
      </trkpt>
      <trkpt lat="45.49586" lon="6.63109">
        <ele>2360.65</ele>
        <time>2016-01-19T12:23:36Z</time>
      </trkpt>
      <trkpt lat="45.49584" lon="6.63099">
        <ele>2358.73</ele>
        <time>2016-01-19T12:23:38Z</time>
      </trkpt>
      <trkpt lat="45.49581" lon="6.63083">
        <ele>2355.85</ele>
        <time>2016-01-19T12:23:41Z</time>
      </trkpt>
      <trkpt lat="45.49581" lon="6.63073">
        <ele>2354.41</ele>
        <time>2016-01-19T12:23:43Z</time>
      </trkpt>
      <trkpt lat="45.49583" lon="6.63068">
        <ele>2353.44</ele>
        <time>2016-01-19T12:23:44Z</time>
      </trkpt>
      <trkpt lat="45.49584" lon="6.63062">
        <ele>2350.56</ele>
        <time>2016-01-19T12:23:45Z</time>
      </trkpt>
      <trkpt lat="45.49583" lon="6.63056">
        <ele>2347.68</ele>
        <time>2016-01-19T12:23:46Z</time>
      </trkpt>
      <trkpt lat="45.49581" lon="6.63052">
        <ele>2347.68</ele>
        <time>2016-01-19T12:23:47Z</time>
      </trkpt>
      <trkpt lat="45.49581" lon="6.63049">
        <ele>2346.72</ele>
        <time>2016-01-19T12:23:48Z</time>
      </trkpt>
      <trkpt lat="45.49581" lon="6.63045">
        <ele>2346.72</ele>
        <time>2016-01-19T12:23:49Z</time>
      </trkpt>
      <trkpt lat="45.49583" lon="6.6304">
        <ele>2345.75</ele>
        <time>2016-01-19T12:23:50Z</time>
      </trkpt>
      <trkpt lat="45.49584" lon="6.63031">
        <ele>2342.39</ele>
        <time>2016-01-19T12:23:51Z</time>
      </trkpt>
      <trkpt lat="45.49584" lon="6.63025">
        <ele>2344.31</ele>
        <time>2016-01-19T12:23:52Z</time>
      </trkpt>
      <trkpt lat="45.49583" lon="6.63021">
        <ele>2343.83</ele>
        <time>2016-01-19T12:23:57Z</time>
      </trkpt>
      <trkpt lat="45.49578" lon="6.63029">
        <ele>2339.51</ele>
        <time>2016-01-19T12:24:00Z</time>
      </trkpt>
      <trkpt lat="45.49574" lon="6.63029">
        <ele>2339.51</ele>
        <time>2016-01-19T12:24:01Z</time>
      </trkpt>
      <trkpt lat="45.4957" lon="6.63019">
        <ele>2336.14</ele>
        <time>2016-01-19T12:24:04Z</time>
      </trkpt>
      <trkpt lat="45.49567" lon="6.63011">
        <ele>2333.26</ele>
        <time>2016-01-19T12:24:05Z</time>
      </trkpt>
      <trkpt lat="45.49561" lon="6.62991">
        <ele>2329.89</ele>
        <time>2016-01-19T12:24:07Z</time>
      </trkpt>
      <trkpt lat="45.49547" lon="6.62962">
        <ele>2324.12</ele>
        <time>2016-01-19T12:24:10Z</time>
      </trkpt>
      <trkpt lat="45.4954" lon="6.62949">
        <ele>2321.72</ele>
        <time>2016-01-19T12:24:11Z</time>
      </trkpt>
      <trkpt lat="45.49531" lon="6.62916">
        <ele>2317.4</ele>
        <time>2016-01-19T12:24:14Z</time>
      </trkpt>
      <trkpt lat="45.49528" lon="6.62896">
        <ele>2314.03</ele>
        <time>2016-01-19T12:24:16Z</time>
      </trkpt>
      <trkpt lat="45.49525" lon="6.62874">
        <ele>2310.19</ele>
        <time>2016-01-19T12:24:18Z</time>
      </trkpt>
      <trkpt lat="45.49523" lon="6.62853">
        <ele>2309.22</ele>
        <time>2016-01-19T12:24:20Z</time>
      </trkpt>
      <trkpt lat="45.49522" lon="6.62844">
        <ele>2308.74</ele>
        <time>2016-01-19T12:24:21Z</time>
      </trkpt>
      <trkpt lat="45.49522" lon="6.62838">
        <ele>2309.7</ele>
        <time>2016-01-19T12:24:22Z</time>
      </trkpt>
      <trkpt lat="45.49522" lon="6.62833">
        <ele>2309.7</ele>
        <time>2016-01-19T12:24:23Z</time>
      </trkpt>
      <trkpt lat="45.49522" lon="6.62828">
        <ele>2308.26</ele>
        <time>2016-01-19T12:24:24Z</time>
      </trkpt>
      <trkpt lat="45.4952" lon="6.62823">
        <ele>2308.26</ele>
        <time>2016-01-19T12:24:25Z</time>
      </trkpt>
      <trkpt lat="45.49518" lon="6.62817">
        <ele>2306.82</ele>
        <time>2016-01-19T12:24:26Z</time>
      </trkpt>
      <trkpt lat="45.49511" lon="6.62796">
        <ele>2303.46</ele>
        <time>2016-01-19T12:24:29Z</time>
      </trkpt>
      <trkpt lat="45.49509" lon="6.6279">
        <ele>2303.46</ele>
        <time>2016-01-19T12:24:30Z</time>
      </trkpt>
      <trkpt lat="45.495" lon="6.62765">
        <ele>2301.05</ele>
        <time>2016-01-19T12:24:35Z</time>
      </trkpt>
      <trkpt lat="45.49492" lon="6.62746">
        <ele>2298.65</ele>
        <time>2016-01-19T12:24:45Z</time>
      </trkpt>
      <trkpt lat="45.49492" lon="6.62743">
        <ele>2296.25</ele>
        <time>2016-01-19T12:24:46Z</time>
      </trkpt>
      <trkpt lat="45.49493" lon="6.6274">
        <ele>2293.36</ele>
        <time>2016-01-19T12:24:47Z</time>
      </trkpt>
      <trkpt lat="45.49494" lon="6.62735">
        <ele>2296.73</ele>
        <time>2016-01-19T12:24:48Z</time>
      </trkpt>
      <trkpt lat="45.49493" lon="6.62729">
        <ele>2291.44</ele>
        <time>2016-01-19T12:24:49Z</time>
      </trkpt>
      <trkpt lat="45.49492" lon="6.62723">
        <ele>2290.48</ele>
        <time>2016-01-19T12:24:50Z</time>
      </trkpt>
      <trkpt lat="45.49493" lon="6.62717">
        <ele>2292.88</ele>
        <time>2016-01-19T12:24:51Z</time>
      </trkpt>
      <trkpt lat="45.49493" lon="6.6271">
        <ele>2285.19</ele>
        <time>2016-01-19T12:24:52Z</time>
      </trkpt>
      <trkpt lat="45.49493" lon="6.62704">
        <ele>2284.23</ele>
        <time>2016-01-19T12:24:53Z</time>
      </trkpt>
      <trkpt lat="45.49495" lon="6.62698">
        <ele>2285.67</ele>
        <time>2016-01-19T12:24:54Z</time>
      </trkpt>
      <trkpt lat="45.49495" lon="6.62692">
        <ele>2281.35</ele>
        <time>2016-01-19T12:24:55Z</time>
      </trkpt>
      <trkpt lat="45.49495" lon="6.62686">
        <ele>2281.35</ele>
        <time>2016-01-19T12:24:56Z</time>
      </trkpt>
      <trkpt lat="45.49497" lon="6.6268">
        <ele>2277.98</ele>
        <time>2016-01-19T12:24:57Z</time>
      </trkpt>
      <trkpt lat="45.495" lon="6.62675">
        <ele>2277.02</ele>
        <time>2016-01-19T12:24:58Z</time>
      </trkpt>
      <trkpt lat="45.49502" lon="6.6267">
        <ele>2275.1</ele>
        <time>2016-01-19T12:24:59Z</time>
      </trkpt>
      <trkpt lat="45.49504" lon="6.62663">
        <ele>2272.69</ele>
        <time>2016-01-19T12:25:00Z</time>
      </trkpt>
      <trkpt lat="45.49506" lon="6.62656">
        <ele>2271.25</ele>
        <time>2016-01-19T12:25:01Z</time>
      </trkpt>
      <trkpt lat="45.49509" lon="6.62648">
        <ele>2268.85</ele>
        <time>2016-01-19T12:25:02Z</time>
      </trkpt>
      <trkpt lat="45.49511" lon="6.6264">
        <ele>2267.89</ele>
        <time>2016-01-19T12:25:03Z</time>
      </trkpt>
      <trkpt lat="45.49513" lon="6.62631">
        <ele>2264.52</ele>
        <time>2016-01-19T12:25:04Z</time>
      </trkpt>
      <trkpt lat="45.49518" lon="6.62611">
        <ele>2261.16</ele>
        <time>2016-01-19T12:25:06Z</time>
      </trkpt>
      <trkpt lat="45.49521" lon="6.626">
        <ele>2257.79</ele>
        <time>2016-01-19T12:25:07Z</time>
      </trkpt>
      <trkpt lat="45.49527" lon="6.62581">
        <ele>2254.43</ele>
        <time>2016-01-19T12:25:09Z</time>
      </trkpt>
      <trkpt lat="45.49534" lon="6.62557">
        <ele>2250.58</ele>
        <time>2016-01-19T12:25:12Z</time>
      </trkpt>
      <trkpt lat="45.49536" lon="6.6255">
        <ele>2250.58</ele>
        <time>2016-01-19T12:25:13Z</time>
      </trkpt>
      <trkpt lat="45.49542" lon="6.62529">
        <ele>2249.14</ele>
        <time>2016-01-19T12:25:16Z</time>
      </trkpt>
      <trkpt lat="45.49547" lon="6.62502">
        <ele>2244.82</ele>
        <time>2016-01-19T12:25:19Z</time>
      </trkpt>
      <trkpt lat="45.49554" lon="6.62462">
        <ele>2242.41</ele>
        <time>2016-01-19T12:25:23Z</time>
      </trkpt>
      <trkpt lat="45.49557" lon="6.62441">
        <ele>2239.05</ele>
        <time>2016-01-19T12:25:25Z</time>
      </trkpt>
      <trkpt lat="45.49561" lon="6.62422">
        <ele>2238.09</ele>
        <time>2016-01-19T12:25:27Z</time>
      </trkpt>
      <trkpt lat="45.49565" lon="6.62405">
        <ele>2237.61</ele>
        <time>2016-01-19T12:25:29Z</time>
      </trkpt>
      <trkpt lat="45.49567" lon="6.62387">
        <ele>2236.16</ele>
        <time>2016-01-19T12:25:31Z</time>
      </trkpt>
      <trkpt lat="45.49568" lon="6.62378">
        <ele>2236.16</ele>
        <time>2016-01-19T12:25:32Z</time>
      </trkpt>
      <trkpt lat="45.49572" lon="6.62327">
        <ele>2234.72</ele>
        <time>2016-01-19T12:25:42Z</time>
      </trkpt>
      <trkpt lat="45.49572" lon="6.62326">
        <ele>2237.13</ele>
        <time>2016-01-19T12:25:43Z</time>
      </trkpt>
      <trkpt lat="45.49573" lon="6.6232">
        <ele>2235.68</ele>
        <time>2016-01-19T12:25:54Z</time>
      </trkpt>
      <trkpt lat="45.49573" lon="6.62316">
        <ele>2237.13</ele>
        <time>2016-01-19T12:25:59Z</time>
      </trkpt>
      <trkpt lat="45.49573" lon="6.62313">
        <ele>2235.68</ele>
        <time>2016-01-19T12:26:07Z</time>
      </trkpt>
      <trkpt lat="45.49572" lon="6.62304">
        <ele>2234.72</ele>
        <time>2016-01-19T12:26:11Z</time>
      </trkpt>
      <trkpt lat="45.49573" lon="6.623">
        <ele>2234.72</ele>
        <time>2016-01-19T12:26:12Z</time>
      </trkpt>
      <trkpt lat="45.49574" lon="6.6229">
        <ele>2232.8</ele>
        <time>2016-01-19T12:26:14Z</time>
      </trkpt>
      <trkpt lat="45.49577" lon="6.62276">
        <ele>2230.4</ele>
        <time>2016-01-19T12:26:17Z</time>
      </trkpt>
      <trkpt lat="45.49576" lon="6.62271">
        <ele>2227.03</ele>
        <time>2016-01-19T12:26:18Z</time>
      </trkpt>
      <trkpt lat="45.49578" lon="6.62265">
        <ele>2228.47</ele>
        <time>2016-01-19T12:26:19Z</time>
      </trkpt>
      <trkpt lat="45.49579" lon="6.62259">
        <ele>2225.59</ele>
        <time>2016-01-19T12:26:20Z</time>
      </trkpt>
      <trkpt lat="45.4958" lon="6.62253">
        <ele>2223.19</ele>
        <time>2016-01-19T12:26:21Z</time>
      </trkpt>
      <trkpt lat="45.49582" lon="6.62246">
        <ele>2222.22</ele>
        <time>2016-01-19T12:26:22Z</time>
      </trkpt>
      <trkpt lat="45.49583" lon="6.62239">
        <ele>2217.42</ele>
        <time>2016-01-19T12:26:23Z</time>
      </trkpt>
      <trkpt lat="45.49584" lon="6.62232">
        <ele>2221.26</ele>
        <time>2016-01-19T12:26:24Z</time>
      </trkpt>
      <trkpt lat="45.49586" lon="6.62224">
        <ele>2216.46</ele>
        <time>2016-01-19T12:26:25Z</time>
      </trkpt>
      <trkpt lat="45.49587" lon="6.62218">
        <ele>2216.46</ele>
        <time>2016-01-19T12:26:26Z</time>
      </trkpt>
      <trkpt lat="45.49588" lon="6.62213">
        <ele>2215.5</ele>
        <time>2016-01-19T12:26:27Z</time>
      </trkpt>
      <trkpt lat="45.49589" lon="6.6221">
        <ele>2215.5</ele>
        <time>2016-01-19T12:26:28Z</time>
      </trkpt>
      <trkpt lat="45.49597" lon="6.622">
        <ele>2211.65</ele>
        <time>2016-01-19T12:26:33Z</time>
      </trkpt>
      <trkpt lat="45.496" lon="6.62198">
        <ele>2213.57</ele>
        <time>2016-01-19T12:26:34Z</time>
      </trkpt>
      <trkpt lat="45.4961" lon="6.62184">
        <ele>2209.73</ele>
        <time>2016-01-19T12:26:38Z</time>
      </trkpt>
      <trkpt lat="45.49622" lon="6.62165">
        <ele>2205.4</ele>
        <time>2016-01-19T12:26:45Z</time>
      </trkpt>
      <trkpt lat="45.49623" lon="6.62163">
        <ele>2205.88</ele>
        <time>2016-01-19T12:26:46Z</time>
      </trkpt>
      <trkpt lat="45.49627" lon="6.62156">
        <ele>2204.44</ele>
        <time>2016-01-19T12:26:52Z</time>
      </trkpt>
      <trkpt lat="45.49631" lon="6.62151">
        <ele>2201.56</ele>
        <time>2016-01-19T12:26:55Z</time>
      </trkpt>
      <trkpt lat="45.49641" lon="6.62139">
        <ele>2201.08</ele>
        <time>2016-01-19T12:27:05Z</time>
      </trkpt>
      <trkpt lat="45.4965" lon="6.62128">
        <ele>2199.15</ele>
        <time>2016-01-19T12:27:09Z</time>
      </trkpt>
      <trkpt lat="45.4966" lon="6.62111">
        <ele>2195.79</ele>
        <time>2016-01-19T12:27:17Z</time>
      </trkpt>
      <trkpt lat="45.49662" lon="6.62102">
        <ele>2195.79</ele>
        <time>2016-01-19T12:27:19Z</time>
      </trkpt>
      <trkpt lat="45.4966" lon="6.62096">
        <ele>2192.42</ele>
        <time>2016-01-19T12:27:20Z</time>
      </trkpt>
      <trkpt lat="45.49659" lon="6.6209">
        <ele>2190.02</ele>
        <time>2016-01-19T12:27:21Z</time>
      </trkpt>
      <trkpt lat="45.49657" lon="6.62083">
        <ele>2188.58</ele>
        <time>2016-01-19T12:27:22Z</time>
      </trkpt>
      <trkpt lat="45.49654" lon="6.62076">
        <ele>2184.25</ele>
        <time>2016-01-19T12:27:23Z</time>
      </trkpt>
      <trkpt lat="45.49652" lon="6.62066">
        <ele>2184.25</ele>
        <time>2016-01-19T12:27:24Z</time>
      </trkpt>
      <trkpt lat="45.4965" lon="6.62055">
        <ele>2181.85</ele>
        <time>2016-01-19T12:27:25Z</time>
      </trkpt>
      <trkpt lat="45.49649" lon="6.62045">
        <ele>2180.41</ele>
        <time>2016-01-19T12:27:26Z</time>
      </trkpt>
      <trkpt lat="45.49647" lon="6.62034">
        <ele>2174.64</ele>
        <time>2016-01-19T12:27:27Z</time>
      </trkpt>
      <trkpt lat="45.49644" lon="6.62023">
        <ele>2178</ele>
        <time>2016-01-19T12:27:28Z</time>
      </trkpt>
      <trkpt lat="45.49641" lon="6.62012">
        <ele>2173.2</ele>
        <time>2016-01-19T12:27:29Z</time>
      </trkpt>
      <trkpt lat="45.49637" lon="6.62002">
        <ele>2173.2</ele>
        <time>2016-01-19T12:27:30Z</time>
      </trkpt>
      <trkpt lat="45.49633" lon="6.61992">
        <ele>2169.35</ele>
        <time>2016-01-19T12:27:31Z</time>
      </trkpt>
      <trkpt lat="45.4963" lon="6.61983">
        <ele>2171.27</ele>
        <time>2016-01-19T12:27:32Z</time>
      </trkpt>
      <trkpt lat="45.49625" lon="6.6195">
        <ele>2166.47</ele>
        <time>2016-01-19T12:27:38Z</time>
      </trkpt>
      <trkpt lat="45.49626" lon="6.61938">
        <ele>2162.62</ele>
        <time>2016-01-19T12:27:40Z</time>
      </trkpt>
      <trkpt lat="45.49628" lon="6.6193">
        <ele>2161.18</ele>
        <time>2016-01-19T12:27:41Z</time>
      </trkpt>
      <trkpt lat="45.49629" lon="6.61921">
        <ele>2159.74</ele>
        <time>2016-01-19T12:27:42Z</time>
      </trkpt>
      <trkpt lat="45.49629" lon="6.61912">
        <ele>2157.82</ele>
        <time>2016-01-19T12:27:43Z</time>
      </trkpt>
      <trkpt lat="45.49629" lon="6.61903">
        <ele>2157.82</ele>
        <time>2016-01-19T12:27:44Z</time>
      </trkpt>
      <trkpt lat="45.49629" lon="6.61879">
        <ele>2155.41</ele>
        <time>2016-01-19T12:27:47Z</time>
      </trkpt>
      <trkpt lat="45.49629" lon="6.61865">
        <ele>2153.01</ele>
        <time>2016-01-19T12:27:49Z</time>
      </trkpt>
      <trkpt lat="45.49629" lon="6.61858">
        <ele>2152.05</ele>
        <time>2016-01-19T12:27:50Z</time>
      </trkpt>
      <trkpt lat="45.49629" lon="6.61838">
        <ele>2148.2</ele>
        <time>2016-01-19T12:27:53Z</time>
      </trkpt>
      <trkpt lat="45.49627" lon="6.61833">
        <ele>2146.76</ele>
        <time>2016-01-19T12:27:54Z</time>
      </trkpt>
      <trkpt lat="45.49626" lon="6.61832">
        <ele>2146.28</ele>
        <time>2016-01-19T12:28:03Z</time>
      </trkpt>
      <trkpt lat="45.49625" lon="6.6183">
        <ele>2146.28</ele>
        <time>2016-01-19T12:28:10Z</time>
      </trkpt>
      <trkpt lat="45.49624" lon="6.61828">
        <ele>2146.28</ele>
        <time>2016-01-19T12:28:11Z</time>
      </trkpt>
      <trkpt lat="45.49624" lon="6.61824">
        <ele>2144.36</ele>
        <time>2016-01-19T12:28:12Z</time>
      </trkpt>
      <trkpt lat="45.49624" lon="6.61819">
        <ele>2144.36</ele>
        <time>2016-01-19T12:28:13Z</time>
      </trkpt>
      <trkpt lat="45.49623" lon="6.61814">
        <ele>2142.44</ele>
        <time>2016-01-19T12:28:14Z</time>
      </trkpt>
      <trkpt lat="45.49622" lon="6.61808">
        <ele>2141.95</ele>
        <time>2016-01-19T12:28:15Z</time>
      </trkpt>
      <trkpt lat="45.49623" lon="6.61802">
        <ele>2138.11</ele>
        <time>2016-01-19T12:28:16Z</time>
      </trkpt>
      <trkpt lat="45.49626" lon="6.61795">
        <ele>2138.11</ele>
        <time>2016-01-19T12:28:17Z</time>
      </trkpt>
      <trkpt lat="45.49629" lon="6.61787">
        <ele>2133.3</ele>
        <time>2016-01-19T12:28:18Z</time>
      </trkpt>
      <trkpt lat="45.49632" lon="6.61779">
        <ele>2133.3</ele>
        <time>2016-01-19T12:28:19Z</time>
      </trkpt>
      <trkpt lat="45.49636" lon="6.61771">
        <ele>2128.02</ele>
        <time>2016-01-19T12:28:20Z</time>
      </trkpt>
      <trkpt lat="45.49644" lon="6.61759">
        <ele>2125.13</ele>
        <time>2016-01-19T12:28:22Z</time>
      </trkpt>
      <trkpt lat="45.4965" lon="6.61748">
        <ele>2121.77</ele>
        <time>2016-01-19T12:28:24Z</time>
      </trkpt>
      <trkpt lat="45.49648" lon="6.61745">
        <ele>2121.77</ele>
        <time>2016-01-19T12:28:25Z</time>
      </trkpt>
      <trkpt lat="45.49643" lon="6.61736">
        <ele>2117.92</ele>
        <time>2016-01-19T12:28:28Z</time>
      </trkpt>
      <trkpt lat="45.49644" lon="6.61731">
        <ele>2116.96</ele>
        <time>2016-01-19T12:28:29Z</time>
      </trkpt>
      <trkpt lat="45.49643" lon="6.61719">
        <ele>2111.19</ele>
        <time>2016-01-19T12:28:31Z</time>
      </trkpt>
      <trkpt lat="45.49644" lon="6.61712">
        <ele>2111.19</ele>
        <time>2016-01-19T12:28:32Z</time>
      </trkpt>
      <trkpt lat="45.49646" lon="6.61707">
        <ele>2109.27</ele>
        <time>2016-01-19T12:28:33Z</time>
      </trkpt>
      <trkpt lat="45.49649" lon="6.61703">
        <ele>2106.87</ele>
        <time>2016-01-19T12:28:34Z</time>
      </trkpt>
      <trkpt lat="45.49654" lon="6.617">
        <ele>2103.5</ele>
        <time>2016-01-19T12:28:35Z</time>
      </trkpt>
      <trkpt lat="45.49664" lon="6.61696">
        <ele>2101.1</ele>
        <time>2016-01-19T12:28:37Z</time>
      </trkpt>
      <trkpt lat="45.49673" lon="6.61695">
        <ele>2096.29</ele>
        <time>2016-01-19T12:28:39Z</time>
      </trkpt>
      <trkpt lat="45.49674" lon="6.61696">
        <ele>2099.66</ele>
        <time>2016-01-19T12:28:41Z</time>
      </trkpt>
      <trkpt lat="45.49673" lon="6.617">
        <ele>2099.66</ele>
        <time>2016-01-19T12:28:50Z</time>
      </trkpt>
      <trkpt lat="45.49677" lon="6.61697">
        <ele>2097.73</ele>
        <time>2016-01-19T12:28:52Z</time>
      </trkpt>
      <trkpt lat="45.49681" lon="6.61695">
        <ele>2095.81</ele>
        <time>2016-01-19T12:28:53Z</time>
      </trkpt>
      <trkpt lat="45.49689" lon="6.61697">
        <ele>2093.41</ele>
        <time>2016-01-19T12:28:57Z</time>
      </trkpt>
      <trkpt lat="45.49694" lon="6.61698">
        <ele>2091.49</ele>
        <time>2016-01-19T12:28:59Z</time>
      </trkpt>
      <trkpt lat="45.49704" lon="6.61702">
        <ele>2089.56</ele>
        <time>2016-01-19T12:29:04Z</time>
      </trkpt>
      <trkpt lat="45.49712" lon="6.61705">
        <ele>2087.16</ele>
        <time>2016-01-19T12:29:09Z</time>
      </trkpt>
      <trkpt lat="45.49725" lon="6.61708">
        <ele>2083.79</ele>
        <time>2016-01-19T12:29:15Z</time>
      </trkpt>
      <trkpt lat="45.4973" lon="6.61709">
        <ele>2084.76</ele>
        <time>2016-01-19T12:29:16Z</time>
      </trkpt>
      <trkpt lat="45.49738" lon="6.61712">
        <ele>2082.35</ele>
        <time>2016-01-19T12:29:18Z</time>
      </trkpt>
      <trkpt lat="45.49743" lon="6.61712">
        <ele>2081.39</ele>
        <time>2016-01-19T12:29:19Z</time>
      </trkpt>
      <trkpt lat="45.49747" lon="6.61712">
        <ele>2080.43</ele>
        <time>2016-01-19T12:29:20Z</time>
      </trkpt>
      <trkpt lat="45.49752" lon="6.61711">
        <ele>2080.43</ele>
        <time>2016-01-19T12:29:21Z</time>
      </trkpt>
      <trkpt lat="45.49756" lon="6.61712">
        <ele>2079.47</ele>
        <time>2016-01-19T12:29:22Z</time>
      </trkpt>
      <trkpt lat="45.49759" lon="6.61713">
        <ele>2079.47</ele>
        <time>2016-01-19T12:29:23Z</time>
      </trkpt>
      <trkpt lat="45.49762" lon="6.61714">
        <ele>2079.47</ele>
        <time>2016-01-19T12:29:24Z</time>
      </trkpt>
      <trkpt lat="45.49764" lon="6.61716">
        <ele>2080.91</ele>
        <time>2016-01-19T12:29:27Z</time>
      </trkpt>
      <trkpt lat="45.49769" lon="6.61718">
        <ele>2079.47</ele>
        <time>2016-01-19T12:29:35Z</time>
      </trkpt>
      <trkpt lat="45.49773" lon="6.61721">
        <ele>2078.03</ele>
        <time>2016-01-19T12:29:40Z</time>
      </trkpt>
      <trkpt lat="45.49774" lon="6.61721">
        <ele>2080.91</ele>
        <time>2016-01-19T12:29:41Z</time>
      </trkpt>
      <trkpt lat="45.49778" lon="6.61723">
        <ele>2077.55</ele>
        <time>2016-01-19T12:29:44Z</time>
      </trkpt>
      <trkpt lat="45.49796" lon="6.61731">
        <ele>2077.55</ele>
        <time>2016-01-19T12:29:56Z</time>
      </trkpt>
      <trkpt lat="45.49808" lon="6.61735">
        <ele>2074.66</ele>
        <time>2016-01-19T12:29:59Z</time>
      </trkpt>
      <trkpt lat="45.49818" lon="6.61738">
        <ele>2073.22</ele>
        <time>2016-01-19T12:30:01Z</time>
      </trkpt>
      <trkpt lat="45.49834" lon="6.6174">
        <ele>2071.3</ele>
        <time>2016-01-19T12:30:04Z</time>
      </trkpt>
      <trkpt lat="45.49845" lon="6.61742">
        <ele>2069.86</ele>
        <time>2016-01-19T12:30:06Z</time>
      </trkpt>
      <trkpt lat="45.49851" lon="6.61745">
        <ele>2068.41</ele>
        <time>2016-01-19T12:30:07Z</time>
      </trkpt>
      <trkpt lat="45.49856" lon="6.61747">
        <ele>2068.41</ele>
        <time>2016-01-19T12:30:08Z</time>
      </trkpt>
      <trkpt lat="45.49884" lon="6.61753">
        <ele>2066.97</ele>
        <time>2016-01-19T12:30:15Z</time>
      </trkpt>
      <trkpt lat="45.49889" lon="6.61752">
        <ele>2065.53</ele>
        <time>2016-01-19T12:30:16Z</time>
      </trkpt>
      <trkpt lat="45.49895" lon="6.61753">
        <ele>2065.05</ele>
        <time>2016-01-19T12:30:17Z</time>
      </trkpt>
      <trkpt lat="45.49901" lon="6.61753">
        <ele>2063.61</ele>
        <time>2016-01-19T12:30:18Z</time>
      </trkpt>
      <trkpt lat="45.49906" lon="6.61754">
        <ele>2063.13</ele>
        <time>2016-01-19T12:30:19Z</time>
      </trkpt>
      <trkpt lat="45.49913" lon="6.61756">
        <ele>2062.17</ele>
        <time>2016-01-19T12:30:20Z</time>
      </trkpt>
      <trkpt lat="45.49919" lon="6.61759">
        <ele>2062.17</ele>
        <time>2016-01-19T12:30:21Z</time>
      </trkpt>
      <trkpt lat="45.49925" lon="6.61762">
        <ele>2060.72</ele>
        <time>2016-01-19T12:30:22Z</time>
      </trkpt>
      <trkpt lat="45.4993" lon="6.61765">
        <ele>2060.72</ele>
        <time>2016-01-19T12:30:23Z</time>
      </trkpt>
      <trkpt lat="45.49954" lon="6.61779">
        <ele>2058.32</ele>
        <time>2016-01-19T12:30:28Z</time>
      </trkpt>
      <trkpt lat="45.49972" lon="6.61793">
        <ele>2056.88</ele>
        <time>2016-01-19T12:30:32Z</time>
      </trkpt>
      <trkpt lat="45.49993" lon="6.61801">
        <ele>2055.92</ele>
        <time>2016-01-19T12:30:41Z</time>
      </trkpt>
      <trkpt lat="45.49997" lon="6.618">
        <ele>2055.44</ele>
        <time>2016-01-19T12:30:59Z</time>
      </trkpt>
      <trkpt lat="45.49997" lon="6.61801">
        <ele>2056.88</ele>
        <time>2016-01-19T12:31:03Z</time>
      </trkpt>
      <trkpt lat="45.49999" lon="6.61802">
        <ele>2056.88</ele>
        <time>2016-01-19T12:31:23Z</time>
      </trkpt>
      <trkpt lat="45.49998" lon="6.61802">
        <ele>2056.88</ele>
        <time>2016-01-19T12:31:46Z</time>
      </trkpt>
      <trkpt lat="45.49999" lon="6.61803">
        <ele>2057.36</ele>
        <time>2016-01-19T12:32:02Z</time>
      </trkpt>
      <trkpt lat="45.50001" lon="6.61805">
        <ele>2055.92</ele>
        <time>2016-01-19T12:32:05Z</time>
      </trkpt>
      <trkpt lat="45.50003" lon="6.61806">
        <ele>2055.92</ele>
        <time>2016-01-19T12:32:06Z</time>
      </trkpt>
      <trkpt lat="45.5002" lon="6.61817">
        <ele>2053.51</ele>
        <time>2016-01-19T12:32:13Z</time>
      </trkpt>
      <trkpt lat="45.50028" lon="6.61822">
        <ele>2052.07</ele>
        <time>2016-01-19T12:32:15Z</time>
      </trkpt>
      <trkpt lat="45.50055" lon="6.61839">
        <ele>2048.71</ele>
        <time>2016-01-19T12:32:25Z</time>
      </trkpt>
      <trkpt lat="45.50075" lon="6.61858">
        <ele>2047.26</ele>
        <time>2016-01-19T12:32:36Z</time>
      </trkpt>
      <trkpt lat="45.50077" lon="6.61857">
        <ele>2047.26</ele>
        <time>2016-01-19T12:33:01Z</time>
      </trkpt>
      <trkpt lat="45.50077" lon="6.61855">
        <ele>2046.78</ele>
        <time>2016-01-19T12:33:17Z</time>
      </trkpt>
      <trkpt lat="45.50077" lon="6.61851">
        <ele>2047.26</ele>
        <time>2016-01-19T12:33:21Z</time>
      </trkpt>
      <trkpt lat="45.5008" lon="6.6185">
        <ele>2041.02</ele>
        <time>2016-01-19T12:33:22Z</time>
      </trkpt>
      <trkpt lat="45.50082" lon="6.6185">
        <ele>2042.94</ele>
        <time>2016-01-19T12:33:23Z</time>
      </trkpt>
      <trkpt lat="45.50087" lon="6.61849">
        <ele>2040.05</ele>
        <time>2016-01-19T12:33:25Z</time>
      </trkpt>
      <trkpt lat="45.50099" lon="6.61847">
        <ele>2037.65</ele>
        <time>2016-01-19T12:33:28Z</time>
      </trkpt>
      <trkpt lat="45.50107" lon="6.61846">
        <ele>2035.25</ele>
        <time>2016-01-19T12:33:37Z</time>
      </trkpt>
      <trkpt lat="45.5011" lon="6.61848">
        <ele>2038.61</ele>
        <time>2016-01-19T12:33:47Z</time>
      </trkpt>
      <trkpt lat="45.50112" lon="6.61846">
        <ele>2035.25</ele>
        <time>2016-01-19T12:33:52Z</time>
      </trkpt>
      <trkpt lat="45.50112" lon="6.61847">
        <ele>2038.61</ele>
        <time>2016-01-19T12:33:53Z</time>
      </trkpt>
      <trkpt lat="45.50114" lon="6.61847">
        <ele>2034.77</ele>
        <time>2016-01-19T12:33:54Z</time>
      </trkpt>
      <trkpt lat="45.50118" lon="6.61844">
        <ele>2032.84</ele>
        <time>2016-01-19T12:33:56Z</time>
      </trkpt>
      <trkpt lat="45.50119" lon="6.61841">
        <ele>2035.25</ele>
        <time>2016-01-19T12:33:57Z</time>
      </trkpt>
      <trkpt lat="45.50119" lon="6.61836">
        <ele>2026.12</ele>
        <time>2016-01-19T12:33:58Z</time>
      </trkpt>
      <trkpt lat="45.50121" lon="6.61834">
        <ele>2033.33</ele>
        <time>2016-01-19T12:33:59Z</time>
      </trkpt>
      <trkpt lat="45.50123" lon="6.61829">
        <ele>2026.12</ele>
        <time>2016-01-19T12:34:00Z</time>
      </trkpt>
      <trkpt lat="45.50125" lon="6.61825">
        <ele>2019.87</ele>
        <time>2016-01-19T12:34:01Z</time>
      </trkpt>
      <trkpt lat="45.50128" lon="6.61821">
        <ele>2020.83</ele>
        <time>2016-01-19T12:34:02Z</time>
      </trkpt>
      <trkpt lat="45.50131" lon="6.61816">
        <ele>2020.35</ele>
        <time>2016-01-19T12:34:03Z</time>
      </trkpt>
      <trkpt lat="45.50138" lon="6.61797">
        <ele>2002.56</ele>
        <time>2016-01-19T12:34:06Z</time>
      </trkpt>
      <trkpt lat="45.50144" lon="6.61788">
        <ele>2011.7</ele>
        <time>2016-01-19T12:34:07Z</time>
      </trkpt>
      <trkpt lat="45.50145" lon="6.61784">
        <ele>2004.49</ele>
        <time>2016-01-19T12:34:08Z</time>
      </trkpt>
      <trkpt lat="45.50148" lon="6.61779">
        <ele>2000.64</ele>
        <time>2016-01-19T12:34:09Z</time>
      </trkpt>
      <trkpt lat="45.50151" lon="6.61775">
        <ele>2002.08</ele>
        <time>2016-01-19T12:34:10Z</time>
      </trkpt>
      <trkpt lat="45.5015" lon="6.61771">
        <ele>1996.8</ele>
        <time>2016-01-19T12:34:11Z</time>
      </trkpt>
      <trkpt lat="45.50149" lon="6.61771">
        <ele>1998.24</ele>
        <time>2016-01-19T12:34:12Z</time>
      </trkpt>
      <trkpt lat="45.50146" lon="6.61774">
        <ele>1998.72</ele>
        <time>2016-01-19T12:34:26Z</time>
      </trkpt>
      <trkpt lat="45.50146" lon="6.61776">
        <ele>1998.72</ele>
        <time>2016-01-19T12:34:54Z</time>
      </trkpt>
      <trkpt lat="45.50146" lon="6.61775">
        <ele>1998.72</ele>
        <time>2016-01-19T12:35:19Z</time>
      </trkpt>
      <trkpt lat="45.50147" lon="6.61773">
        <ele>1999.2</ele>
        <time>2016-01-19T12:35:36Z</time>
      </trkpt>
      <trkpt lat="45.50145" lon="6.61775">
        <ele>1999.68</ele>
        <time>2016-01-19T12:35:59Z</time>
      </trkpt>
      <trkpt lat="45.50144" lon="6.61775">
        <ele>1999.68</ele>
        <time>2016-01-19T12:36:28Z</time>
      </trkpt>
      <trkpt lat="45.50145" lon="6.61776">
        <ele>1999.68</ele>
        <time>2016-01-19T12:36:51Z</time>
      </trkpt>
      <trkpt lat="45.50146" lon="6.61778">
        <ele>1999.2</ele>
        <time>2016-01-19T12:37:16Z</time>
      </trkpt>
      <trkpt lat="45.50146" lon="6.61777">
        <ele>1999.2</ele>
        <time>2016-01-19T12:37:47Z</time>
      </trkpt>
      <trkpt lat="45.50146" lon="6.61774">
        <ele>1999.2</ele>
        <time>2016-01-19T12:38:06Z</time>
      </trkpt>
      <trkpt lat="45.50146" lon="6.61774">
        <ele>2000.64</ele>
        <time>2016-01-19T12:38:09Z</time>
      </trkpt>
      <trkpt lat="45.50144" lon="6.61775">
        <ele>1999.2</ele>
        <time>2016-01-19T12:38:41Z</time>
      </trkpt>
      <trkpt lat="45.50144" lon="6.61774">
        <ele>2000.16</ele>
        <time>2016-01-19T12:39:04Z</time>
      </trkpt>
      <trkpt lat="45.50145" lon="6.61773">
        <ele>1999.2</ele>
        <time>2016-01-19T12:39:35Z</time>
      </trkpt>
      <trkpt lat="45.50145" lon="6.61773">
        <ele>1998.72</ele>
        <time>2016-01-19T12:39:52Z</time>
      </trkpt>
      <trkpt lat="45.50145" lon="6.61773">
        <ele>1998.72</ele>
        <time>2016-01-19T12:40:22Z</time>
      </trkpt>
      <trkpt lat="45.50145" lon="6.61775">
        <ele>1999.68</ele>
        <time>2016-01-19T12:40:45Z</time>
      </trkpt>
      <trkpt lat="45.50145" lon="6.61777">
        <ele>1998.72</ele>
        <time>2016-01-19T12:41:17Z</time>
      </trkpt>
      <trkpt lat="45.50143" lon="6.61775">
        <ele>1998.72</ele>
        <time>2016-01-19T12:41:48Z</time>
      </trkpt>
      <trkpt lat="45.50145" lon="6.61775">
        <ele>1998.72</ele>
        <time>2016-01-19T12:42:06Z</time>
      </trkpt>
      <trkpt lat="45.50144" lon="6.61776">
        <ele>1998.72</ele>
        <time>2016-01-19T12:42:33Z</time>
      </trkpt>
      <trkpt lat="45.50144" lon="6.61776">
        <ele>1998.72</ele>
        <time>2016-01-19T12:42:59Z</time>
      </trkpt>
      <trkpt lat="45.50144" lon="6.61776">
        <ele>1998.24</ele>
        <time>2016-01-19T12:43:21Z</time>
      </trkpt>
      <trkpt lat="45.50144" lon="6.61774">
        <ele>1998.24</ele>
        <time>2016-01-19T12:43:48Z</time>
      </trkpt>
      <trkpt lat="45.50144" lon="6.61777">
        <ele>1998.72</ele>
        <time>2016-01-19T12:44:14Z</time>
      </trkpt>
      <trkpt lat="45.50145" lon="6.61778">
        <ele>1999.68</ele>
        <time>2016-01-19T12:44:45Z</time>
      </trkpt>
      <trkpt lat="45.50145" lon="6.61778">
        <ele>1998.24</ele>
        <time>2016-01-19T12:44:47Z</time>
      </trkpt>
      <trkpt lat="45.50146" lon="6.61776">
        <ele>1998.24</ele>
        <time>2016-01-19T12:45:10Z</time>
      </trkpt>
      <trkpt lat="45.50145" lon="6.61774">
        <ele>1998.72</ele>
        <time>2016-01-19T12:45:45Z</time>
      </trkpt>
      <trkpt lat="45.50145" lon="6.61774">
        <ele>1998.72</ele>
        <time>2016-01-19T12:46:12Z</time>
      </trkpt>
      <trkpt lat="45.50144" lon="6.61776">
        <ele>1998.72</ele>
        <time>2016-01-19T12:46:36Z</time>
      </trkpt>
      <trkpt lat="45.50145" lon="6.61778">
        <ele>1998.72</ele>
        <time>2016-01-19T12:47:08Z</time>
      </trkpt>
      <trkpt lat="45.50145" lon="6.61776">
        <ele>1998.72</ele>
        <time>2016-01-19T12:47:34Z</time>
      </trkpt>
      <trkpt lat="45.50145" lon="6.61776">
        <ele>1998.72</ele>
        <time>2016-01-19T12:47:54Z</time>
      </trkpt>
      <trkpt lat="45.50144" lon="6.61781">
        <ele>1998.72</ele>
        <time>2016-01-19T12:48:25Z</time>
      </trkpt>
      <trkpt lat="45.50145" lon="6.61777">
        <ele>1998.72</ele>
        <time>2016-01-19T12:48:30Z</time>
      </trkpt>
      <trkpt lat="45.50144" lon="6.61766">
        <ele>1995.35</ele>
        <time>2016-01-19T12:48:33Z</time>
      </trkpt>
      <trkpt lat="45.50147" lon="6.61754">
        <ele>1991.51</ele>
        <time>2016-01-19T12:48:35Z</time>
      </trkpt>
      <trkpt lat="45.50151" lon="6.61748">
        <ele>1988.14</ele>
        <time>2016-01-19T12:48:36Z</time>
      </trkpt>
      <trkpt lat="45.50156" lon="6.61735">
        <ele>1983.34</ele>
        <time>2016-01-19T12:48:38Z</time>
      </trkpt>
      <trkpt lat="45.5016" lon="6.61725">
        <ele>1981.41</ele>
        <time>2016-01-19T12:48:39Z</time>
      </trkpt>
      <trkpt lat="45.50166" lon="6.61697">
        <ele>1975.17</ele>
        <time>2016-01-19T12:48:42Z</time>
      </trkpt>
      <trkpt lat="45.50167" lon="6.61672">
        <ele>1971.32</ele>
        <time>2016-01-19T12:48:46Z</time>
      </trkpt>
      <trkpt lat="45.50164" lon="6.61668">
        <ele>1968.44</ele>
        <time>2016-01-19T12:48:47Z</time>
      </trkpt>
      <trkpt lat="45.50157" lon="6.61655">
        <ele>1964.59</ele>
        <time>2016-01-19T12:48:49Z</time>
      </trkpt>
      <trkpt lat="45.50155" lon="6.61648">
        <ele>1964.59</ele>
        <time>2016-01-19T12:48:50Z</time>
      </trkpt>
      <trkpt lat="45.5016" lon="6.61639">
        <ele>1961.71</ele>
        <time>2016-01-19T12:48:52Z</time>
      </trkpt>
      <trkpt lat="45.50164" lon="6.61636">
        <ele>1959.3</ele>
        <time>2016-01-19T12:48:53Z</time>
      </trkpt>
      <trkpt lat="45.50167" lon="6.61631">
        <ele>1954.5</ele>
        <time>2016-01-19T12:48:54Z</time>
      </trkpt>
      <trkpt lat="45.5017" lon="6.61625">
        <ele>1955.94</ele>
        <time>2016-01-19T12:48:55Z</time>
      </trkpt>
      <trkpt lat="45.50174" lon="6.6162">
        <ele>1955.94</ele>
        <time>2016-01-19T12:48:56Z</time>
      </trkpt>
      <trkpt lat="45.50178" lon="6.61616">
        <ele>1954.5</ele>
        <time>2016-01-19T12:48:57Z</time>
      </trkpt>
      <trkpt lat="45.50183" lon="6.61613">
        <ele>1953.54</ele>
        <time>2016-01-19T12:48:58Z</time>
      </trkpt>
      <trkpt lat="45.50188" lon="6.61612">
        <ele>1953.54</ele>
        <time>2016-01-19T12:48:59Z</time>
      </trkpt>
      <trkpt lat="45.50193" lon="6.61614">
        <ele>1953.06</ele>
        <time>2016-01-19T12:49:00Z</time>
      </trkpt>
      <trkpt lat="45.50198" lon="6.61614">
        <ele>1952.57</ele>
        <time>2016-01-19T12:49:01Z</time>
      </trkpt>
      <trkpt lat="45.50203" lon="6.61614">
        <ele>1951.61</ele>
        <time>2016-01-19T12:49:02Z</time>
      </trkpt>
      <trkpt lat="45.50207" lon="6.61613">
        <ele>1951.13</ele>
        <time>2016-01-19T12:49:03Z</time>
      </trkpt>
      <trkpt lat="45.50212" lon="6.61611">
        <ele>1951.13</ele>
        <time>2016-01-19T12:49:04Z</time>
      </trkpt>
      <trkpt lat="45.5024" lon="6.61599">
        <ele>1947.77</ele>
        <time>2016-01-19T12:49:11Z</time>
      </trkpt>
      <trkpt lat="45.50259" lon="6.61607">
        <ele>1945.36</ele>
        <time>2016-01-19T12:49:16Z</time>
      </trkpt>
      <trkpt lat="45.50264" lon="6.61609">
        <ele>1944.4</ele>
        <time>2016-01-19T12:49:17Z</time>
      </trkpt>
      <trkpt lat="45.50281" lon="6.61609">
        <ele>1941.04</ele>
        <time>2016-01-19T12:49:21Z</time>
      </trkpt>
      <trkpt lat="45.50286" lon="6.6161">
        <ele>1941.04</ele>
        <time>2016-01-19T12:49:22Z</time>
      </trkpt>
      <trkpt lat="45.5029" lon="6.61612">
        <ele>1941.04</ele>
        <time>2016-01-19T12:49:23Z</time>
      </trkpt>
      <trkpt lat="45.50294" lon="6.61615">
        <ele>1940.08</ele>
        <time>2016-01-19T12:49:24Z</time>
      </trkpt>
      <trkpt lat="45.50296" lon="6.61618">
        <ele>1942</ele>
        <time>2016-01-19T12:49:25Z</time>
      </trkpt>
      <trkpt lat="45.50299" lon="6.61621">
        <ele>1940.08</ele>
        <time>2016-01-19T12:49:26Z</time>
      </trkpt>
      <trkpt lat="45.50302" lon="6.61624">
        <ele>1938.64</ele>
        <time>2016-01-19T12:49:27Z</time>
      </trkpt>
      <trkpt lat="45.50306" lon="6.61626">
        <ele>1938.64</ele>
        <time>2016-01-19T12:49:28Z</time>
      </trkpt>
      <trkpt lat="45.5031" lon="6.61626">
        <ele>1938.16</ele>
        <time>2016-01-19T12:49:29Z</time>
      </trkpt>
      <trkpt lat="45.50314" lon="6.61626">
        <ele>1938.16</ele>
        <time>2016-01-19T12:49:30Z</time>
      </trkpt>
      <trkpt lat="45.50318" lon="6.61625">
        <ele>1938.16</ele>
        <time>2016-01-19T12:49:31Z</time>
      </trkpt>
      <trkpt lat="45.50323" lon="6.61623">
        <ele>1937.19</ele>
        <time>2016-01-19T12:49:32Z</time>
      </trkpt>
      <trkpt lat="45.50332" lon="6.61617">
        <ele>1936.23</ele>
        <time>2016-01-19T12:49:34Z</time>
      </trkpt>
      <trkpt lat="45.50336" lon="6.61614">
        <ele>1935.75</ele>
        <time>2016-01-19T12:49:35Z</time>
      </trkpt>
      <trkpt lat="45.50339" lon="6.6161">
        <ele>1934.79</ele>
        <time>2016-01-19T12:49:36Z</time>
      </trkpt>
      <trkpt lat="45.50349" lon="6.6159">
        <ele>1933.83</ele>
        <time>2016-01-19T12:49:40Z</time>
      </trkpt>
      <trkpt lat="45.50357" lon="6.61559">
        <ele>1933.35</ele>
        <time>2016-01-19T12:49:50Z</time>
      </trkpt>
      <trkpt lat="45.50358" lon="6.61556">
        <ele>1932.39</ele>
        <time>2016-01-19T12:49:53Z</time>
      </trkpt>
      <trkpt lat="45.5036" lon="6.61551">
        <ele>1935.75</ele>
        <time>2016-01-19T12:49:58Z</time>
      </trkpt>
      <trkpt lat="45.5036" lon="6.6155">
        <ele>1930.46</ele>
        <time>2016-01-19T12:49:59Z</time>
      </trkpt>
      <trkpt lat="45.5036" lon="6.61549">
        <ele>1936.23</ele>
        <time>2016-01-19T12:50:00Z</time>
      </trkpt>
      <trkpt lat="45.5036" lon="6.61547">
        <ele>1933.35</ele>
        <time>2016-01-19T12:50:02Z</time>
      </trkpt>
      <trkpt lat="45.5036" lon="6.61546">
        <ele>1933.35</ele>
        <time>2016-01-19T12:50:03Z</time>
      </trkpt>
      <trkpt lat="45.5036" lon="6.61537">
        <ele>1933.83</ele>
        <time>2016-01-19T12:50:09Z</time>
      </trkpt>
      <trkpt lat="45.50351" lon="6.61506">
        <ele>1931.91</ele>
        <time>2016-01-19T12:50:22Z</time>
      </trkpt>
      <trkpt lat="45.50349" lon="6.61501">
        <ele>1931.43</ele>
        <time>2016-01-19T12:50:35Z</time>
      </trkpt>
      <trkpt lat="45.5035" lon="6.61501">
        <ele>1932.87</ele>
        <time>2016-01-19T12:50:39Z</time>
      </trkpt>
      <trkpt lat="45.5035" lon="6.61501">
        <ele>1931.43</ele>
        <time>2016-01-19T12:50:41Z</time>
      </trkpt>
      <trkpt lat="45.5035" lon="6.61499">
        <ele>1931.43</ele>
        <time>2016-01-19T12:50:43Z</time>
      </trkpt>
      <trkpt lat="45.5035" lon="6.61497">
        <ele>1931.43</ele>
        <time>2016-01-19T12:50:44Z</time>
      </trkpt>
      <trkpt lat="45.5035" lon="6.61495">
        <ele>1931.43</ele>
        <time>2016-01-19T12:50:45Z</time>
      </trkpt>
      <trkpt lat="45.5035" lon="6.61491">
        <ele>1930.95</ele>
        <time>2016-01-19T12:50:46Z</time>
      </trkpt>
      <trkpt lat="45.50351" lon="6.61487">
        <ele>1929.98</ele>
        <time>2016-01-19T12:50:47Z</time>
      </trkpt>
      <trkpt lat="45.50352" lon="6.61483">
        <ele>1929.98</ele>
        <time>2016-01-19T12:50:48Z</time>
      </trkpt>
      <trkpt lat="45.50356" lon="6.61459">
        <ele>1925.18</ele>
        <time>2016-01-19T12:50:51Z</time>
      </trkpt>
      <trkpt lat="45.50357" lon="6.6145">
        <ele>1924.7</ele>
        <time>2016-01-19T12:50:52Z</time>
      </trkpt>
      <trkpt lat="45.50356" lon="6.61441">
        <ele>1923.25</ele>
        <time>2016-01-19T12:50:53Z</time>
      </trkpt>
      <trkpt lat="45.50355" lon="6.61434">
        <ele>1923.25</ele>
        <time>2016-01-19T12:50:54Z</time>
      </trkpt>
      <trkpt lat="45.50353" lon="6.61427">
        <ele>1922.29</ele>
        <time>2016-01-19T12:50:55Z</time>
      </trkpt>
      <trkpt lat="45.50352" lon="6.6142">
        <ele>1922.29</ele>
        <time>2016-01-19T12:50:56Z</time>
      </trkpt>
      <trkpt lat="45.50351" lon="6.61414">
        <ele>1922.29</ele>
        <time>2016-01-19T12:50:57Z</time>
      </trkpt>
      <trkpt lat="45.50351" lon="6.61408">
        <ele>1921.81</ele>
        <time>2016-01-19T12:50:58Z</time>
      </trkpt>
      <trkpt lat="45.50352" lon="6.61405">
        <ele>1921.81</ele>
        <time>2016-01-19T12:50:59Z</time>
      </trkpt>
      <trkpt lat="45.50353" lon="6.61403">
        <ele>1921.81</ele>
        <time>2016-01-19T12:51:00Z</time>
      </trkpt>
      <trkpt lat="45.50355" lon="6.61402">
        <ele>1921.81</ele>
        <time>2016-01-19T12:51:01Z</time>
      </trkpt>
      <trkpt lat="45.50356" lon="6.61401">
        <ele>1921.81</ele>
        <time>2016-01-19T12:51:02Z</time>
      </trkpt>
      <trkpt lat="45.50358" lon="6.614">
        <ele>1921.81</ele>
        <time>2016-01-19T12:51:03Z</time>
      </trkpt>
      <trkpt lat="45.50363" lon="6.61401">
        <ele>1920.85</ele>
        <time>2016-01-19T12:51:15Z</time>
      </trkpt>
      <trkpt lat="45.50363" lon="6.61403">
        <ele>1924.22</ele>
        <time>2016-01-19T12:51:21Z</time>
      </trkpt>
      <trkpt lat="45.50364" lon="6.61403">
        <ele>1919.41</ele>
        <time>2016-01-19T12:51:22Z</time>
      </trkpt>
      <trkpt lat="45.50364" lon="6.61403">
        <ele>1922.77</ele>
        <time>2016-01-19T12:51:23Z</time>
      </trkpt>
      <trkpt lat="45.50365" lon="6.61406">
        <ele>1922.77</ele>
        <time>2016-01-19T12:51:35Z</time>
      </trkpt>
      <trkpt lat="45.50365" lon="6.61405">
        <ele>1922.77</ele>
        <time>2016-01-19T12:51:58Z</time>
      </trkpt>
      <trkpt lat="45.50366" lon="6.61405">
        <ele>1922.77</ele>
        <time>2016-01-19T12:52:25Z</time>
      </trkpt>
      <trkpt lat="45.50366" lon="6.61405">
        <ele>1922.29</ele>
        <time>2016-01-19T12:52:59Z</time>
      </trkpt>
      <trkpt lat="45.50366" lon="6.61407">
        <ele>1922.29</ele>
        <time>2016-01-19T12:53:24Z</time>
      </trkpt>
      <trkpt lat="45.50367" lon="6.61405">
        <ele>1923.25</ele>
        <time>2016-01-19T12:53:36Z</time>
      </trkpt>
      <trkpt lat="45.50369" lon="6.61403">
        <ele>1923.25</ele>
        <time>2016-01-19T12:53:37Z</time>
      </trkpt>
      <trkpt lat="45.50375" lon="6.61397">
        <ele>1921.81</ele>
        <time>2016-01-19T12:53:39Z</time>
      </trkpt>
      <trkpt lat="45.50379" lon="6.61396">
        <ele>1917.97</ele>
        <time>2016-01-19T12:53:40Z</time>
      </trkpt>
      <trkpt lat="45.50381" lon="6.61396">
        <ele>1917.97</ele>
        <time>2016-01-19T12:53:41Z</time>
      </trkpt>
      <trkpt lat="45.5039" lon="6.61394">
        <ele>1914.12</ele>
        <time>2016-01-19T12:53:44Z</time>
      </trkpt>
      <trkpt lat="45.50397" lon="6.61388">
        <ele>1911.72</ele>
        <time>2016-01-19T12:53:46Z</time>
      </trkpt>
      <trkpt lat="45.50407" lon="6.61389">
        <ele>1908.83</ele>
        <time>2016-01-19T12:53:48Z</time>
      </trkpt>
      <trkpt lat="45.50412" lon="6.61391">
        <ele>1906.43</ele>
        <time>2016-01-19T12:53:49Z</time>
      </trkpt>
      <trkpt lat="45.50416" lon="6.61392">
        <ele>1906.43</ele>
        <time>2016-01-19T12:53:50Z</time>
      </trkpt>
      <trkpt lat="45.50428" lon="6.61389">
        <ele>1901.14</ele>
        <time>2016-01-19T12:53:52Z</time>
      </trkpt>
      <trkpt lat="45.50449" lon="6.61387">
        <ele>1893.93</ele>
        <time>2016-01-19T12:53:55Z</time>
      </trkpt>
      <trkpt lat="45.50457" lon="6.61388">
        <ele>1893.45</ele>
        <time>2016-01-19T12:53:56Z</time>
      </trkpt>
      <trkpt lat="45.50462" lon="6.61389">
        <ele>1893.93</ele>
        <time>2016-01-19T12:53:57Z</time>
      </trkpt>
      <trkpt lat="45.50467" lon="6.6139">
        <ele>1890.09</ele>
        <time>2016-01-19T12:53:58Z</time>
      </trkpt>
      <trkpt lat="45.50472" lon="6.61389">
        <ele>1892.97</ele>
        <time>2016-01-19T12:53:59Z</time>
      </trkpt>
      <trkpt lat="45.50476" lon="6.61388">
        <ele>1891.53</ele>
        <time>2016-01-19T12:54:00Z</time>
      </trkpt>
      <trkpt lat="45.50495" lon="6.61385">
        <ele>1885.76</ele>
        <time>2016-01-19T12:54:03Z</time>
      </trkpt>
      <trkpt lat="45.50517" lon="6.61376">
        <ele>1879.51</ele>
        <time>2016-01-19T12:54:06Z</time>
      </trkpt>
      <trkpt lat="45.50522" lon="6.61373">
        <ele>1880.96</ele>
        <time>2016-01-19T12:54:07Z</time>
      </trkpt>
      <trkpt lat="45.50526" lon="6.61371">
        <ele>1879.51</ele>
        <time>2016-01-19T12:54:08Z</time>
      </trkpt>
      <trkpt lat="45.50531" lon="6.61373">
        <ele>1880</ele>
        <time>2016-01-19T12:54:12Z</time>
      </trkpt>
      <trkpt lat="45.50531" lon="6.61373">
        <ele>1882.88</ele>
        <time>2016-01-19T12:54:18Z</time>
      </trkpt>
      <trkpt lat="45.50532" lon="6.61373">
        <ele>1882.88</ele>
        <time>2016-01-19T12:54:45Z</time>
      </trkpt>
      <trkpt lat="45.50533" lon="6.61373">
        <ele>1882.88</ele>
        <time>2016-01-19T12:54:47Z</time>
      </trkpt>
      <trkpt lat="45.50542" lon="6.61372">
        <ele>1878.07</ele>
        <time>2016-01-19T12:54:50Z</time>
      </trkpt>
      <trkpt lat="45.50553" lon="6.61367">
        <ele>1874.23</ele>
        <time>2016-01-19T12:54:52Z</time>
      </trkpt>
      <trkpt lat="45.50577" lon="6.6136">
        <ele>1865.58</ele>
        <time>2016-01-19T12:54:55Z</time>
      </trkpt>
      <trkpt lat="45.50584" lon="6.61358">
        <ele>1865.58</ele>
        <time>2016-01-19T12:54:56Z</time>
      </trkpt>
      <trkpt lat="45.50591" lon="6.61353">
        <ele>1863.17</ele>
        <time>2016-01-19T12:54:57Z</time>
      </trkpt>
      <trkpt lat="45.50596" lon="6.61347">
        <ele>1858.37</ele>
        <time>2016-01-19T12:54:58Z</time>
      </trkpt>
      <trkpt lat="45.50602" lon="6.6134">
        <ele>1858.37</ele>
        <time>2016-01-19T12:54:59Z</time>
      </trkpt>
      <trkpt lat="45.50608" lon="6.61333">
        <ele>1856.44</ele>
        <time>2016-01-19T12:55:00Z</time>
      </trkpt>
      <trkpt lat="45.50614" lon="6.61327">
        <ele>1856.44</ele>
        <time>2016-01-19T12:55:01Z</time>
      </trkpt>
      <trkpt lat="45.50631" lon="6.61314">
        <ele>1855</ele>
        <time>2016-01-19T12:55:04Z</time>
      </trkpt>
      <trkpt lat="45.50636" lon="6.6131">
        <ele>1855</ele>
        <time>2016-01-19T12:55:05Z</time>
      </trkpt>
      <trkpt lat="45.50644" lon="6.61303">
        <ele>1852.6</ele>
        <time>2016-01-19T12:55:07Z</time>
      </trkpt>
      <trkpt lat="45.50649" lon="6.61299">
        <ele>1848.27</ele>
        <time>2016-01-19T12:55:08Z</time>
      </trkpt>
      <trkpt lat="45.50655" lon="6.61296">
        <ele>1848.27</ele>
        <time>2016-01-19T12:55:09Z</time>
      </trkpt>
      <trkpt lat="45.50661" lon="6.61293">
        <ele>1846.35</ele>
        <time>2016-01-19T12:55:10Z</time>
      </trkpt>
      <trkpt lat="45.50677" lon="6.61288">
        <ele>1841.06</ele>
        <time>2016-01-19T12:55:12Z</time>
      </trkpt>
      <trkpt lat="45.50692" lon="6.61288">
        <ele>1838.18</ele>
        <time>2016-01-19T12:55:14Z</time>
      </trkpt>
      <trkpt lat="45.507" lon="6.6129">
        <ele>1834.81</ele>
        <time>2016-01-19T12:55:15Z</time>
      </trkpt>
      <trkpt lat="45.50705" lon="6.61294">
        <ele>1832.41</ele>
        <time>2016-01-19T12:55:16Z</time>
      </trkpt>
      <trkpt lat="45.50709" lon="6.61299">
        <ele>1832.41</ele>
        <time>2016-01-19T12:55:17Z</time>
      </trkpt>
      <trkpt lat="45.50708" lon="6.61302">
        <ele>1830.97</ele>
        <time>2016-01-19T12:55:19Z</time>
      </trkpt>
      <trkpt lat="45.50708" lon="6.61303">
        <ele>1829.53</ele>
        <time>2016-01-19T12:55:20Z</time>
      </trkpt>
      <trkpt lat="45.50708" lon="6.61305">
        <ele>1830.01</ele>
        <time>2016-01-19T12:55:21Z</time>
      </trkpt>
      <trkpt lat="45.50709" lon="6.61311">
        <ele>1828.08</ele>
        <time>2016-01-19T12:55:23Z</time>
      </trkpt>
      <trkpt lat="45.5071" lon="6.61321">
        <ele>1824.24</ele>
        <time>2016-01-19T12:55:25Z</time>
      </trkpt>
      <trkpt lat="45.5071" lon="6.6133">
        <ele>1824.72</ele>
        <time>2016-01-19T12:55:29Z</time>
      </trkpt>
      <trkpt lat="45.50711" lon="6.61336">
        <ele>1824.72</ele>
        <time>2016-01-19T12:55:33Z</time>
      </trkpt>
      <trkpt lat="45.50715" lon="6.61334">
        <ele>1822.32</ele>
        <time>2016-01-19T12:55:35Z</time>
      </trkpt>
      <trkpt lat="45.50718" lon="6.61334">
        <ele>1820.87</ele>
        <time>2016-01-19T12:55:36Z</time>
      </trkpt>
      <trkpt lat="45.5072" lon="6.61335">
        <ele>1818.47</ele>
        <time>2016-01-19T12:55:37Z</time>
      </trkpt>
      <trkpt lat="45.50723" lon="6.61335">
        <ele>1817.03</ele>
        <time>2016-01-19T12:55:38Z</time>
      </trkpt>
      <trkpt lat="45.50727" lon="6.61332">
        <ele>1817.03</ele>
        <time>2016-01-19T12:55:39Z</time>
      </trkpt>
      <trkpt lat="45.50733" lon="6.61327">
        <ele>1812.22</ele>
        <time>2016-01-19T12:55:41Z</time>
      </trkpt>
      <trkpt lat="45.50736" lon="6.61326">
        <ele>1812.22</ele>
        <time>2016-01-19T12:55:42Z</time>
      </trkpt>
      <trkpt lat="45.50745" lon="6.61319">
        <ele>1808.86</ele>
        <time>2016-01-19T12:55:45Z</time>
      </trkpt>
      <trkpt lat="45.50747" lon="6.61317">
        <ele>1808.86</ele>
        <time>2016-01-19T12:55:46Z</time>
      </trkpt>
      <trkpt lat="45.50753" lon="6.61318">
        <ele>1810.3</ele>
        <time>2016-01-19T12:55:51Z</time>
      </trkpt>
      <trkpt lat="45.50758" lon="6.6132">
        <ele>1805.97</ele>
        <time>2016-01-19T12:55:53Z</time>
      </trkpt>
      <trkpt lat="45.50761" lon="6.61321">
        <ele>1805.01</ele>
        <time>2016-01-19T12:55:54Z</time>
      </trkpt>
      <trkpt lat="45.50764" lon="6.61323">
        <ele>1801.65</ele>
        <time>2016-01-19T12:55:55Z</time>
      </trkpt>
      <trkpt lat="45.50767" lon="6.61322">
        <ele>1803.09</ele>
        <time>2016-01-19T12:55:56Z</time>
      </trkpt>
      <trkpt lat="45.5077" lon="6.61321">
        <ele>1800.21</ele>
        <time>2016-01-19T12:55:57Z</time>
      </trkpt>
      <trkpt lat="45.50776" lon="6.61322">
        <ele>1799.73</ele>
        <time>2016-01-19T12:55:59Z</time>
      </trkpt>
      <trkpt lat="45.5078" lon="6.61323">
        <ele>1798.28</ele>
        <time>2016-01-19T12:56:00Z</time>
      </trkpt>
      <trkpt lat="45.50786" lon="6.61324">
        <ele>1794.44</ele>
        <time>2016-01-19T12:56:01Z</time>
      </trkpt>
      <trkpt lat="45.50791" lon="6.61326">
        <ele>1793.96</ele>
        <time>2016-01-19T12:56:02Z</time>
      </trkpt>
      <trkpt lat="45.50795" lon="6.61329">
        <ele>1793.48</ele>
        <time>2016-01-19T12:56:03Z</time>
      </trkpt>
      <trkpt lat="45.508" lon="6.61331">
        <ele>1792.03</ele>
        <time>2016-01-19T12:56:04Z</time>
      </trkpt>
      <trkpt lat="45.50804" lon="6.61333">
        <ele>1791.07</ele>
        <time>2016-01-19T12:56:05Z</time>
      </trkpt>
      <trkpt lat="45.50806" lon="6.61335">
        <ele>1790.59</ele>
        <time>2016-01-19T12:56:06Z</time>
      </trkpt>
      <trkpt lat="45.5081" lon="6.61336">
        <ele>1789.63</ele>
        <time>2016-01-19T12:56:07Z</time>
      </trkpt>
      <trkpt lat="45.50813" lon="6.61337">
        <ele>1787.71</ele>
        <time>2016-01-19T12:56:08Z</time>
      </trkpt>
      <trkpt lat="45.50816" lon="6.6134">
        <ele>1788.67</ele>
        <time>2016-01-19T12:56:09Z</time>
      </trkpt>
      <trkpt lat="45.50827" lon="6.61364">
        <ele>1787.71</ele>
        <time>2016-01-19T12:56:16Z</time>
      </trkpt>
      <trkpt lat="45.50827" lon="6.61366">
        <ele>1787.23</ele>
        <time>2016-01-19T12:56:17Z</time>
      </trkpt>
      <trkpt lat="45.50827" lon="6.61368">
        <ele>1787.23</ele>
        <time>2016-01-19T12:56:18Z</time>
      </trkpt>
      <trkpt lat="45.50828" lon="6.61371">
        <ele>1786.75</ele>
        <time>2016-01-19T12:56:19Z</time>
      </trkpt>
      <trkpt lat="45.50829" lon="6.61376">
        <ele>1786.75</ele>
        <time>2016-01-19T12:56:20Z</time>
      </trkpt>
      <trkpt lat="45.50831" lon="6.6138">
        <ele>1785.79</ele>
        <time>2016-01-19T12:56:21Z</time>
      </trkpt>
      <trkpt lat="45.50833" lon="6.61384">
        <ele>1785.31</ele>
        <time>2016-01-19T12:56:22Z</time>
      </trkpt>
      <trkpt lat="45.50837" lon="6.6139">
        <ele>1784.82</ele>
        <time>2016-01-19T12:56:24Z</time>
      </trkpt>
      <trkpt lat="45.50843" lon="6.61402">
        <ele>1783.38</ele>
        <time>2016-01-19T12:56:27Z</time>
      </trkpt>
      <trkpt lat="45.50848" lon="6.61412">
        <ele>1781.94</ele>
        <time>2016-01-19T12:56:29Z</time>
      </trkpt>
      <trkpt lat="45.50857" lon="6.61428">
        <ele>1779.06</ele>
        <time>2016-01-19T12:56:32Z</time>
      </trkpt>
      <trkpt lat="45.5086" lon="6.61433">
        <ele>1778.58</ele>
        <time>2016-01-19T12:56:33Z</time>
      </trkpt>
      <trkpt lat="45.50863" lon="6.61439">
        <ele>1777.61</ele>
        <time>2016-01-19T12:56:34Z</time>
      </trkpt>
      <trkpt lat="45.50877" lon="6.61461">
        <ele>1775.21</ele>
        <time>2016-01-19T12:56:38Z</time>
      </trkpt>
      <trkpt lat="45.50887" lon="6.6148">
        <ele>1772.33</ele>
        <time>2016-01-19T12:56:41Z</time>
      </trkpt>
      <trkpt lat="45.50897" lon="6.61492">
        <ele>1770.89</ele>
        <time>2016-01-19T12:56:43Z</time>
      </trkpt>
      <trkpt lat="45.50903" lon="6.61497">
        <ele>1768.96</ele>
        <time>2016-01-19T12:56:44Z</time>
      </trkpt>
      <trkpt lat="45.50909" lon="6.61502">
        <ele>1768</ele>
        <time>2016-01-19T12:56:45Z</time>
      </trkpt>
      <trkpt lat="45.50914" lon="6.61507">
        <ele>1767.04</ele>
        <time>2016-01-19T12:56:46Z</time>
      </trkpt>
      <trkpt lat="45.50919" lon="6.61513">
        <ele>1767.04</ele>
        <time>2016-01-19T12:56:47Z</time>
      </trkpt>
      <trkpt lat="45.50943" lon="6.61536">
        <ele>1764.16</ele>
        <time>2016-01-19T12:56:52Z</time>
      </trkpt>
      <trkpt lat="45.50958" lon="6.61549">
        <ele>1762.71</ele>
        <time>2016-01-19T12:56:55Z</time>
      </trkpt>
      <trkpt lat="45.50968" lon="6.61556">
        <ele>1761.27</ele>
        <time>2016-01-19T12:56:57Z</time>
      </trkpt>
      <trkpt lat="45.50972" lon="6.6156">
        <ele>1760.79</ele>
        <time>2016-01-19T12:56:58Z</time>
      </trkpt>
      <trkpt lat="45.50976" lon="6.61563">
        <ele>1760.79</ele>
        <time>2016-01-19T12:56:59Z</time>
      </trkpt>
      <trkpt lat="45.5098" lon="6.61566">
        <ele>1760.79</ele>
        <time>2016-01-19T12:57:00Z</time>
      </trkpt>
      <trkpt lat="45.50983" lon="6.61569">
        <ele>1759.83</ele>
        <time>2016-01-19T12:57:01Z</time>
      </trkpt>
      <trkpt lat="45.51" lon="6.61589">
        <ele>1757.43</ele>
        <time>2016-01-19T12:57:06Z</time>
      </trkpt>
      <trkpt lat="45.51025" lon="6.61612">
        <ele>1754.06</ele>
        <time>2016-01-19T12:57:13Z</time>
      </trkpt>
      <trkpt lat="45.51059" lon="6.61648">
        <ele>1750.7</ele>
        <time>2016-01-19T12:57:25Z</time>
      </trkpt>
      <trkpt lat="45.51079" lon="6.61668">
        <ele>1747.33</ele>
        <time>2016-01-19T12:57:32Z</time>
      </trkpt>
      <trkpt lat="45.51105" lon="6.61704">
        <ele>1743.97</ele>
        <time>2016-01-19T12:57:43Z</time>
      </trkpt>
      <trkpt lat="45.51106" lon="6.61704">
        <ele>1745.89</ele>
        <time>2016-01-19T12:57:44Z</time>
      </trkpt>
      <trkpt lat="45.51108" lon="6.61701">
        <ele>1743.97</ele>
        <time>2016-01-19T12:57:45Z</time>
      </trkpt>
      <trkpt lat="45.51109" lon="6.61699">
        <ele>1744.45</ele>
        <time>2016-01-19T12:57:46Z</time>
      </trkpt>
      <trkpt lat="45.5111" lon="6.61695">
        <ele>1743.49</ele>
        <time>2016-01-19T12:57:47Z</time>
      </trkpt>
      <trkpt lat="45.51109" lon="6.61692">
        <ele>1743.49</ele>
        <time>2016-01-19T12:57:48Z</time>
      </trkpt>
      <trkpt lat="45.51108" lon="6.61688">
        <ele>1743.01</ele>
        <time>2016-01-19T12:57:49Z</time>
      </trkpt>
      <trkpt lat="45.51107" lon="6.61685">
        <ele>1743.01</ele>
        <time>2016-01-19T12:57:50Z</time>
      </trkpt>
      <trkpt lat="45.51105" lon="6.61681">
        <ele>1742.53</ele>
        <time>2016-01-19T12:57:51Z</time>
      </trkpt>
      <trkpt lat="45.51104" lon="6.61677">
        <ele>1741.57</ele>
        <time>2016-01-19T12:57:52Z</time>
      </trkpt>
      <trkpt lat="45.51102" lon="6.61673">
        <ele>1741.57</ele>
        <time>2016-01-19T12:57:53Z</time>
      </trkpt>
      <trkpt lat="45.51089" lon="6.61643">
        <ele>1739.16</ele>
        <time>2016-01-19T12:58:01Z</time>
      </trkpt>
      <trkpt lat="45.51076" lon="6.61611">
        <ele>1735.32</ele>
        <time>2016-01-19T12:58:11Z</time>
      </trkpt>
      <trkpt lat="45.51075" lon="6.61607">
        <ele>1738.68</ele>
        <time>2016-01-19T12:58:12Z</time>
      </trkpt>
      <trkpt lat="45.51073" lon="6.61604">
        <ele>1734.36</ele>
        <time>2016-01-19T12:58:13Z</time>
      </trkpt>
      <trkpt lat="45.51065" lon="6.61588">
        <ele>1734.36</ele>
        <time>2016-01-19T12:58:17Z</time>
      </trkpt>
      <trkpt lat="45.51055" lon="6.61564">
        <ele>1732.91</ele>
        <time>2016-01-19T12:58:23Z</time>
      </trkpt>
      <trkpt lat="45.51055" lon="6.6156">
        <ele>1732.43</ele>
        <time>2016-01-19T12:58:24Z</time>
      </trkpt>
      <trkpt lat="45.51057" lon="6.61557">
        <ele>1731.95</ele>
        <time>2016-01-19T12:58:25Z</time>
      </trkpt>
      <trkpt lat="45.51059" lon="6.61557">
        <ele>1731.95</ele>
        <time>2016-01-19T12:58:26Z</time>
      </trkpt>
      <trkpt lat="45.51061" lon="6.61557">
        <ele>1731.95</ele>
        <time>2016-01-19T12:58:27Z</time>
      </trkpt>
      <trkpt lat="45.51063" lon="6.61558">
        <ele>1730.99</ele>
        <time>2016-01-19T12:58:28Z</time>
      </trkpt>
      <trkpt lat="45.51073" lon="6.61571">
        <ele>1728.59</ele>
        <time>2016-01-19T12:58:38Z</time>
      </trkpt>
      <trkpt lat="45.51078" lon="6.6157">
        <ele>1725.22</ele>
        <time>2016-01-19T12:58:48Z</time>
      </trkpt>
      <trkpt lat="45.5108" lon="6.61564">
        <ele>1724.26</ele>
        <time>2016-01-19T12:58:50Z</time>
      </trkpt>
      <trkpt lat="45.51085" lon="6.61556">
        <ele>1723.3</ele>
        <time>2016-01-19T12:58:52Z</time>
      </trkpt>
      <trkpt lat="45.51092" lon="6.61548">
        <ele>1720.42</ele>
        <time>2016-01-19T12:58:54Z</time>
      </trkpt>
      <trkpt lat="45.51098" lon="6.61545">
        <ele>1718.01</ele>
        <time>2016-01-19T12:58:56Z</time>
      </trkpt>
      <trkpt lat="45.51105" lon="6.61545">
        <ele>1714.65</ele>
        <time>2016-01-19T12:58:59Z</time>
      </trkpt>
      <trkpt lat="45.51107" lon="6.61544">
        <ele>1714.65</ele>
        <time>2016-01-19T12:59:00Z</time>
      </trkpt>
      <trkpt lat="45.51108" lon="6.61545">
        <ele>1714.65</ele>
        <time>2016-01-19T12:59:01Z</time>
      </trkpt>
      <trkpt lat="45.51111" lon="6.61548">
        <ele>1713.69</ele>
        <time>2016-01-19T12:59:06Z</time>
      </trkpt>
      <trkpt lat="45.51116" lon="6.61552">
        <ele>1712.73</ele>
        <time>2016-01-19T12:59:10Z</time>
      </trkpt>
      <trkpt lat="45.5112" lon="6.61554">
        <ele>1710.32</ele>
        <time>2016-01-19T12:59:12Z</time>
      </trkpt>
      <trkpt lat="45.51124" lon="6.61559">
        <ele>1709.84</ele>
        <time>2016-01-19T12:59:15Z</time>
      </trkpt>
      <trkpt lat="45.51135" lon="6.61559">
        <ele>1706</ele>
        <time>2016-01-19T12:59:19Z</time>
      </trkpt>
      <trkpt lat="45.51137" lon="6.61554">
        <ele>1702.63</ele>
        <time>2016-01-19T12:59:21Z</time>
      </trkpt>
      <trkpt lat="45.51139" lon="6.61551">
        <ele>1700.23</ele>
        <time>2016-01-19T12:59:22Z</time>
      </trkpt>
      <trkpt lat="45.51142" lon="6.61549">
        <ele>1702.15</ele>
        <time>2016-01-19T12:59:25Z</time>
      </trkpt>
      <trkpt lat="45.51143" lon="6.61549">
        <ele>1698.79</ele>
        <time>2016-01-19T12:59:26Z</time>
      </trkpt>
      <trkpt lat="45.51143" lon="6.61548">
        <ele>1700.23</ele>
        <time>2016-01-19T12:59:27Z</time>
      </trkpt>
      <trkpt lat="45.51143" lon="6.61538">
        <ele>1696.38</ele>
        <time>2016-01-19T12:59:32Z</time>
      </trkpt>
      <trkpt lat="45.51145" lon="6.61533">
        <ele>1696.86</ele>
        <time>2016-01-19T12:59:35Z</time>
      </trkpt>
      <trkpt lat="45.51149" lon="6.61534">
        <ele>1694.46</ele>
        <time>2016-01-19T12:59:39Z</time>
      </trkpt>
      <trkpt lat="45.51155" lon="6.61537">
        <ele>1692.06</ele>
        <time>2016-01-19T12:59:42Z</time>
      </trkpt>
      <trkpt lat="45.51166" lon="6.61541">
        <ele>1690.14</ele>
        <time>2016-01-19T12:59:46Z</time>
      </trkpt>
      <trkpt lat="45.51173" lon="6.61544">
        <ele>1688.21</ele>
        <time>2016-01-19T12:59:48Z</time>
      </trkpt>
      <trkpt lat="45.51179" lon="6.61546">
        <ele>1685.33</ele>
        <time>2016-01-19T12:59:50Z</time>
      </trkpt>
      <trkpt lat="45.51185" lon="6.61553">
        <ele>1684.85</ele>
        <time>2016-01-19T12:59:54Z</time>
      </trkpt>
      <trkpt lat="45.51191" lon="6.61547">
        <ele>1681.96</ele>
        <time>2016-01-19T13:00:03Z</time>
      </trkpt>
      <trkpt lat="45.5119" lon="6.61542">
        <ele>1682.93</ele>
        <time>2016-01-19T13:00:19Z</time>
      </trkpt>
      <trkpt lat="45.5119" lon="6.61542">
        <ele>1682.93</ele>
        <time>2016-01-19T13:00:20Z</time>
      </trkpt>
      <trkpt lat="45.51197" lon="6.61546">
        <ele>1680.04</ele>
        <time>2016-01-19T13:00:31Z</time>
      </trkpt>
      <trkpt lat="45.512" lon="6.61554">
        <ele>1680.52</ele>
        <time>2016-01-19T13:00:35Z</time>
      </trkpt>
      <trkpt lat="45.51217" lon="6.61576">
        <ele>1675.72</ele>
        <time>2016-01-19T13:00:43Z</time>
      </trkpt>
      <trkpt lat="45.51227" lon="6.61594">
        <ele>1673.79</ele>
        <time>2016-01-19T13:00:48Z</time>
      </trkpt>
      <trkpt lat="45.51243" lon="6.61603">
        <ele>1670.91</ele>
        <time>2016-01-19T13:00:53Z</time>
      </trkpt>
      <trkpt lat="45.51247" lon="6.61605">
        <ele>1668.51</ele>
        <time>2016-01-19T13:00:54Z</time>
      </trkpt>
      <trkpt lat="45.51263" lon="6.61624">
        <ele>1666.58</ele>
        <time>2016-01-19T13:00:59Z</time>
      </trkpt>
      <trkpt lat="45.51269" lon="6.61628">
        <ele>1668.51</ele>
        <time>2016-01-19T13:01:04Z</time>
      </trkpt>
      <trkpt lat="45.51271" lon="6.61627">
        <ele>1668.51</ele>
        <time>2016-01-19T13:01:05Z</time>
      </trkpt>
      <trkpt lat="45.51272" lon="6.61621">
        <ele>1664.66</ele>
        <time>2016-01-19T13:01:07Z</time>
      </trkpt>
      <trkpt lat="45.51273" lon="6.61614">
        <ele>1661.78</ele>
        <time>2016-01-19T13:01:09Z</time>
      </trkpt>
      <trkpt lat="45.51277" lon="6.61608">
        <ele>1657.93</ele>
        <time>2016-01-19T13:01:12Z</time>
      </trkpt>
      <trkpt lat="45.51278" lon="6.616">
        <ele>1654.09</ele>
        <time>2016-01-19T13:01:14Z</time>
      </trkpt>
      <trkpt lat="45.51277" lon="6.61592">
        <ele>1652.64</ele>
        <time>2016-01-19T13:01:16Z</time>
      </trkpt>
      <trkpt lat="45.51282" lon="6.61567">
        <ele>1649.76</ele>
        <time>2016-01-19T13:01:22Z</time>
      </trkpt>
      <trkpt lat="45.51286" lon="6.61556">
        <ele>1648.32</ele>
        <time>2016-01-19T13:01:24Z</time>
      </trkpt>
      <trkpt lat="45.51289" lon="6.61548">
        <ele>1644.95</ele>
        <time>2016-01-19T13:01:29Z</time>
      </trkpt>
      <trkpt lat="45.51291" lon="6.61548">
        <ele>1644.95</ele>
        <time>2016-01-19T13:01:30Z</time>
      </trkpt>
      <trkpt lat="45.51302" lon="6.61549">
        <ele>1641.59</ele>
        <time>2016-01-19T13:01:34Z</time>
      </trkpt>
      <trkpt lat="45.51316" lon="6.61547">
        <ele>1637.26</ele>
        <time>2016-01-19T13:01:38Z</time>
      </trkpt>
      <trkpt lat="45.51329" lon="6.61551">
        <ele>1636.78</ele>
        <time>2016-01-19T13:01:40Z</time>
      </trkpt>
      <trkpt lat="45.51342" lon="6.61553">
        <ele>1634.38</ele>
        <time>2016-01-19T13:01:44Z</time>
      </trkpt>
      <trkpt lat="45.51346" lon="6.61554">
        <ele>1635.82</ele>
        <time>2016-01-19T13:01:46Z</time>
      </trkpt>
      <trkpt lat="45.51346" lon="6.61553">
        <ele>1634.86</ele>
        <time>2016-01-19T13:01:47Z</time>
      </trkpt>
      <trkpt lat="45.51349" lon="6.61547">
        <ele>1633.42</ele>
        <time>2016-01-19T13:01:49Z</time>
      </trkpt>
      <trkpt lat="45.51358" lon="6.61548">
        <ele>1630.53</ele>
        <time>2016-01-19T13:01:52Z</time>
      </trkpt>
      <trkpt lat="45.51367" lon="6.61548">
        <ele>1627.17</ele>
        <time>2016-01-19T13:01:54Z</time>
      </trkpt>
      <trkpt lat="45.51376" lon="6.61551">
        <ele>1625.25</ele>
        <time>2016-01-19T13:01:56Z</time>
      </trkpt>
      <trkpt lat="45.5138" lon="6.61553">
        <ele>1624.77</ele>
        <time>2016-01-19T13:01:57Z</time>
      </trkpt>
      <trkpt lat="45.51388" lon="6.61555">
        <ele>1620.92</ele>
        <time>2016-01-19T13:01:59Z</time>
      </trkpt>
      <trkpt lat="45.51386" lon="6.61553">
        <ele>1620.92</ele>
        <time>2016-01-19T13:02:00Z</time>
      </trkpt>
      <trkpt lat="45.51381" lon="6.61535">
        <ele>1620.92</ele>
        <time>2016-01-19T13:02:04Z</time>
      </trkpt>
      <trkpt lat="45.51367" lon="6.61485">
        <ele>1617.07</ele>
        <time>2016-01-19T13:02:13Z</time>
      </trkpt>
      <trkpt lat="45.51369" lon="6.61477">
        <ele>1616.59</ele>
        <time>2016-01-19T13:02:14Z</time>
      </trkpt>
      <trkpt lat="45.51371" lon="6.61474">
        <ele>1616.59</ele>
        <time>2016-01-19T13:02:15Z</time>
      </trkpt>
      <trkpt lat="45.51375" lon="6.61473">
        <ele>1616.59</ele>
        <time>2016-01-19T13:02:16Z</time>
      </trkpt>
      <trkpt lat="45.51386" lon="6.61474">
        <ele>1613.23</ele>
        <time>2016-01-19T13:02:21Z</time>
      </trkpt>
      <trkpt lat="45.51394" lon="6.61481">
        <ele>1614.67</ele>
        <time>2016-01-19T13:02:23Z</time>
      </trkpt>
      <trkpt lat="45.51398" lon="6.61485">
        <ele>1612.75</ele>
        <time>2016-01-19T13:02:24Z</time>
      </trkpt>
      <trkpt lat="45.51402" lon="6.6149">
        <ele>1612.75</ele>
        <time>2016-01-19T13:02:25Z</time>
      </trkpt>
      <trkpt lat="45.51406" lon="6.61494">
        <ele>1611.79</ele>
        <time>2016-01-19T13:02:26Z</time>
      </trkpt>
      <trkpt lat="45.51429" lon="6.61527">
        <ele>1607.46</ele>
        <time>2016-01-19T13:02:32Z</time>
      </trkpt>
      <trkpt lat="45.51449" lon="6.61558">
        <ele>1605.06</ele>
        <time>2016-01-19T13:02:38Z</time>
      </trkpt>
      <trkpt lat="45.51468" lon="6.61585">
        <ele>1601.69</ele>
        <time>2016-01-19T13:02:43Z</time>
      </trkpt>
      <trkpt lat="45.51479" lon="6.616">
        <ele>1599.29</ele>
        <time>2016-01-19T13:02:46Z</time>
      </trkpt>
      <trkpt lat="45.51482" lon="6.61606">
        <ele>1598.81</ele>
        <time>2016-01-19T13:02:47Z</time>
      </trkpt>
      <trkpt lat="45.51486" lon="6.61609">
        <ele>1598.33</ele>
        <time>2016-01-19T13:02:48Z</time>
      </trkpt>
      <trkpt lat="45.51494" lon="6.61616">
        <ele>1597.37</ele>
        <time>2016-01-19T13:02:50Z</time>
      </trkpt>
      <trkpt lat="45.51497" lon="6.61621">
        <ele>1596.41</ele>
        <time>2016-01-19T13:02:51Z</time>
      </trkpt>
      <trkpt lat="45.51503" lon="6.61633">
        <ele>1595.45</ele>
        <time>2016-01-19T13:02:53Z</time>
      </trkpt>
      <trkpt lat="45.51522" lon="6.61669">
        <ele>1593.04</ele>
        <time>2016-01-19T13:02:59Z</time>
      </trkpt>
      <trkpt lat="45.51525" lon="6.61676">
        <ele>1592.56</ele>
        <time>2016-01-19T13:03:00Z</time>
      </trkpt>
      <trkpt lat="45.51527" lon="6.61676">
        <ele>1592.56</ele>
        <time>2016-01-19T13:03:01Z</time>
      </trkpt>
      <trkpt lat="45.51527" lon="6.61674">
        <ele>1592.08</ele>
        <time>2016-01-19T13:03:02Z</time>
      </trkpt>
      <trkpt lat="45.51526" lon="6.6167">
        <ele>1592.08</ele>
        <time>2016-01-19T13:03:03Z</time>
      </trkpt>
      <trkpt lat="45.51525" lon="6.61666">
        <ele>1592.08</ele>
        <time>2016-01-19T13:03:04Z</time>
      </trkpt>
      <trkpt lat="45.51524" lon="6.61663">
        <ele>1591.6</ele>
        <time>2016-01-19T13:03:05Z</time>
      </trkpt>
      <trkpt lat="45.5152" lon="6.61645">
        <ele>1590.16</ele>
        <time>2016-01-19T13:03:10Z</time>
      </trkpt>
      <trkpt lat="45.51508" lon="6.61608">
        <ele>1586.79</ele>
        <time>2016-01-19T13:03:19Z</time>
      </trkpt>
      <trkpt lat="45.515" lon="6.61569">
        <ele>1581.51</ele>
        <time>2016-01-19T13:03:28Z</time>
      </trkpt>
      <trkpt lat="45.51499" lon="6.61554">
        <ele>1582.47</ele>
        <time>2016-01-19T13:03:31Z</time>
      </trkpt>
      <trkpt lat="45.51498" lon="6.61547">
        <ele>1582.47</ele>
        <time>2016-01-19T13:03:32Z</time>
      </trkpt>
      <trkpt lat="45.51498" lon="6.61541">
        <ele>1581.03</ele>
        <time>2016-01-19T13:03:33Z</time>
      </trkpt>
      <trkpt lat="45.51495" lon="6.61528">
        <ele>1579.58</ele>
        <time>2016-01-19T13:03:35Z</time>
      </trkpt>
      <trkpt lat="45.51494" lon="6.61522">
        <ele>1579.1</ele>
        <time>2016-01-19T13:03:36Z</time>
      </trkpt>
      <trkpt lat="45.51486" lon="6.6149">
        <ele>1575.74</ele>
        <time>2016-01-19T13:03:41Z</time>
      </trkpt>
      <trkpt lat="45.51485" lon="6.61484">
        <ele>1575.74</ele>
        <time>2016-01-19T13:03:42Z</time>
      </trkpt>
      <trkpt lat="45.51486" lon="6.61478">
        <ele>1574.78</ele>
        <time>2016-01-19T13:03:43Z</time>
      </trkpt>
      <trkpt lat="45.51488" lon="6.61465">
        <ele>1573.82</ele>
        <time>2016-01-19T13:03:45Z</time>
      </trkpt>
      <trkpt lat="45.5149" lon="6.61459">
        <ele>1573.82</ele>
        <time>2016-01-19T13:03:46Z</time>
      </trkpt>
      <trkpt lat="45.51492" lon="6.61453">
        <ele>1572.37</ele>
        <time>2016-01-19T13:03:47Z</time>
      </trkpt>
      <trkpt lat="45.51494" lon="6.61447">
        <ele>1572.37</ele>
        <time>2016-01-19T13:03:48Z</time>
      </trkpt>
      <trkpt lat="45.51497" lon="6.61441">
        <ele>1571.41</ele>
        <time>2016-01-19T13:03:49Z</time>
      </trkpt>
      <trkpt lat="45.51504" lon="6.61422">
        <ele>1569.49</ele>
        <time>2016-01-19T13:03:52Z</time>
      </trkpt>
      <trkpt lat="45.51505" lon="6.61414">
        <ele>1568.53</ele>
        <time>2016-01-19T13:03:53Z</time>
      </trkpt>
      <trkpt lat="45.51513" lon="6.61363">
        <ele>1566.12</ele>
        <time>2016-01-19T13:04:00Z</time>
      </trkpt>
      <trkpt lat="45.5152" lon="6.61331">
        <ele>1565.16</ele>
        <time>2016-01-19T13:04:07Z</time>
      </trkpt>
      <trkpt lat="45.51521" lon="6.61328">
        <ele>1562.76</ele>
        <time>2016-01-19T13:04:08Z</time>
      </trkpt>
      <trkpt lat="45.51523" lon="6.61325">
        <ele>1569.01</ele>
        <time>2016-01-19T13:04:09Z</time>
      </trkpt>
      <trkpt lat="45.51524" lon="6.61323">
        <ele>1565.16</ele>
        <time>2016-01-19T13:04:10Z</time>
      </trkpt>
      <trkpt lat="45.51527" lon="6.61299">
        <ele>1565.16</ele>
        <time>2016-01-19T13:04:24Z</time>
      </trkpt>
      <trkpt lat="45.51531" lon="6.61293">
        <ele>1566.61</ele>
        <time>2016-01-19T13:04:35Z</time>
      </trkpt>
      <trkpt lat="45.51532" lon="6.61287">
        <ele>1566.61</ele>
        <time>2016-01-19T13:04:48Z</time>
      </trkpt>
      <trkpt lat="45.51535" lon="6.61283">
        <ele>1567.09</ele>
        <time>2016-01-19T13:05:00Z</time>
      </trkpt>
      <trkpt lat="45.51538" lon="6.61279">
        <ele>1567.09</ele>
        <time>2016-01-19T13:05:18Z</time>
      </trkpt>
      <trkpt lat="45.5155" lon="6.61273">
        <ele>1566.61</ele>
        <time>2016-01-19T13:05:34Z</time>
      </trkpt>
      <trkpt lat="45.51556" lon="6.61268">
        <ele>1566.61</ele>
        <time>2016-01-19T13:05:42Z</time>
      </trkpt>
      <trkpt lat="45.51558" lon="6.61265">
        <ele>1566.61</ele>
        <time>2016-01-19T13:05:45Z</time>
      </trkpt>
      <trkpt lat="45.51561" lon="6.61257">
        <ele>1566.61</ele>
        <time>2016-01-19T13:05:51Z</time>
      </trkpt>
      <trkpt lat="45.5156" lon="6.61247">
        <ele>1566.61</ele>
        <time>2016-01-19T13:06:05Z</time>
      </trkpt>
      <trkpt lat="45.5156" lon="6.61244">
        <ele>1566.61</ele>
        <time>2016-01-19T13:06:06Z</time>
      </trkpt>
      <trkpt lat="45.51559" lon="6.61242">
        <ele>1565.64</ele>
        <time>2016-01-19T13:06:07Z</time>
      </trkpt>
      <trkpt lat="45.51559" lon="6.6124">
        <ele>1566.12</ele>
        <time>2016-01-19T13:06:08Z</time>
      </trkpt>
      <trkpt lat="45.51558" lon="6.61237">
        <ele>1566.12</ele>
        <time>2016-01-19T13:06:09Z</time>
      </trkpt>
      <trkpt lat="45.51547" lon="6.61206">
        <ele>1564.68</ele>
        <time>2016-01-19T13:06:21Z</time>
      </trkpt>
      <trkpt lat="45.51537" lon="6.61183">
        <ele>1561.8</ele>
        <time>2016-01-19T13:06:28Z</time>
      </trkpt>
      <trkpt lat="45.51521" lon="6.61155">
        <ele>1561.32</ele>
        <time>2016-01-19T13:06:39Z</time>
      </trkpt>
      <trkpt lat="45.51512" lon="6.61144">
        <ele>1562.28</ele>
        <time>2016-01-19T13:06:44Z</time>
      </trkpt>
      <trkpt lat="45.5151" lon="6.61143">
        <ele>1558.92</ele>
        <time>2016-01-19T13:06:45Z</time>
      </trkpt>
      <trkpt lat="45.51508" lon="6.61141">
        <ele>1562.76</ele>
        <time>2016-01-19T13:06:46Z</time>
      </trkpt>
      <trkpt lat="45.51506" lon="6.61138">
        <ele>1559.4</ele>
        <time>2016-01-19T13:06:47Z</time>
      </trkpt>
      <trkpt lat="45.51495" lon="6.61124">
        <ele>1561.32</ele>
        <time>2016-01-19T13:06:53Z</time>
      </trkpt>
      <trkpt lat="45.51487" lon="6.61115">
        <ele>1557.95</ele>
        <time>2016-01-19T13:06:58Z</time>
      </trkpt>
      <trkpt lat="45.5147" lon="6.61084">
        <ele>1555.55</ele>
        <time>2016-01-19T13:07:08Z</time>
      </trkpt>
      <trkpt lat="45.51469" lon="6.61081">
        <ele>1559.4</ele>
        <time>2016-01-19T13:07:09Z</time>
      </trkpt>
      <trkpt lat="45.51467" lon="6.61077">
        <ele>1556.51</ele>
        <time>2016-01-19T13:07:10Z</time>
      </trkpt>
      <trkpt lat="45.51453" lon="6.6105">
        <ele>1554.59</ele>
        <time>2016-01-19T13:07:19Z</time>
      </trkpt>
      <trkpt lat="45.51451" lon="6.61047">
        <ele>1557.95</ele>
        <time>2016-01-19T13:07:20Z</time>
      </trkpt>
      <trkpt lat="45.51449" lon="6.61042">
        <ele>1554.11</ele>
        <time>2016-01-19T13:07:21Z</time>
      </trkpt>
      <trkpt lat="45.51439" lon="6.61001">
        <ele>1553.15</ele>
        <time>2016-01-19T13:07:33Z</time>
      </trkpt>
      <trkpt lat="45.51439" lon="6.60975">
        <ele>1554.11</ele>
        <time>2016-01-19T13:07:44Z</time>
      </trkpt>
      <trkpt lat="45.51437" lon="6.60963">
        <ele>1555.07</ele>
        <time>2016-01-19T13:07:59Z</time>
      </trkpt>
      <trkpt lat="45.51436" lon="6.60956">
        <ele>1555.55</ele>
        <time>2016-01-19T13:08:16Z</time>
      </trkpt>
      <trkpt lat="45.51436" lon="6.60955">
        <ele>1552.19</ele>
        <time>2016-01-19T13:08:17Z</time>
      </trkpt>
      <trkpt lat="45.51436" lon="6.60953">
        <ele>1555.55</ele>
        <time>2016-01-19T13:08:18Z</time>
      </trkpt>
      <trkpt lat="45.51435" lon="6.60948">
        <ele>1553.15</ele>
        <time>2016-01-19T13:08:32Z</time>
      </trkpt>
      <trkpt lat="45.51434" lon="6.60945">
        <ele>1554.11</ele>
        <time>2016-01-19T13:08:52Z</time>
      </trkpt>
      <trkpt lat="45.51432" lon="6.60943">
        <ele>1551.22</ele>
        <time>2016-01-19T13:09:10Z</time>
      </trkpt>
      <trkpt lat="45.51432" lon="6.60943">
        <ele>1556.99</ele>
        <time>2016-01-19T13:09:12Z</time>
      </trkpt>
      <trkpt lat="45.51432" lon="6.60943">
        <ele>1553.63</ele>
        <time>2016-01-19T13:09:13Z</time>
      </trkpt>
      <trkpt lat="45.51432" lon="6.60942">
        <ele>1554.59</ele>
        <time>2016-01-19T13:09:26Z</time>
      </trkpt>
      <trkpt lat="45.51432" lon="6.60941">
        <ele>1553.63</ele>
        <time>2016-01-19T13:09:27Z</time>
      </trkpt>
      <trkpt lat="45.5143" lon="6.60936">
        <ele>1551.71</ele>
        <time>2016-01-19T13:09:29Z</time>
      </trkpt>
      <trkpt lat="45.51428" lon="6.60921">
        <ele>1547.86</ele>
        <time>2016-01-19T13:09:32Z</time>
      </trkpt>
      <trkpt lat="45.51429" lon="6.60916">
        <ele>1547.86</ele>
        <time>2016-01-19T13:09:33Z</time>
      </trkpt>
      <trkpt lat="45.51429" lon="6.60911">
        <ele>1547.38</ele>
        <time>2016-01-19T13:09:34Z</time>
      </trkpt>
      <trkpt lat="45.5143" lon="6.609">
        <ele>1543.53</ele>
        <time>2016-01-19T13:09:36Z</time>
      </trkpt>
      <trkpt lat="45.51434" lon="6.60888">
        <ele>1537.77</ele>
        <time>2016-01-19T13:09:38Z</time>
      </trkpt>
      <trkpt lat="45.51442" lon="6.60872">
        <ele>1537.77</ele>
        <time>2016-01-19T13:09:40Z</time>
      </trkpt>
      <trkpt lat="45.51444" lon="6.60866">
        <ele>1537.77</ele>
        <time>2016-01-19T13:09:41Z</time>
      </trkpt>
      <trkpt lat="45.51445" lon="6.60862">
        <ele>1537.77</ele>
        <time>2016-01-19T13:09:42Z</time>
      </trkpt>
      <trkpt lat="45.51447" lon="6.60858">
        <ele>1537.77</ele>
        <time>2016-01-19T13:09:43Z</time>
      </trkpt>
      <trkpt lat="45.51449" lon="6.60855">
        <ele>1537.77</ele>
        <time>2016-01-19T13:09:44Z</time>
      </trkpt>
      <trkpt lat="45.5145" lon="6.6085">
        <ele>1538.73</ele>
        <time>2016-01-19T13:09:50Z</time>
      </trkpt>
      <trkpt lat="45.51448" lon="6.60848">
        <ele>1536.32</ele>
        <time>2016-01-19T13:09:51Z</time>
      </trkpt>
      <trkpt lat="45.51445" lon="6.60847">
        <ele>1536.32</ele>
        <time>2016-01-19T13:09:52Z</time>
      </trkpt>
      <trkpt lat="45.51444" lon="6.60847">
        <ele>1534.88</ele>
        <time>2016-01-19T13:09:53Z</time>
      </trkpt>
      <trkpt lat="45.51442" lon="6.60847">
        <ele>1534.88</ele>
        <time>2016-01-19T13:09:54Z</time>
      </trkpt>
      <trkpt lat="45.51434" lon="6.60849">
        <ele>1533.92</ele>
        <time>2016-01-19T13:10:00Z</time>
      </trkpt>
      <trkpt lat="45.51423" lon="6.60857">
        <ele>1532</ele>
        <time>2016-01-19T13:10:08Z</time>
      </trkpt>
      <trkpt lat="45.51414" lon="6.60873">
        <ele>1532</ele>
        <time>2016-01-19T13:10:24Z</time>
      </trkpt>
      <trkpt lat="45.51406" lon="6.60881">
        <ele>1533.44</ele>
        <time>2016-01-19T13:10:53Z</time>
      </trkpt>
      <trkpt lat="45.51405" lon="6.60878">
        <ele>1533.44</ele>
        <time>2016-01-19T13:10:54Z</time>
      </trkpt>
      <trkpt lat="45.51404" lon="6.60875">
        <ele>1532.48</ele>
        <time>2016-01-19T13:10:55Z</time>
      </trkpt>
      <trkpt lat="45.51405" lon="6.6087">
        <ele>1531.04</ele>
        <time>2016-01-19T13:10:56Z</time>
      </trkpt>
      <trkpt lat="45.51405" lon="6.60865">
        <ele>1531.04</ele>
        <time>2016-01-19T13:10:57Z</time>
      </trkpt>
      <trkpt lat="45.51406" lon="6.60861">
        <ele>1531.04</ele>
        <time>2016-01-19T13:10:58Z</time>
      </trkpt>
      <trkpt lat="45.51407" lon="6.60859">
        <ele>1531.04</ele>
        <time>2016-01-19T13:10:59Z</time>
      </trkpt>
      <trkpt lat="45.51409" lon="6.60858">
        <ele>1530.56</ele>
        <time>2016-01-19T13:11:00Z</time>
      </trkpt>
      <trkpt lat="45.51411" lon="6.60857">
        <ele>1529.59</ele>
        <time>2016-01-19T13:11:01Z</time>
      </trkpt>
      <trkpt lat="45.51413" lon="6.60855">
        <ele>1529.59</ele>
        <time>2016-01-19T13:11:02Z</time>
      </trkpt>
      <trkpt lat="45.51415" lon="6.60852">
        <ele>1527.67</ele>
        <time>2016-01-19T13:11:03Z</time>
      </trkpt>
      <trkpt lat="45.51417" lon="6.60851">
        <ele>1529.59</ele>
        <time>2016-01-19T13:11:04Z</time>
      </trkpt>
      <trkpt lat="45.51419" lon="6.60848">
        <ele>1527.67</ele>
        <time>2016-01-19T13:11:09Z</time>
      </trkpt>
      <trkpt lat="45.51421" lon="6.60846">
        <ele>1527.67</ele>
        <time>2016-01-19T13:11:10Z</time>
      </trkpt>
      <trkpt lat="45.51422" lon="6.60845">
        <ele>1527.67</ele>
        <time>2016-01-19T13:11:11Z</time>
      </trkpt>
      <trkpt lat="45.51424" lon="6.60843">
        <ele>1527.19</ele>
        <time>2016-01-19T13:11:12Z</time>
      </trkpt>
      <trkpt lat="45.51426" lon="6.60842">
        <ele>1526.71</ele>
        <time>2016-01-19T13:11:13Z</time>
      </trkpt>
      <trkpt lat="45.51429" lon="6.6084">
        <ele>1526.23</ele>
        <time>2016-01-19T13:11:14Z</time>
      </trkpt>
      <trkpt lat="45.51431" lon="6.60838">
        <ele>1526.23</ele>
        <time>2016-01-19T13:11:15Z</time>
      </trkpt>
      <trkpt lat="45.51433" lon="6.60833">
        <ele>1525.27</ele>
        <time>2016-01-19T13:11:16Z</time>
      </trkpt>
      <trkpt lat="45.51435" lon="6.60826">
        <ele>1523.83</ele>
        <time>2016-01-19T13:11:17Z</time>
      </trkpt>
      <trkpt lat="45.51435" lon="6.60819">
        <ele>1523.35</ele>
        <time>2016-01-19T13:11:18Z</time>
      </trkpt>
      <trkpt lat="45.51433" lon="6.60812">
        <ele>1522.39</ele>
        <time>2016-01-19T13:11:19Z</time>
      </trkpt>
      <trkpt lat="45.5143" lon="6.60805">
        <ele>1520.94</ele>
        <time>2016-01-19T13:11:20Z</time>
      </trkpt>
      <trkpt lat="45.51427" lon="6.60799">
        <ele>1520.94</ele>
        <time>2016-01-19T13:11:21Z</time>
      </trkpt>
      <trkpt lat="45.5142" lon="6.60787">
        <ele>1519.02</ele>
        <time>2016-01-19T13:11:23Z</time>
      </trkpt>
      <trkpt lat="45.51405" lon="6.60762">
        <ele>1516.14</ele>
        <time>2016-01-19T13:11:27Z</time>
      </trkpt>
      <trkpt lat="45.51393" lon="6.60744">
        <ele>1514.69</ele>
        <time>2016-01-19T13:11:30Z</time>
      </trkpt>
      <trkpt lat="45.51386" lon="6.60731">
        <ele>1513.25</ele>
        <time>2016-01-19T13:11:32Z</time>
      </trkpt>
      <trkpt lat="45.51379" lon="6.6072">
        <ele>1511.33</ele>
        <time>2016-01-19T13:11:34Z</time>
      </trkpt>
      <trkpt lat="45.51369" lon="6.60702">
        <ele>1508.45</ele>
        <time>2016-01-19T13:11:37Z</time>
      </trkpt>
      <trkpt lat="45.51363" lon="6.6069">
        <ele>1507.97</ele>
        <time>2016-01-19T13:11:39Z</time>
      </trkpt>
      <trkpt lat="45.51361" lon="6.60684">
        <ele>1506.52</ele>
        <time>2016-01-19T13:11:40Z</time>
      </trkpt>
      <trkpt lat="45.5136" lon="6.60677">
        <ele>1506.04</ele>
        <time>2016-01-19T13:11:41Z</time>
      </trkpt>
      <trkpt lat="45.51359" lon="6.60669">
        <ele>1506.04</ele>
        <time>2016-01-19T13:11:42Z</time>
      </trkpt>
      <trkpt lat="45.51358" lon="6.60661">
        <ele>1505.56</ele>
        <time>2016-01-19T13:11:43Z</time>
      </trkpt>
      <trkpt lat="45.51358" lon="6.60652">
        <ele>1504.12</ele>
        <time>2016-01-19T13:11:44Z</time>
      </trkpt>
      <trkpt lat="45.51359" lon="6.60643">
        <ele>1503.16</ele>
        <time>2016-01-19T13:11:45Z</time>
      </trkpt>
      <trkpt lat="45.51359" lon="6.60635">
        <ele>1502.2</ele>
        <time>2016-01-19T13:11:46Z</time>
      </trkpt>
      <trkpt lat="45.5136" lon="6.60627">
        <ele>1501.72</ele>
        <time>2016-01-19T13:11:47Z</time>
      </trkpt>
      <trkpt lat="45.51361" lon="6.60619">
        <ele>1501.24</ele>
        <time>2016-01-19T13:11:48Z</time>
      </trkpt>
      <trkpt lat="45.51363" lon="6.60613">
        <ele>1500.27</ele>
        <time>2016-01-19T13:11:49Z</time>
      </trkpt>
      <trkpt lat="45.51367" lon="6.60608">
        <ele>1500.27</ele>
        <time>2016-01-19T13:11:50Z</time>
      </trkpt>
      <trkpt lat="45.5137" lon="6.60604">
        <ele>1499.79</ele>
        <time>2016-01-19T13:11:51Z</time>
      </trkpt>
      <trkpt lat="45.51373" lon="6.60601">
        <ele>1498.83</ele>
        <time>2016-01-19T13:11:52Z</time>
      </trkpt>
      <trkpt lat="45.51377" lon="6.60598">
        <ele>1496.91</ele>
        <time>2016-01-19T13:11:53Z</time>
      </trkpt>
      <trkpt lat="45.5138" lon="6.60597">
        <ele>1496.91</ele>
        <time>2016-01-19T13:11:54Z</time>
      </trkpt>
      <trkpt lat="45.51387" lon="6.60594">
        <ele>1495.95</ele>
        <time>2016-01-19T13:11:56Z</time>
      </trkpt>
      <trkpt lat="45.51392" lon="6.60593">
        <ele>1494.51</ele>
        <time>2016-01-19T13:11:57Z</time>
      </trkpt>
      <trkpt lat="45.51397" lon="6.60591">
        <ele>1494.51</ele>
        <time>2016-01-19T13:11:58Z</time>
      </trkpt>
      <trkpt lat="45.51402" lon="6.60588">
        <ele>1493.06</ele>
        <time>2016-01-19T13:11:59Z</time>
      </trkpt>
      <trkpt lat="45.51403" lon="6.60585">
        <ele>1492.58</ele>
        <time>2016-01-19T13:12:00Z</time>
      </trkpt>
      <trkpt lat="45.51403" lon="6.60581">
        <ele>1492.58</ele>
        <time>2016-01-19T13:12:01Z</time>
      </trkpt>
      <trkpt lat="45.51402" lon="6.60579">
        <ele>1491.62</ele>
        <time>2016-01-19T13:12:02Z</time>
      </trkpt>
      <trkpt lat="45.514" lon="6.60578">
        <ele>1491.62</ele>
        <time>2016-01-19T13:12:03Z</time>
      </trkpt>
      <trkpt lat="45.51373" lon="6.60566">
        <ele>1488.26</ele>
        <time>2016-01-19T13:12:14Z</time>
      </trkpt>
      <trkpt lat="45.51368" lon="6.60564">
        <ele>1487.78</ele>
        <time>2016-01-19T13:12:16Z</time>
      </trkpt>
      <trkpt lat="45.51338" lon="6.6055">
        <ele>1484.41</ele>
        <time>2016-01-19T13:12:24Z</time>
      </trkpt>
      <trkpt lat="45.51302" lon="6.60535">
        <ele>1480.57</ele>
        <time>2016-01-19T13:12:35Z</time>
      </trkpt>
      <trkpt lat="45.51281" lon="6.60528">
        <ele>1476.24</ele>
        <time>2016-01-19T13:12:41Z</time>
      </trkpt>
      <trkpt lat="45.51277" lon="6.60526">
        <ele>1480.09</ele>
        <time>2016-01-19T13:12:42Z</time>
      </trkpt>
      <trkpt lat="45.51272" lon="6.60525">
        <ele>1477.68</ele>
        <time>2016-01-19T13:12:43Z</time>
      </trkpt>
      <trkpt lat="45.51267" lon="6.60524">
        <ele>1476.72</ele>
        <time>2016-01-19T13:12:44Z</time>
      </trkpt>
      <trkpt lat="45.51257" lon="6.6052">
        <ele>1475.76</ele>
        <time>2016-01-19T13:12:46Z</time>
      </trkpt>
      <trkpt lat="45.51229" lon="6.60505">
        <ele>1471.92</ele>
        <time>2016-01-19T13:12:51Z</time>
      </trkpt>
      <trkpt lat="45.51218" lon="6.605">
        <ele>1471.44</ele>
        <time>2016-01-19T13:12:53Z</time>
      </trkpt>
      <trkpt lat="45.51197" lon="6.60492">
        <ele>1469.03</ele>
        <time>2016-01-19T13:12:57Z</time>
      </trkpt>
      <trkpt lat="45.51191" lon="6.60489">
        <ele>1468.55</ele>
        <time>2016-01-19T13:12:58Z</time>
      </trkpt>
      <trkpt lat="45.51186" lon="6.60486">
        <ele>1468.07</ele>
        <time>2016-01-19T13:12:59Z</time>
      </trkpt>
      <trkpt lat="45.5117" lon="6.60476">
        <ele>1466.63</ele>
        <time>2016-01-19T13:13:02Z</time>
      </trkpt>
      <trkpt lat="45.51161" lon="6.60467">
        <ele>1465.19</ele>
        <time>2016-01-19T13:13:04Z</time>
      </trkpt>
      <trkpt lat="45.51156" lon="6.60462">
        <ele>1465.19</ele>
        <time>2016-01-19T13:13:05Z</time>
      </trkpt>
      <trkpt lat="45.51145" lon="6.60446">
        <ele>1464.23</ele>
        <time>2016-01-19T13:13:08Z</time>
      </trkpt>
      <trkpt lat="45.51134" lon="6.60431">
        <ele>1462.78</ele>
        <time>2016-01-19T13:13:11Z</time>
      </trkpt>
      <trkpt lat="45.51131" lon="6.60427">
        <ele>1462.3</ele>
        <time>2016-01-19T13:13:12Z</time>
      </trkpt>
      <trkpt lat="45.51126" lon="6.60423">
        <ele>1461.82</ele>
        <time>2016-01-19T13:13:13Z</time>
      </trkpt>
      <trkpt lat="45.51098" lon="6.60407">
        <ele>1458.94</ele>
        <time>2016-01-19T13:13:19Z</time>
      </trkpt>
      <trkpt lat="45.51072" lon="6.60396">
        <ele>1455.57</ele>
        <time>2016-01-19T13:13:24Z</time>
      </trkpt>
      <trkpt lat="45.51046" lon="6.60382">
        <ele>1453.17</ele>
        <time>2016-01-19T13:13:29Z</time>
      </trkpt>
      <trkpt lat="45.51041" lon="6.60378">
        <ele>1452.21</ele>
        <time>2016-01-19T13:13:30Z</time>
      </trkpt>
      <trkpt lat="45.51017" lon="6.6036">
        <ele>1448.36</ele>
        <time>2016-01-19T13:13:35Z</time>
      </trkpt>
      <trkpt lat="45.51013" lon="6.60356">
        <ele>1448.36</ele>
        <time>2016-01-19T13:13:36Z</time>
      </trkpt>
      <trkpt lat="45.50998" lon="6.60344">
        <ele>1447.4</ele>
        <time>2016-01-19T13:13:39Z</time>
      </trkpt>
      <trkpt lat="45.50988" lon="6.60336">
        <ele>1444.52</ele>
        <time>2016-01-19T13:13:41Z</time>
      </trkpt>
      <trkpt lat="45.50953" lon="6.60318">
        <ele>1442.11</ele>
        <time>2016-01-19T13:13:47Z</time>
      </trkpt>
      <trkpt lat="45.50924" lon="6.60301">
        <ele>1438.27</ele>
        <time>2016-01-19T13:13:52Z</time>
      </trkpt>
      <trkpt lat="45.50914" lon="6.60295">
        <ele>1437.31</ele>
        <time>2016-01-19T13:13:54Z</time>
      </trkpt>
      <trkpt lat="45.50909" lon="6.60291">
        <ele>1436.35</ele>
        <time>2016-01-19T13:13:55Z</time>
      </trkpt>
      <trkpt lat="45.50904" lon="6.60287">
        <ele>1436.35</ele>
        <time>2016-01-19T13:13:56Z</time>
      </trkpt>
      <trkpt lat="45.50888" lon="6.60273">
        <ele>1434.91</ele>
        <time>2016-01-19T13:14:00Z</time>
      </trkpt>
      <trkpt lat="45.50876" lon="6.60265">
        <ele>1433.94</ele>
        <time>2016-01-19T13:14:03Z</time>
      </trkpt>
      <trkpt lat="45.50848" lon="6.60226">
        <ele>1432.5</ele>
        <time>2016-01-19T13:14:14Z</time>
      </trkpt>
      <trkpt lat="45.50826" lon="6.60196">
        <ele>1428.66</ele>
        <time>2016-01-19T13:14:22Z</time>
      </trkpt>
      <trkpt lat="45.50815" lon="6.60182">
        <ele>1427.7</ele>
        <time>2016-01-19T13:14:25Z</time>
      </trkpt>
      <trkpt lat="45.50807" lon="6.60174">
        <ele>1426.73</ele>
        <time>2016-01-19T13:14:27Z</time>
      </trkpt>
      <trkpt lat="45.508" lon="6.60164">
        <ele>1425.29</ele>
        <time>2016-01-19T13:14:29Z</time>
      </trkpt>
      <trkpt lat="45.50793" lon="6.60153">
        <ele>1421.93</ele>
        <time>2016-01-19T13:14:31Z</time>
      </trkpt>
      <trkpt lat="45.5079" lon="6.60147">
        <ele>1425.29</ele>
        <time>2016-01-19T13:14:32Z</time>
      </trkpt>
      <trkpt lat="45.50786" lon="6.60142">
        <ele>1422.41</ele>
        <time>2016-01-19T13:14:33Z</time>
      </trkpt>
      <trkpt lat="45.50784" lon="6.60137">
        <ele>1421.93</ele>
        <time>2016-01-19T13:14:34Z</time>
      </trkpt>
      <trkpt lat="45.50781" lon="6.60131">
        <ele>1421.93</ele>
        <time>2016-01-19T13:14:35Z</time>
      </trkpt>
      <trkpt lat="45.50774" lon="6.60118">
        <ele>1420.97</ele>
        <time>2016-01-19T13:14:37Z</time>
      </trkpt>
      <trkpt lat="45.50767" lon="6.60099">
        <ele>1418.08</ele>
        <time>2016-01-19T13:14:40Z</time>
      </trkpt>
      <trkpt lat="45.50765" lon="6.60092">
        <ele>1418.08</ele>
        <time>2016-01-19T13:14:41Z</time>
      </trkpt>
      <trkpt lat="45.50757" lon="6.6007">
        <ele>1416.16</ele>
        <time>2016-01-19T13:14:44Z</time>
      </trkpt>
      <trkpt lat="45.50755" lon="6.60063">
        <ele>1415.2</ele>
        <time>2016-01-19T13:14:45Z</time>
      </trkpt>
      <trkpt lat="45.50753" lon="6.60056">
        <ele>1414.24</ele>
        <time>2016-01-19T13:14:46Z</time>
      </trkpt>
      <trkpt lat="45.50747" lon="6.6004">
        <ele>1413.76</ele>
        <time>2016-01-19T13:14:48Z</time>
      </trkpt>
      <trkpt lat="45.50738" lon="6.60016">
        <ele>1411.83</ele>
        <time>2016-01-19T13:14:51Z</time>
      </trkpt>
      <trkpt lat="45.50732" lon="6.6">
        <ele>1410.39</ele>
        <time>2016-01-19T13:14:53Z</time>
      </trkpt>
      <trkpt lat="45.50729" lon="6.59992">
        <ele>1409.91</ele>
        <time>2016-01-19T13:14:54Z</time>
      </trkpt>
      <trkpt lat="45.50726" lon="6.59985">
        <ele>1409.91</ele>
        <time>2016-01-19T13:14:55Z</time>
      </trkpt>
      <trkpt lat="45.50723" lon="6.59979">
        <ele>1408.47</ele>
        <time>2016-01-19T13:14:56Z</time>
      </trkpt>
      <trkpt lat="45.5072" lon="6.59972">
        <ele>1408.47</ele>
        <time>2016-01-19T13:14:57Z</time>
      </trkpt>
      <trkpt lat="45.50716" lon="6.59964">
        <ele>1407.99</ele>
        <time>2016-01-19T13:14:58Z</time>
      </trkpt>
      <trkpt lat="45.50714" lon="6.59958">
        <ele>1407.03</ele>
        <time>2016-01-19T13:14:59Z</time>
      </trkpt>
      <trkpt lat="45.50715" lon="6.59954">
        <ele>1408.95</ele>
        <time>2016-01-19T13:15:00Z</time>
      </trkpt>
      <trkpt lat="45.50716" lon="6.5995">
        <ele>1408.95</ele>
        <time>2016-01-19T13:15:03Z</time>
      </trkpt>
      <trkpt lat="45.50717" lon="6.59947">
        <ele>1406.07</ele>
        <time>2016-01-19T13:15:04Z</time>
      </trkpt>
      <trkpt lat="45.50727" lon="6.5994">
        <ele>1402.7</ele>
        <time>2016-01-19T13:15:08Z</time>
      </trkpt>
      <trkpt lat="45.50727" lon="6.59933">
        <ele>1401.74</ele>
        <time>2016-01-19T13:15:13Z</time>
      </trkpt>
      <trkpt lat="45.50728" lon="6.59925">
        <ele>1398.86</ele>
        <time>2016-01-19T13:15:15Z</time>
      </trkpt>
      <trkpt lat="45.50741" lon="6.59925">
        <ele>1394.05</ele>
        <time>2016-01-19T13:15:19Z</time>
      </trkpt>
      <trkpt lat="45.50746" lon="6.59923">
        <ele>1394.05</ele>
        <time>2016-01-19T13:15:20Z</time>
      </trkpt>
      <trkpt lat="45.50747" lon="6.59913">
        <ele>1388.28</ele>
        <time>2016-01-19T13:15:22Z</time>
      </trkpt>
      <trkpt lat="45.50751" lon="6.59907">
        <ele>1384.92</ele>
        <time>2016-01-19T13:15:24Z</time>
      </trkpt>
      <trkpt lat="45.50755" lon="6.59903">
        <ele>1385.4</ele>
        <time>2016-01-19T13:15:25Z</time>
      </trkpt>
      <trkpt lat="45.50759" lon="6.599">
        <ele>1381.55</ele>
        <time>2016-01-19T13:15:26Z</time>
      </trkpt>
      <trkpt lat="45.50767" lon="6.59889">
        <ele>1375.3</ele>
        <time>2016-01-19T13:15:28Z</time>
      </trkpt>
      <trkpt lat="45.50769" lon="6.59883">
        <ele>1380.59</ele>
        <time>2016-01-19T13:15:29Z</time>
      </trkpt>
      <trkpt lat="45.50773" lon="6.5988">
        <ele>1370.02</ele>
        <time>2016-01-19T13:15:30Z</time>
      </trkpt>
      <trkpt lat="45.50778" lon="6.5988">
        <ele>1373.86</ele>
        <time>2016-01-19T13:15:31Z</time>
      </trkpt>
      <trkpt lat="45.50784" lon="6.59878">
        <ele>1369.05</ele>
        <time>2016-01-19T13:15:32Z</time>
      </trkpt>
      <trkpt lat="45.50788" lon="6.59872">
        <ele>1365.69</ele>
        <time>2016-01-19T13:15:33Z</time>
      </trkpt>
      <trkpt lat="45.50793" lon="6.59857">
        <ele>1362.33</ele>
        <time>2016-01-19T13:15:35Z</time>
      </trkpt>
      <trkpt lat="45.50795" lon="6.59853">
        <ele>1362.33</ele>
        <time>2016-01-19T13:15:36Z</time>
      </trkpt>
      <trkpt lat="45.50803" lon="6.59857">
        <ele>1358</ele>
        <time>2016-01-19T13:15:38Z</time>
      </trkpt>
      <trkpt lat="45.50814" lon="6.59861">
        <ele>1354.63</ele>
        <time>2016-01-19T13:15:40Z</time>
      </trkpt>
      <trkpt lat="45.50819" lon="6.59862">
        <ele>1350.79</ele>
        <time>2016-01-19T13:15:41Z</time>
      </trkpt>
      <trkpt lat="45.50824" lon="6.59864">
        <ele>1352.23</ele>
        <time>2016-01-19T13:15:42Z</time>
      </trkpt>
      <trkpt lat="45.50828" lon="6.59871">
        <ele>1352.23</ele>
        <time>2016-01-19T13:15:43Z</time>
      </trkpt>
      <trkpt lat="45.50839" lon="6.59886">
        <ele>1347.43</ele>
        <time>2016-01-19T13:15:45Z</time>
      </trkpt>
      <trkpt lat="45.50844" lon="6.59903">
        <ele>1347.43</ele>
        <time>2016-01-19T13:15:49Z</time>
      </trkpt>
      <trkpt lat="45.50849" lon="6.59912">
        <ele>1349.35</ele>
        <time>2016-01-19T13:15:52Z</time>
      </trkpt>
      <trkpt lat="45.50854" lon="6.59918">
        <ele>1345.5</ele>
        <time>2016-01-19T13:15:55Z</time>
      </trkpt>
      <trkpt lat="45.5086" lon="6.59921">
        <ele>1342.14</ele>
        <time>2016-01-19T13:15:57Z</time>
      </trkpt>
      <trkpt lat="45.50866" lon="6.59922">
        <ele>1343.1</ele>
        <time>2016-01-19T13:15:58Z</time>
      </trkpt>
      <trkpt lat="45.50878" lon="6.59923">
        <ele>1338.77</ele>
        <time>2016-01-19T13:16:00Z</time>
      </trkpt>
      <trkpt lat="45.50897" lon="6.59929">
        <ele>1334.93</ele>
        <time>2016-01-19T13:16:03Z</time>
      </trkpt>
      <trkpt lat="45.50904" lon="6.59935">
        <ele>1332.04</ele>
        <time>2016-01-19T13:16:04Z</time>
      </trkpt>
      <trkpt lat="45.50909" lon="6.59942">
        <ele>1331.08</ele>
        <time>2016-01-19T13:16:05Z</time>
      </trkpt>
      <trkpt lat="45.50915" lon="6.59952">
        <ele>1331.08</ele>
        <time>2016-01-19T13:16:06Z</time>
      </trkpt>
      <trkpt lat="45.50929" lon="6.59976">
        <ele>1327.72</ele>
        <time>2016-01-19T13:16:09Z</time>
      </trkpt>
      <trkpt lat="45.50933" lon="6.59982">
        <ele>1327.72</ele>
        <time>2016-01-19T13:16:10Z</time>
      </trkpt>
      <trkpt lat="45.50946" lon="6.60005">
        <ele>1326.28</ele>
        <time>2016-01-19T13:16:15Z</time>
      </trkpt>
      <trkpt lat="45.50949" lon="6.60007">
        <ele>1326.76</ele>
        <time>2016-01-19T13:16:16Z</time>
      </trkpt>
      <trkpt lat="45.50966" lon="6.60017">
        <ele>1325.31</ele>
        <time>2016-01-19T13:16:22Z</time>
      </trkpt>
      <trkpt lat="45.50965" lon="6.60023">
        <ele>1324.35</ele>
        <time>2016-01-19T13:16:25Z</time>
      </trkpt>
      <trkpt lat="45.5096" lon="6.60032">
        <ele>1322.43</ele>
        <time>2016-01-19T13:16:29Z</time>
      </trkpt>
      <trkpt lat="45.50963" lon="6.60038">
        <ele>1320.99</ele>
        <time>2016-01-19T13:16:31Z</time>
      </trkpt>
      <trkpt lat="45.50962" lon="6.60041">
        <ele>1320.03</ele>
        <time>2016-01-19T13:16:33Z</time>
      </trkpt>
      <trkpt lat="45.50966" lon="6.60055">
        <ele>1316.66</ele>
        <time>2016-01-19T13:16:38Z</time>
      </trkpt>
      <trkpt lat="45.50966" lon="6.60058">
        <ele>1316.18</ele>
        <time>2016-01-19T13:16:39Z</time>
      </trkpt>
      <trkpt lat="45.50977" lon="6.6007">
        <ele>1314.26</ele>
        <time>2016-01-19T13:16:43Z</time>
      </trkpt>
      <trkpt lat="45.50998" lon="6.60073">
        <ele>1310.41</ele>
        <time>2016-01-19T13:16:50Z</time>
      </trkpt>
      <trkpt lat="45.51" lon="6.60071">
        <ele>1310.41</ele>
        <time>2016-01-19T13:16:51Z</time>
      </trkpt>
      <trkpt lat="45.51055" lon="6.60072">
        <ele>1307.05</ele>
        <time>2016-01-19T13:16:55Z</time>
      </trkpt>
      <trkpt lat="45.51066" lon="6.60069">
        <ele>1307.05</ele>
        <time>2016-01-19T13:16:56Z</time>
      </trkpt>
      <trkpt lat="45.51105" lon="6.60057">
        <ele>1304.17</ele>
        <time>2016-01-19T13:17:00Z</time>
      </trkpt>
      <trkpt lat="45.51175" lon="6.60043">
        <ele>1301.76</ele>
        <time>2016-01-19T13:17:06Z</time>
      </trkpt>
      <trkpt lat="45.51193" lon="6.60032">
        <ele>1300.32</ele>
        <time>2016-01-19T13:17:10Z</time>
      </trkpt>
      <trkpt lat="45.51199" lon="6.60031">
        <ele>1299.84</ele>
        <time>2016-01-19T13:17:11Z</time>
      </trkpt>
      <trkpt lat="45.51239" lon="6.60027">
        <ele>1296.96</ele>
        <time>2016-01-19T13:17:20Z</time>
      </trkpt>
      <trkpt lat="45.51277" lon="6.60006">
        <ele>1294.55</ele>
        <time>2016-01-19T13:17:29Z</time>
      </trkpt>
      <trkpt lat="45.51289" lon="6.59968">
        <ele>1291.67</ele>
        <time>2016-01-19T13:17:34Z</time>
      </trkpt>
      <trkpt lat="45.5129" lon="6.59959">
        <ele>1294.07</ele>
        <time>2016-01-19T13:17:35Z</time>
      </trkpt>
      <trkpt lat="45.51291" lon="6.59951">
        <ele>1291.19</ele>
        <time>2016-01-19T13:17:36Z</time>
      </trkpt>
      <trkpt lat="45.51291" lon="6.59943">
        <ele>1291.19</ele>
        <time>2016-01-19T13:17:37Z</time>
      </trkpt>
      <trkpt lat="45.51291" lon="6.59935">
        <ele>1291.19</ele>
        <time>2016-01-19T13:17:38Z</time>
      </trkpt>
      <trkpt lat="45.51293" lon="6.59898">
        <ele>1290.71</ele>
        <time>2016-01-19T13:17:43Z</time>
      </trkpt>
      <trkpt lat="45.51294" lon="6.59891">
        <ele>1289.27</ele>
        <time>2016-01-19T13:17:44Z</time>
      </trkpt>
      <trkpt lat="45.51295" lon="6.59886">
        <ele>1289.27</ele>
        <time>2016-01-19T13:17:45Z</time>
      </trkpt>
      <trkpt lat="45.51297" lon="6.59881">
        <ele>1288.78</ele>
        <time>2016-01-19T13:17:46Z</time>
      </trkpt>
      <trkpt lat="45.51299" lon="6.59877">
        <ele>1288.78</ele>
        <time>2016-01-19T13:17:47Z</time>
      </trkpt>
      <trkpt lat="45.51302" lon="6.59875">
        <ele>1288.78</ele>
        <time>2016-01-19T13:17:48Z</time>
      </trkpt>
      <trkpt lat="45.51304" lon="6.59875">
        <ele>1288.3</ele>
        <time>2016-01-19T13:17:49Z</time>
      </trkpt>
      <trkpt lat="45.51307" lon="6.59875">
        <ele>1288.3</ele>
        <time>2016-01-19T13:17:50Z</time>
      </trkpt>
      <trkpt lat="45.5131" lon="6.59875">
        <ele>1287.82</ele>
        <time>2016-01-19T13:17:51Z</time>
      </trkpt>
      <trkpt lat="45.51313" lon="6.59874">
        <ele>1287.34</ele>
        <time>2016-01-19T13:17:52Z</time>
      </trkpt>
      <trkpt lat="45.51316" lon="6.59873">
        <ele>1287.34</ele>
        <time>2016-01-19T13:17:53Z</time>
      </trkpt>
      <trkpt lat="45.5132" lon="6.59872">
        <ele>1286.86</ele>
        <time>2016-01-19T13:17:54Z</time>
      </trkpt>
      <trkpt lat="45.51323" lon="6.59869">
        <ele>1286.86</ele>
        <time>2016-01-19T13:17:55Z</time>
      </trkpt>
      <trkpt lat="45.51327" lon="6.59866">
        <ele>1285.9</ele>
        <time>2016-01-19T13:17:56Z</time>
      </trkpt>
      <trkpt lat="45.5133" lon="6.59863">
        <ele>1285.9</ele>
        <time>2016-01-19T13:17:57Z</time>
      </trkpt>
      <trkpt lat="45.51336" lon="6.59853">
        <ele>1285.9</ele>
        <time>2016-01-19T13:18:05Z</time>
      </trkpt>
      <trkpt lat="45.5134" lon="6.59847">
        <ele>1285.9</ele>
        <time>2016-01-19T13:18:20Z</time>
      </trkpt>
      <trkpt lat="45.51343" lon="6.59847">
        <ele>1285.9</ele>
        <time>2016-01-19T13:18:43Z</time>
      </trkpt>
      <trkpt lat="45.51344" lon="6.59843">
        <ele>1285.9</ele>
        <time>2016-01-19T13:19:03Z</time>
      </trkpt>
      <trkpt lat="45.51343" lon="6.59843">
        <ele>1285.9</ele>
        <time>2016-01-19T13:19:21Z</time>
      </trkpt>
      <trkpt lat="45.5134" lon="6.59844">
        <ele>1285.9</ele>
        <time>2016-01-19T13:19:45Z</time>
      </trkpt>
      <trkpt lat="45.51339" lon="6.59844">
        <ele>1285.9</ele>
        <time>2016-01-19T13:20:01Z</time>
      </trkpt>
      <trkpt lat="45.51342" lon="6.59843">
        <ele>1285.42</ele>
        <time>2016-01-19T13:20:14Z</time>
      </trkpt>
      <trkpt lat="45.51342" lon="6.59843">
        <ele>1286.86</ele>
        <time>2016-01-19T13:20:16Z</time>
      </trkpt>
      <trkpt lat="45.5134" lon="6.59844">
        <ele>1285.9</ele>
        <time>2016-01-19T13:20:35Z</time>
      </trkpt>
      <trkpt lat="45.51339" lon="6.59845">
        <ele>1286.38</ele>
        <time>2016-01-19T13:20:36Z</time>
      </trkpt>
      <trkpt lat="45.51339" lon="6.59843">
        <ele>1286.38</ele>
        <time>2016-01-19T13:20:57Z</time>
      </trkpt>
      <trkpt lat="45.51338" lon="6.59843">
        <ele>1286.38</ele>
        <time>2016-01-19T13:21:14Z</time>
      </trkpt>
    </trkseg>
  </trk>
</gpx>